     2.10           OBSERVATION DATA    G (GPS)             RINEX VERSION / TYPE
teqc 2002Mar14 SOPAC 20050725 22:55:32UTC                   PGM / RUN BY / DATE
Linux 2.0.36|Pentium II|gcc -static|Linux|486/DX+           COMMENT
BIT 2 OF LLI FLAGS DATA COLLECTED UNDER A/S CONDITION       COMMENT
395 LAS 10.05                                               MARKER NAME
2BY1                                                        MARKER NUMBER
Dave Goodman                                                OBSERVER / AGENCY
0220309504 TRIMBLE 5700 2.01                                REC # / TYPE / VERS
12422974 TRM41249.00 NONE                                   ANT # / TYPE
 -2455286.0000 -4245394.0000  4066390.0000                  APPROX POSITION XYZ
        2.0000        0.0000        0.0000                  ANTENNA: DELTA H/E/N
     1     1                                                WAVELENGTH FACT L1/2
     6    L1    L2    C1    P2    P1    D1                  # / TYPES OF OBSERV
    15.0000                                                 INTERVAL
Northern California Height Modernization 2004               COMMENT
                                                            COMMENT
SOPAC - Scripps Orbit and Permanent Array Center            COMMENT
IGPP - Institute of Geophysics and Planetary Physics        COMMENT
SIO - Scripps Institution of Oceanography                   COMMENT
UCSD - University of California, San Diego                  COMMENT
                                                            COMMENT
email: archive@gpsmail.ucsd.edu                             COMMENT
ftp://garner.ucsd.edu                                       COMMENT
http://sopac.ucsd.edu                                       COMMENT
                                                            COMMENT
                                                            COMMENT
Approximate Lat, Lon : 39.853, -120.043                     COMMENT
                                                            COMMENT
SNR is mapped to RINEX snr flag value [1-9]                 COMMENT
L1: 3 -> 1; 8 -> 5; 40 -> 9                                 COMMENT
L2: 1 -> 1; 5 -> 5; 60 -> 9                                 COMMENT
  2004     9    16    20    58   30.0000000     GPS         TIME OF FIRST OBS
                                                            END OF HEADER
 04  9 16 20 58 30.0000000  0  6G 3G 8G13G19G23G27
    160826.82459    118808.51657  22679468.5084   22679469.0124

   -449244.34859   -344714.85957  22213461.1804   22213460.3134

    356002.46959    265367.21158  20163907.5234   20163905.4924

   -425801.50459   -328383.75857  23104456.5634   23104455.1414

   1010204.91459    759358.62957  21981346.4534   21981343.9384

   -109170.91059    -87276.43758  21134419.9694   21134418.4574

 04  9 16 20 58 45.0000000  0  6G 3G 8G13G19G23G27
    170808.41049    126586.36347  22681367.9694   22681368.5704
      -665.4394
   -472269.50449   -362656.52747  22209079.6024   22209078.9494
      1535.0104
    375903.49249    280874.48848  20167694.6094   20167692.2154
     -1326.7354
   -447308.30949   -345142.27347  23100364.0634   23100362.5744
      1433.7874
   1063850.52349    801160.35947  21991555.0864   21991552.0354
     -3576.3744
   -114405.84849    -91355.60548  21133423.8204   21133422.2584
       348.9964
 04  9 16 20 59  0.0000000  0  6G 3G 8G13G19G23G27
    180947.92249    134487.27747  22683297.6254   22683297.8444
      -675.9674
   -495239.80149   -380555.44947  22204708.0394   22204708.2344
      1531.3534
    395940.61349    296487.82048  20171507.6644   20171505.2034
     -1335.8084
   -468716.48849   -361823.93047  23096290.4614   23096288.7664
      1427.2124
   1117591.46149    843036.37147  22001781.5944   22001779.0704
     -3582.7294
   -119585.86749    -95391.98448  21132437.9924   21132436.8014
       345.3354
 04  9 16 20 59 15.0000000  0  6G 3G 8G13G19G23G27
    191244.59849    142510.65647  22685256.4144   22685257.3364
      -686.4454
   -518156.06249   -398412.26247  22200347.7664   22200346.8094
      1527.7514
    416113.02349    312206.57448  20175346.5004   20175343.9884
     -1344.8274
   -490026.53149   -378429.13347  23092235.1804   23092233.3364
      1420.6704
   1171426.70349    884985.87547  22012026.0164   22012022.9104
     -3589.0164
   -124711.93449    -99386.31648  21131462.3444   21131461.1484
       341.7384
 04  9 16 20 59 30.0000000  0  6G 3G 8G13G19G23G27
    201696.20749    150654.76247  22687246.2194   22687246.1054
      -696.7744
   -541020.43749   -416228.64847  22195996.5554   22195996.0274
      1524.2924
    436418.46949    328028.98048  20179210.1254   20179208.1764
     -1353.6964
   -511240.40649   -394959.39147  23088198.3914   23088196.4384
      1414.2584
   1225353.82449    927006.95747  22022287.6804   22022284.8714
     -3595.1414
   -129786.12549   -103340.23448  21130496.8674   21130495.4844
       338.2794
 04  9 16 20 59 45.0000000  0  6G 3G 8G13G19G23G27
    212303.57449    158920.22747  22689264.3054   22689264.9224
      -707.1584
   -563832.31249   -434004.12147  22191656.0004   22191655.1294
      1520.7924
    456857.77349    343955.70348  20183099.8134   20183097.5784
     -1362.6204
   -532357.09449   -411413.91847  23084178.5704   23084177.9694
      1407.7794
   1279373.38749    969100.07847  22032567.6254   22032564.5514
     -3601.3044
   -134807.95349   -107253.34448  21129541.6884   21129540.1214
       334.7894
 04  9 16 21  0  0.0000000  0  6G 3G 8G13G19G23G27
    223064.03549    167304.99647  22691311.8204   22691311.8834
      -717.3644
   -586594.32449   -451740.73447  22187324.3444   22187323.7034
      1517.4674
    477428.34049    359984.71148  20187014.0084   20187012.1334
     -1371.3714
   -553378.90249   -427794.51247  23080179.1414   23080178.1024
      1401.4544
   1333482.47749   1011262.98047  22042863.6484   22042861.7154
     -3607.2734
   -139779.86349   -111127.55948  21128595.4534   21128593.9494
       331.4614
 04  9 16 21  0 15.0000000  0  6G 3G 8G13G19G23G27
    233976.63349    175808.31647  22693388.5234   22693388.6954
      -727.5074
   -609307.08249   -469438.98447  22183002.5704   22183000.8094
      1514.1844
    498129.25849    376115.28548  20190953.4064   20190951.1094
     -1380.0614
   -574306.43049   -444101.63747  23076196.4844   23076195.2974
      1395.1684
   1387680.11749   1053494.84847  22053177.5554   22053175.1684
     -3613.1764
   -144702.96949   -114963.73848  21127658.6644   21127656.8134
       328.2074
 04  9 16 21  0 30.0000000  0  6G 3G 8G13G19G23G27
    245042.00449    184430.67647  22695494.2194   22695494.0784
      -737.6914
   -631970.38349   -487098.68747  22178689.2894   22178688.8364
      1510.8874
    518961.08649    392347.87148  20194917.5314   20194915.4694
     -1388.7894
   -595138.83649   -460334.64147  23072232.6644   23072231.2464
      1388.8274
   1441966.59449   1095795.95347  22063508.0704   22063505.2464
     -3619.0984
   -149576.67249   -118761.43048  21126731.2424   21126729.2624
       324.9144
 04  9 16 21  0 45.0000000  0  6G 3G 8G13G19G23G27
    256259.88749    193171.86747  22697628.6954   22697628.7154
      -747.8594
   -654584.48849   -504720.06247  22174386.2814   22174385.3914
      1507.6074
    539923.52049    408682.23048  20198906.5864   20198904.1644
     -1397.4964
   -615876.08649   -476493.50847  23068286.2114   23068284.8554
      1382.4834
   1496341.38749   1138165.87947  22073854.9224   22073852.4384
     -3624.9864
   -154401.37149   -122520.93748  21125813.0864   21125811.5124
       321.6474
 04  9 16 21  1  0.0000000  0  6G 3G 8G13G19G23G27
    267629.63749    202031.43047  22699792.2664   22699792.7154
      -757.9834
   -677150.11749   -522303.66047  22170092.0164   22170091.5904
      1504.3754
    561015.75849    425117.73048  20202920.4844   20202918.2464
     -1406.1494
   -636518.64549   -492578.58247  23064358.0234   23064356.2814
      1376.1714
   1550803.63349   1180603.95347  22084219.1334   22084216.4104
     -3630.8164
   -159177.78949   -126242.81248  21124904.1484   21124902.7074
       318.4284
 04  9 16 21  1 15.0000000  0  6G 3G 8G13G19G23G27
    279152.30949    211010.12147  22701984.7734   22701984.6684
      -768.1784
   -699666.25449   -539848.68747  22165807.2504   22165806.5354
      1501.0764
    582238.90249    441655.24248  20206958.8444   20206956.9614
     -1414.8764
   -657065.07849   -508588.76247  23060447.7274   23060446.5474
      1369.7624
   1605354.06349   1223110.73847  22094599.9304   22094596.6294
     -3636.6954
   -163904.80549   -129926.20348  21124004.5864   21124003.1564
       315.1344
 04  9 16 21  1 30.0000000  0  6G 3G 8G13G19G23G27
    290825.91049    220106.44547  22704206.5554   22704205.7154
      -778.2404
   -722134.79349   -557356.62947  22161531.8524   22161531.1294
      1497.9034
    603591.12149    458293.32448  20211022.1644   20211019.9264
     -1423.4814
   -677517.18749   -524525.41847  23056556.4774   23056554.2074
      1363.4744
   1659990.59049   1265684.61747  22104996.6724   22104993.4844
     -3642.4354
   -168584.57049   -133572.76648  21123114.1954   21123112.7304
       311.9844
 04  9 16 21  1 45.0000000  0  6G 3G 8G13G19G23G27
    302651.21149    229320.95747  22706456.9924   22706456.1954
      -788.3534
   -744555.14549   -574827.01647  22157265.2734   22157264.5904
      1494.6904
    625072.98849    475032.42648  20215109.9304   20215107.9614
     -1432.1244
   -697873.91849   -540387.78147  23052682.1804   23052680.8984
      1357.1154
   1714713.63749   1308325.91847  22115410.4844   22115407.5164
     -3648.2034
   -173216.44949   -137182.02748  21122232.6174   21122231.0234
       308.7924
 04  9 16 21  2  0.0000000  0  6G 3G 8G13G19G23G27
    314627.00049    238652.73447  22708735.6804   22708735.5434
      -798.3864
   -766928.39849   -592260.71547  22153007.7114   22153007.2584
      1491.5504
    646683.39149    491871.69548  20219222.4144   20219220.0784
     -1440.6934
   -718136.06649   -556176.44147  23048826.3754   23048824.7814
      1350.8104
   1769521.81649   1351033.55547  22125840.1484   22125836.8594
     -3653.8794
   -177801.55149   -140754.82848  21121360.2274   21121358.5904
       305.6734
 04  9 16 21  2 15.0000000  0  6G 3G 8G13G19G23G27
    326752.06649    248100.84447  22711043.3524   22711043.0164
      -808.3384
   -789255.75449   -609658.63747  22148759.1724   22148758.4534
      1488.4904
    668421.05549    508810.12548  20223358.8594   20223356.4574
     -1449.1784
   -738304.69549   -571892.21947  23044988.8054   23044987.2664
      1344.5754
   1824413.74249   1393806.43847  22136285.4454   22136282.6994
     -3659.4624
   -182341.19949   -144292.21148  21120496.0634   21120494.7424
       302.6434
 04  9 16 21  2 30.0000000  0  6G 3G 8G13G19G23G27
    339026.01249    257664.95347  22713378.3204   22713378.7074
      -818.2634
   -811537.55949   -627021.07847  22144518.7274   22144518.0274
      1485.4544
    690285.64149    525847.45748  20227519.3594   20227517.3594
     -1457.6394
   -758379.81249   -587535.13747  23041168.4614   23041166.4574
      1338.3414
   1879388.78949   1436644.09847  22146746.9384   22146743.9454
     -3665.0034
   -186835.75849   -147794.46548  21119641.2274   21119639.5004
       299.6374
 04  9 16 21  2 45.0000000  0  6G 3G 8G13G19G23G27
    351448.58249    267344.87947  22715742.7034   22715742.4224
      -828.1714
   -833774.14849   -644348.28147  22140287.5634   22140286.2344
      1482.4394
    712276.72349    542983.35548  20231704.1094   20231702.1524
     -1466.0724
   -778361.37949   -603105.14547  23037365.8524   23037364.2384
      1332.1044
   1934446.43049   1479546.11747  22157224.3984   22157221.2504
     -3670.5094
   -191285.57849   -151261.85548  21118794.0394   21118792.3754
       296.6554
 04  9 16 21  3  0.0000000  0  6G 3G 8G13G19G23G27
    364021.31349    277141.81647  22718135.6024   22718135.2704
      -838.1824
   -855964.14549   -661639.16447  22136064.8364   22136063.7464
      1479.3334
    734395.94949    560219.10948  20235913.3134   20235911.3164
     -1474.6154
   -798247.54349   -618600.83247  23033581.5864   23033580.1604
      1325.7444
   1989588.13349   1522513.64147  22167716.9144   22167714.3444
     -3676.1144
   -195689.05149   -154693.12948  21117956.1254   21117954.6644
       293.5654
 04  9 16 21  3 15.0000000  0  6G 3G 8G13G19G23G27
    376743.94549    287055.55947  22720556.4454   22720556.6414
      -848.1764
   -878107.75849   -678893.92647  22131850.8594   22131849.7344
      1476.2414
    756643.03949    577554.50448  20240146.9144   20240144.8834
     -1483.1394
   -818038.18449   -634022.07047  23029816.3204   23029813.8364
      1319.3764
   2044813.44949   1565546.31347  22178226.1724   22178223.8554
     -3681.6884
   -200046.53549   -158088.56248  21117126.9694   21117125.2074
       290.4994
 04  9 16 21  3 30.0000000  0  6G 3G 8G13G19G23G27
    389616.35949    297086.01247  22723006.0004   22723005.4694
      -858.1614
   -900204.97349   -696112.52047  22127646.2894   22127644.7774
      1473.1484
    779017.93449    594989.47748  20244404.7194   20244402.7774
     -1491.6604
   -837733.33649   -649368.91447  23026068.4534   23026066.0664
      1313.0104
   2100121.90249   1608643.76247  22188751.2814   22188748.1294
     -3687.2304
   -204358.17249   -161448.27748  21116306.2584   21116304.8984
       287.4424
 04  9 16 21  3 45.0000000  0  6G 3G 8G13G19G23G27
    402640.05949    307234.36347  22725483.9384   22725483.9574
      -868.2474
   -922254.51249   -713293.96547  22123450.3364   22123449.0664
      1469.9694
    801522.18849    612525.24648  20248687.0944   20248685.0164
     -1500.2844
   -857331.16349   -664639.88747  23022338.4534   23022336.3364
      1306.5224
   2155514.75449   1651806.97347  22199292.6484   22199289.3594
     -3692.8574
   -208622.49649   -164771.12948  21115495.0234   21115493.5944
       284.2884
 04  9 16 21  4  0.0000000  0  6G 3G 8G13G19G23G27
    415812.63749    317498.71147  22727990.9304   22727990.6374
      -878.1724
   -944258.65249   -730440.04347  22119263.0704   22119261.8984
      1466.9434
    824153.24649    630159.83248  20252993.5784   20252991.5824
     -1508.7374
   -876833.76649   -679836.71547  23018627.2504   23018624.7734
      1300.1744
   2210989.41049   1695033.93847  22209849.3204   22209846.1524
     -3698.3104
   -212841.98449   -168059.04348  21114692.0234   21114690.6954
       281.2994
 04  9 16 21  4 15.0000000  0  6G 3G 8G13G19G23G27
    429136.82449    327881.20347  22730526.8134   22730526.3674
      -888.2794
   -966214.70749   -747548.63747  22115085.0004   22115084.4654
      1463.7374
    846913.72749    647895.26648  20257325.0084   20257323.0204
     -1517.3654
   -896238.08249   -694956.92247  23014934.8054   23014932.7894
      1293.6214
   2266548.41049   1738326.63347  22220421.6804   22220418.3404
     -3703.9334
   -217013.88749   -171309.87148  21113898.3054   21113896.7344
       278.1274
 04  9 16 21  4 30.0000000  0  6G 3G 8G13G19G23G27
    442611.78949    338381.17247  22733090.3134   22733090.5124
      -898.3314
   -988123.30149   -764620.25847  22110915.5234   22110914.8754
      1460.5734
    869803.02049    665731.06348  20261680.7584   20261678.5514
     -1525.9534
   -915544.66849   -710000.97347  23011261.0004   23011258.9774
      1287.1064
   2322190.68049   1781684.19947  22231009.9924   22231006.6024
     -3709.4854
   -221139.09049   -174524.30948  21113113.2504   21113111.5164
       275.0144
 04  9 16 21  4 45.0000000  0  6G 3G 8G13G19G23G27
    456237.25849    348998.42647  22735683.7194   22735683.5434
      -908.3654
  -1009984.77049   -781655.15247  22106755.7974   22106754.8754
      1457.4314
    892820.79349    683666.98848  20266060.8594   20266058.1844
     -1534.5184
   -934753.52049   -724968.85947  23007605.5164   23007604.4384
      1280.5904
   2377915.76649   1825106.31647  22241613.6484   22241610.9964
     -3715.0064
   -225217.91849   -177702.61748  21112337.0864   21112335.4534
       271.9224
 04  9 16 21  5  0.0000000  0  6G 3G 8G13G19G23G27
    470012.73449    359732.56347  22738304.0944   22738304.5704
      -918.3654
  -1031799.78949   -798653.86747  22102604.5704   22102603.3014
      1454.3354
    915966.72749    701702.77048  20270465.4774   20270462.9694
     -1543.0624
   -953864.69149   -739860.64847  23003968.9224   23003967.6764
      1274.0784
   2433723.04749   1868592.45747  22252233.6414   22252231.0744
     -3720.4854
   -229250.66049   -180845.00848  21111569.9224   21111568.1174
       268.8494
 04  9 16 21  5 15.0000000  0  6G 3G 8G13G19G23G27
    483938.67649    370583.95747  22740954.7504   22740954.4304
      -928.3964
  -1053567.93049   -815616.03947  22098462.0164   22098461.0314
      1451.2094
    939240.95749    719838.52348  20274894.3204   20274892.0204
     -1551.6154
   -972877.64549   -754675.89147  23000350.8984   23000349.3834
      1267.5304
   2489612.59449   1912142.71947  22262869.2274   22262866.5124
     -3725.9704
   -233237.19149   -183951.39548  21110811.0164   21110809.3794
       265.7694
 04  9 16 21  5 30.0000000  0  6G 3G 8G13G19G23G27
    498013.55149    381551.40247  22743632.7194   22743632.3914
      -938.3254
  -1075290.94949   -832543.05147  22094328.1954   22094327.5704
      1448.2014
    962641.77049    738072.91448  20279347.3444   20279344.9224
     -1560.0544
   -991793.74249   -769415.66847  22996750.9774   22996749.0704
      1261.0734
   2545582.67649   1955755.72347  22273520.1094   22273517.4024
     -3731.3394
   -237179.20349   -187023.09448  21110061.0394   21110059.2074
       262.8014
 04  9 16 21  5 45.0000000  0  6G 3G 8G13G19G23G27
    512237.12949    392634.71947  22746339.6724   22746339.5004
      -948.2394
  -1096968.64549   -849434.75447  22090203.0084   22090202.3014
      1445.1804
    986168.93049    756405.75448  20283824.3834   20283822.0514
     -1568.4774
  -1010612.68049   -784079.73847  22993169.7274   22993168.4304
      1254.5964
   2601632.88749   1999431.17647  22284186.0234   22284182.9064
     -3736.6814
   -241076.75449   -190060.14148  21109319.1334   21109317.6094
       259.8374
 04  9 16 21  6  0.0000000  0  6G 3G 8G13G19G23G27
    526611.57849    403835.58247  22749075.0234   22749075.3954
      -958.2974
  -1118599.15249   -866289.67647  22086086.9454   22086086.1994
      1442.0344
   1009825.00049    774839.04348  20288325.7894   20288323.8554
     -1577.0714
  -1029332.14549   -798666.28547  22989607.2504   22989605.9734
      1247.9644
   2657765.17649   2043170.58247  22294867.3204   22294865.0004
     -3742.1534
   -244927.68449   -193060.85948  21108586.1564   21108584.9734
       256.7294
 04  9 16 21  6 15.0000000  0  6G 3G 8G13G19G23G27
    541137.21149    415154.27747  22751839.4534   22751839.1914
      -968.3764
  -1140181.90649   -883107.39147  22081979.7344   22081979.0394
      1438.8504
   1033610.34449    793373.07048  20292852.3134   20292849.8164
     -1585.6904
  -1047951.41049   -813174.77347  22986064.2034   22986062.2704
      1241.2844
   2713979.61749   2086973.99247  22305564.9304   22305562.7894
     -3747.6294
   -248731.65249   -196024.98448  21107862.5634   21107860.8794
       253.5984
 04  9 16 21  6 30.0000000  0  6G 3G 8G13G19G23G27
    555809.63349    426587.33247  22754630.7584   22754630.9574
      -978.1614
  -1161721.30149   -899891.32447  22077881.1484   22077879.9964
      1435.9604
   1057520.23049    812004.14548  20297401.9454   20297399.9804
     -1593.9924
  -1066474.56249   -827608.36347  22982539.7424   22982537.5204
      1234.8774
   2770271.64849   2130837.87147  22316276.9064   22316274.5474
     -3752.8024
   -252493.20749   -198956.06248  21107146.7194   21107145.4064
       250.7704
 04  9 16 21  6 45.0000000  0  6G 3G 8G13G19G23G27
    570631.53549    438136.87947  22757451.7664   22757451.7384
      -988.1274
  -1183214.95349   -916639.61747  22073791.1954   22073789.7974
      1432.9104
   1081557.34049    830734.34848  20301976.0314   20301973.9804
     -1602.4744
  -1084898.69949   -841964.80947  22979033.8284   22979031.7274
      1228.2764
   2826643.77049   2174764.16047  22327004.0084   22327001.7034
     -3758.1414
   -256209.60249   -201851.94948  21106439.2814   21106437.9064
       247.7604
 04  9 16 21  7  0.0000000  0  6G 3G 8G13G19G23G27
    585603.71149    449803.52047  22760300.4694   22760301.0084
      -998.1454
  -1204661.75449   -933351.39847  22069709.6174   22069708.6254
      1429.7874
   1105722.60249    849564.41448  20306574.6254   20306572.7304
     -1611.0174
  -1103222.67649   -856243.18047  22975546.9064   22975544.8364
      1221.5984
   2883096.60949   2218753.33247  22337747.2424   22337744.0904
     -3763.5234
   -259880.08249   -204712.06648  21105741.0474   21105739.5744
       244.6994
 04  9 16 21  7 15.0000000  0  6G 3G 8G13G19G23G27
    600725.16449    461586.47747  22763178.1884   22763178.6334
     -1008.0974
  -1226062.68749   -950027.42647  22065637.3834   22065636.3954
      1426.7294
   1130015.04749    868493.58648  20311197.4454   20311195.1644
     -1619.4964
  -1121447.15249   -870444.03547  22972078.8054   22972077.1024
      1214.9654
   2939628.93449   2262804.46547  22348504.6724   22348502.2034
     -3768.8224
   -263505.44549   -207537.02348  21105050.9924   21105049.5904
       241.6914
 04  9 16 21  7 30.0000000  0  6G 3G 8G13G19G23G27
    615996.92249    473486.53947  22766084.3914   22766084.5314
     -1018.1174
  -1247416.77049   -966666.96947  22061573.4454   22061572.4774
      1423.6054
   1154435.68049    887522.65248  20315844.4224   20315842.2274
     -1628.0424
  -1139570.81249   -884566.32447  22968630.0944   22968628.0354
      1208.2444
   2996241.55549   2306918.14547  22359277.7814   22359275.4534
     -3774.1754
   -267084.87549   -210326.18448  21104369.8834   21104368.0664
       238.6294
 04  9 16 21  7 45.0000000  0  6G 3G 8G13G19G23G27
    631415.73449    485501.20747  22769018.5784   22769018.3524
     -1027.9214
  -1268727.06649   -983272.37147  22057518.1094   22057517.5164
      1420.6864
   1178981.25849    906649.06648  20320515.3054   20320513.4694
     -1636.3724
  -1157596.37549   -898612.18447  22965199.9924   22965197.9024
      1201.7044
   3052931.14149   2351091.79347  22370065.3834   22370063.3244
     -3779.3064
   -270621.39549   -213081.91048  21103696.8594   21103695.1414
       235.7684
 04  9 16 21  8  0.0000000  0  6G 3G 8G13G19G23G27
    646986.24649    497634.07847  22771981.3444   22771981.4384
     -1038.0344
  -1289989.08249   -999840.16847  22053472.4844   22053471.5234
      1417.4684
   1203656.41849    925876.45348  20325211.0634   20325208.6844
     -1645.0114
  -1175519.10549   -912577.91047  22961788.8914   22961787.0864
      1194.8494
   3109702.02749   2395328.80947  22380868.8134   22380866.0744
     -3784.7264
   -274110.62149   -215800.78548  21103032.8444   21103031.5864
       232.6154
 04  9 16 21  8 15.0000000  0  6G 3G 8G13G19G23G27
    662705.99649    509883.22747  22774973.2584   22774972.4844
     -1047.9834
  -1311205.62549  -1016372.52047  22049434.8834   22049434.5004
      1414.4364
   1228458.64549    945202.85248  20329930.4304   20329928.4534
     -1653.4824
  -1193341.21149   -926465.23847  22958397.4064   22958395.8364
      1188.1404
   3166551.40649   2439626.98847  22391686.1254   22391684.3204
     -3789.9594
   -277554.87549   -218484.61348  21102377.3754   21102375.9024
       229.6174
 04  9 16 21  8 30.0000000  0  6G 3G 8G13G19G23G27
    678572.53949    522246.77347  22777992.2584   22777991.8984
     -1057.7704
  -1332378.48049  -1032870.84047  22045405.9844   22045405.0744
      1411.5244
   1253385.77049    964626.57448  20334674.0394   20334672.1094
     -1661.8084
  -1211064.72749   -940275.73047  22955024.3134   22955023.1294
      1181.5684
   3223476.93849   2483984.48047  22402519.1094   22402516.7274
     -3795.0354
   -280956.64149   -221135.34048  21101729.9924   21101728.4264
       226.7844
 04  9 16 21  8 45.0000000  0  6G 3G 8G13G19G23G27
    694588.99249    534727.12147  22781039.8524   22781039.9184
     -1067.7644
  -1353504.77749  -1049332.87547  22041385.6254   22041384.7704
      1408.4204
   1278440.70749    984149.89148  20339441.7664   20339439.3014
     -1670.3294
  -1228686.18749   -954006.71147  22951671.6724   22951670.0944
      1174.7644
   3280481.46949   2528403.54747  22413366.6724   22413364.2814
     -3800.3024
   -284312.72749   -223750.46948  21101091.6254   21101089.7734
       223.7394
 04  9 16 21  9  0.0000000  0  7G 3G 8G10G13G19G23G27
    710756.23449    547324.98047  22784116.1174   22784116.9224
     -1077.8164
  -1374583.68749  -1065757.98847  22037374.7274   22037373.5944
      1405.2614
    -48289.71959    -37594.19956  24149597.2424   24149598.1254

   1303624.31349   1003773.47348  20344234.1174   20344231.9454
     -1678.9074
  -1246204.53149   -967657.35547  22948338.1024   22948335.6524
      1167.8904
   3337565.64849   2572884.67247  22424229.6954   22424227.3054
     -3805.6124
   -287622.27049   -226329.32448  21100461.8284   21100460.0434
       220.6364
 04  9 16 21  9 15.0000000  0  7G 3G 8G10G13G19G23G27
    727070.52349    560037.40647  22787220.9144   22787220.9654
     -1087.6194
  -1395618.67649  -1082148.87547  22033371.7974   22033370.7774
      1402.3334
    -66837.01649    -52046.65246  24146067.0784   24146068.1134
      1236.4864
   1328932.80149   1023494.35548  20349050.2114   20349048.0354
     -1687.2334
  -1263623.11349   -981230.25447  22945023.0944   22945021.3324
      1161.2394
   3394725.43449   2617424.72347  22435106.6564   22435104.7384
     -3810.6524
   -290889.15249   -228874.94548  21099839.9534   21099838.4844
       217.7924
 04  9 16 21  9 30.0000000  0  7G 3G 8G10G13G19G23G27
    743530.50849    572863.36747  22790353.5634   22790353.5634
     -1097.3324
  -1416611.16849  -1098506.64147  22029376.8524   22029375.9414
      1399.4994
    -85263.94949    -66405.28146  24142561.3594   24142561.8364
      1228.4624
   1354364.93849   1043311.59848  20353889.7034   20353887.4414
     -1695.4764
  -1280943.08649   -994726.30147  22941727.1724   22941725.9654
      1154.6654
   3451959.35949   2662022.54347  22445998.2974   22445996.1374
     -3815.5954
   -294114.60249   -231388.28548  21099226.3524   21099224.8954
       215.0304
 04  9 16 21  9 45.0000000  0  7G 3G 8G10G13G19G23G27
    760138.42249    585804.59447  22793513.9774   22793513.9304
     -1107.1944
  -1437559.07849  -1114829.67247  22025390.8914   22025389.7774
      1396.5274
   -103568.11749    -80668.25846  24139077.9304   24139078.1374
      1220.2784
   1379922.85549   1063226.84848  20358753.4534   20358751.1804
     -1703.8614
  -1298161.87949  -1008143.50447  22938450.5864   22938448.7704
      1147.9204
   3509269.46549   2706679.70747  22456904.0784   22456901.3714
     -3820.6744
   -297296.38749   -233867.59448  21098620.8754   21098619.6024
       212.1194
 04  9 16 21 10  0.0000000  0  7G 3G 8G10G13G19G23G27
    776894.91849    598861.60247  22796701.8834   22796702.6484
     -1117.1004
  -1458461.65649  -1131117.38347  22021413.3364   22021412.1334
      1393.5054
   -121748.73049    -94834.95346  24135619.3444   24135618.1764
      1212.0414
   1405607.23049   1083240.65248  20363640.9224   20363638.7194
     -1712.2924
  -1315278.44949  -1021481.05547  22935193.3204   22935192.1334
      1141.1054
   3566656.19149   2751396.60547  22467824.5634   22467821.6484
     -3825.7824
   -300433.85249   -236312.36348  21098023.5634   21098022.4494
       209.1644
 04  9 16 21 10 15.0000000  0  7G 3G 8G10G13G19G23G27
    793801.05549    612035.21147  22799919.2194   22799919.1294
     -1127.0764
  -1479317.55549  -1147368.71547  22017444.3914   22017443.4574
      1390.3934
   -139804.19549   -108904.15246  24132183.2504   24132181.7424
      1203.6984
   1431419.28949   1103353.93448  20368552.7584   20368550.6684
     -1720.8044
  -1332291.38349  -1034737.85947  22931956.0704   22931954.1054
      1134.1964
   3624120.49649   2796173.93847  22478759.3054   22478756.8404
     -3830.9544
   -303525.89549   -238721.75048  21097435.5634   21097433.6484
       206.1364
 04  9 16 21 10 30.0000000  0  7G 3G 8G10G13G19G23G27
    810853.19149    625322.58647  22803164.2664   22803164.0784
     -1136.8094
  -1500130.65249  -1163586.69947  22013483.7974   22013482.5664
      1387.5404
   -157738.26249   -122878.71946  24128770.5634   24128769.3284
      1195.6044
   1457355.10549   1123563.64548  20373488.3444   20373486.0824
     -1729.0544
  -1349204.09849  -1047916.57447  22928737.5634   22928735.1454
      1127.5144
   3681658.40249   2841008.61747  22489708.5784   22489706.0514
     -3835.8604
   -306576.18449   -241098.60248  21096854.7734   21096853.4024
       203.3534
 04  9 16 21 10 45.0000000  0  7G 3G 8G10G13G19G23G27
    828055.78549    638727.20747  22806437.7344   22806437.7974
     -1146.8404
  -1520896.43749  -1179767.81647  22009531.9304   22009530.8594
      1384.3864
   -175546.03949   -136754.91846  24125381.8444   24125381.3674
      1187.1854
   1483419.29349   1143873.39848  20378447.8984   20378445.8754
     -1737.6124
  -1366011.71949  -1061013.40247  22925539.2814   22925537.5234
      1120.5084
   3739274.32049   2885904.09447  22500672.5634   22500669.4454
     -3841.0614
   -309580.23049   -243439.41448  21096283.1094   21096281.5784
       200.2704
 04  9 16 21 11  0.0000000  0  7G 3G 8G10G13G19G23G27
    845406.00049    652246.85547  22809739.7734   22809739.6764
     -1156.6814
  -1541617.77049  -1195914.29747  22005589.1954   22005588.0634
      1381.4224
   -193230.30949   -150534.85246  24122015.8754   24122015.4574
      1178.9514
   1509609.14549   1164281.06348  20383431.7814   20383429.4774
     -1745.9904
  -1382716.85249  -1074030.37147  22922360.4144   22922358.9884
      1113.6764
   3796965.13749   2930857.94147  22511650.6414   22511647.9844
     -3846.0544
   -312540.74249   -245746.30148  21095719.5314   21095718.3094
       197.3674
 04  9 16 21 11 15.0000000  0  7G 3G 8G10G13G19G23G27
    862905.81649    665883.07047  22813069.6414   22813069.9924
     -1166.6544
  -1562292.34849  -1212024.34447  22001654.6884   22001654.1604
      1378.3054
   -210788.79749   -164216.77746  24118674.5944   24118674.9104
      1170.5664
   1535926.50849   1184788.09048  20388439.7974   20388437.4734
     -1754.4914
  -1399317.20749  -1086965.67647  22919201.2584   22919199.1684
      1106.6904
   3854732.77349   2975871.64847  22522643.3054   22522641.1054
     -3851.1764
   -315455.85949   -248017.81648  21095165.3364   21095163.6914
       194.3414
 04  9 16 21 11 30.0000000  0  7G 3G 8G10G13G19G23G27
    880552.43849    679633.68047  22816427.6334   22816427.9534
     -1176.4414
  -1582923.13749  -1228100.26647  21997728.8594   21997727.6094
      1375.3864
   -228223.99249   -177802.62546  24115357.1564   24115356.9494
      1162.3464
   1562368.67249   1205392.36348  20393471.4774   20393469.2194
     -1762.8114
  -1415815.28149  -1099821.29347  22916061.4774   22916060.3634
      1099.8724
   3912574.10549   3020942.77047  22533650.0554   22533648.2234
     -3856.0894
   -318328.28949   -250256.07048  21094618.5864   21094617.2304
       191.4954
 04  9 16 21 11 45.0000000  0  7G 3G 8G10G13G19G23G27
    898346.66049    693499.30547  22819813.1644   22819814.0664
     -1186.2824
  -1603509.30949  -1244141.42247  21993811.1564   21993810.4064
      1372.4114
   -245534.98049   -191291.69946  24112062.9454   24112062.6334
      1154.0664
   1588936.32849   1226094.41848  20398527.2814   20398524.9104
     -1771.1774
  -1432209.94149  -1112596.33247  22912941.8524   22912940.2464
      1092.9774
   3970489.77349   3066071.80547  22544671.8054   22544669.5354
     -3861.0454
   -321157.41049   -252460.57448  21094080.4224   21094078.5634
       188.6084
 04  9 16 21 12  0.0000000  0  7G 3G 8G10G13G19G23G27
    916286.68449    707478.53947  22823227.5944   22823227.9734
     -1196.0024
  -1624052.42649  -1260149.03547  21989902.1334   21989901.0004
      1369.5414
   -262723.23249   -204685.21946  24108791.9454   24108791.7424
      1145.8834
   1615627.74649   1246892.91448  20403606.5864   20403604.5744
     -1779.4284
  -1448502.61349  -1125291.91047  22909841.1254   22909839.6254
      1086.1784
   4028477.79349   3111257.22747  22555706.1174   22555704.0354
     -3865.8684
   -323944.71149   -254632.49648  21093549.6804   21093548.3244
       185.8204
 04  9 16 21 12 15.0000000  0  7G 3G 8G10G13G19G23G27
    934376.13349    721574.21147  22826670.3444   22826670.0044
     -1205.9634
  -1644549.10549  -1276120.45347  21986001.7344   21986000.4144
      1366.4454
   -279785.14849   -217980.16046  24105545.1094   24105544.9384
      1137.4614
   1642446.55549   1267790.67648  20408710.1334   20408707.6524
     -1787.9214
  -1464689.50449  -1137905.05147  22906760.8914   22906759.4844
      1079.1264
   4086541.54749   3156501.66447  22566755.5234   22566752.6724
     -3870.9174
   -326686.68749   -256769.10248  21093027.8364   21093026.5164
       182.7984
 04  9 16 21 12 30.0000000  0  8G 3G 8G10G13G19G23G27G28
    952615.08649    735786.38747  22830140.7034   22830140.7274
     -1215.9304
  -1664999.10249  -1292055.49647  21982110.0784   21982109.1094
      1363.3334
   -296720.12549   -231176.22346  24102323.1954   24102322.7704
      1128.9984
   1669392.91049   1288787.82448  20413837.6564   20413835.3094
     -1796.4244
  -1480770.07849  -1150435.35947  22903700.8834   22903699.5084
      1072.0384
   4144681.06349   3201805.13747  22577819.1954   22577816.5204
     -3875.9684
   -329383.19549   -258870.28148  21092514.7974   21092513.3094
       179.7674
    -98265.48859    -72117.20756  24290067.0634   24290068.0354

 04  9 16 21 12 45.0000000  0  8G 3G 8G10G13G19G23G27G28
    970998.55149    750111.16447  22833639.0864   22833639.4104
     -1225.5644
  -1685407.29349  -1307957.96547  21978226.8364   21978225.6684
      1360.5464
   -313532.92649   -244277.08646  24099124.2734   24099122.9144
      1120.8534
   1696461.77349   1309880.43848  20418988.6804   20418986.3874
     -1804.5914
  -1496748.98849  -1162886.44147  22900660.1884   22900658.6254
      1065.2614
   4202891.13349   3247163.58647  22588896.7274   22588893.6094
     -3880.6714
   -332039.14149   -260939.84448  21092009.6414   21092007.5634
       177.0634
   -136381.70749   -101818.08246  24282814.0474   24282814.8524
      2541.0814
 04  9 16 21 13  0.0000000  0  8G 3G 8G10G13G19G23G27G28
    989524.28549    764546.79747  22837164.9924   22837164.6094
     -1235.0494
  -1705775.75849  -1323829.48447  21974350.5394   21974349.8674
      1357.8984
   -330225.52749   -257284.35246  24095947.5474   24095945.8554
      1112.8404
   1723651.00049   1331066.83248  20424162.8204   20424160.5514
     -1812.6154
  -1512628.10249  -1175259.74647  22897638.4924   22897636.9774
      1058.6084
   4261169.41049   3292575.18847  22599986.1644   22599983.8954
     -3885.2184
   -334656.74649   -262979.53148  21091511.3054   21091509.5904
       174.5074
   -174462.78949   -131491.53546  24275566.9224   24275568.3164
      2538.7394
 04  9 16 21 13 15.0000000  0  8G 3G 8G10G13G19G23G27G28
   1008198.73849    779098.32047  22840718.0084   22840718.0004
     -1244.9644
  -1726098.09449  -1339665.04747  21970483.4534   21970482.1764
      1354.8224
   -346791.27749   -270192.71946  24092793.5784   24092792.9144
      1104.3834
   1750967.11749   1352352.10548  20429360.8834   20429358.5594
     -1821.0744
  -1528400.68749  -1187550.05947  22894637.5864   22894635.4694
      1051.5064
   4319522.12149   3338044.78147  22611090.4774   22611088.4734
     -3890.1814
   -337229.48049   -264984.25848  21091021.9144   21091020.1094
       171.5164
   -212502.12149   -161132.48446  24268327.6024   24268329.9964
      2535.9554
 04  9 16 21 13 30.0000000  0  8G 3G 8G10G13G19G23G27G28
   1027019.32049    793763.71147  22844299.1804   22844298.9884
     -1254.7054
  -1746377.00449  -1355466.78547  21966624.2664   21966623.5164
      1351.9274
   -363232.52049   -283004.07846  24089665.3754   24089665.0164
      1096.0834
   1778407.34049   1373734.08648  20434582.1644   20434580.2504
     -1829.3484
  -1544069.05549  -1199759.16047  22891655.5554   22891653.5984
      1044.5584
   4377946.46549   3383570.19947  22622208.3984   22622205.7344
     -3894.9564
   -339759.96549   -266956.05548  21090540.3914   21090538.9264
       168.6994
   -250502.16049   -190742.84046  24261096.9144   24261098.2074
      2533.3364
 04  9 16 21 13 45.0000000  0  8G 3G 8G10G13G19G23G27G28
   1045987.59049    808544.19947  22847909.1954   22847908.4774
     -1264.5514
  -1766610.66049  -1371233.25447  21962774.2424   21962773.1524
      1348.9104
   -379547.55949   -295717.04746  24086561.0164   24086560.9414
      1087.6694
   1805973.23449   1395213.98848  20439827.9144   20439825.6254
     -1837.7264
  -1559631.33249  -1211885.60947  22888694.3984   22888692.4694
      1037.4854
   4436443.84049   3429152.52347  22633340.2734   22633337.7854
     -3899.8254
   -342246.63349   -268893.72348  21090066.9534   21090065.2934
       165.7784
   -288461.22749   -220321.25046  24253873.5394   24253874.8594
      2530.6044
 04  9 16 21 14  0.0000000  0  8G 3G 8G10G13G19G23G27G28
   1065101.85549    823438.41847  22851546.6024   22851545.6564
     -1274.2844
  -1786800.71549  -1386965.75047  21958932.0084   21958931.2854
      1346.0044
   -395737.84449   -308332.84846  24083480.8364   24083479.6024
      1079.3524
   1833663.16049   1416790.55548  20445097.4144   20445095.1294
     -1845.9954
  -1575088.98849  -1223930.52347  22885752.9614   22885751.1844
      1030.5104
   4495012.29749   3474790.23447  22644485.3524   22644483.2584
     -3904.5644
   -344691.09849   -270798.49648  21089601.8204   21089600.7074
       162.9644
   -326380.72349   -249868.83246  24246657.7894   24246658.6374
      2527.9664
 04  9 16 21 14 15.0000000  0  8G 3G 8G10G13G19G23G27G28
   1084365.57449    838449.12547  22855212.3594   22855211.9454
     -1284.2484
  -1806943.57849  -1402661.46947  21955099.0004   21955098.0594
      1342.8584
   -411799.49649   -320848.41846  24080424.1724   24080422.8984
      1070.7774
   1861480.68049   1438466.53148  20450391.0084   20450388.4774
     -1854.5014
  -1590437.92249  -1235890.71547  22882832.3914   22882829.8524
      1023.2624
   4553655.32449   3520486.05147  22655644.5704   22655642.0474
     -3909.5354
   -347089.76649   -272667.59048  21089145.4144   21089143.9344
       159.9114
   -364257.00849   -279382.76646  24239449.9304   24239450.5634
      2525.0864
 04  9 16 21 14 30.0000000  0  8G 3G 8G10G13G19G23G27G28
   1103775.70749    853573.89847  22858905.8284   22858905.7114
     -1294.0094
  -1827042.30549  -1418322.79747  21951274.1724   21951273.2344
      1339.9154
   -427735.39549   -333266.01646  24077392.7114   24077389.7194
      1062.3934
   1889422.80549   1460239.59448  20455708.0164   20455705.7934
     -1862.8084
  -1605680.96549  -1247768.40647  22879931.7344   22879929.4924
      1016.2034
   4612369.56649   3566237.35947  22666817.6254   22666814.9264
     -3914.2834
   -349445.72349   -274503.39548  21088697.1804   21088695.3204
       157.0644
   -402092.80549   -308865.10946  24232249.7734   24232251.1914
      2522.3864
 04  9 16 21 14 45.0000000  0  8G 3G 8G10G13G19G23G27G28
   1123333.53549    868813.76647  22862627.3594   22862627.0274
     -1303.8554
  -1847095.62149  -1433948.74247  21947458.1254   21947457.3714
      1336.8884
   -443544.14549   -345584.52046  24074383.0234   24074381.7304
      1053.9174
   1917490.72349   1482110.68848  20461049.3364   20461047.1484
     -1871.1954
  -1620816.60549  -1259562.39847  22877051.2894   22877049.7034
      1009.0434
   4671156.08649   3612044.99647  22678004.4694   22678001.7154
     -3919.1014
   -351757.71549   -276304.94948  21088257.1174   21088255.7344
       154.1334
   -439886.69149   -338314.82446  24225058.4064   24225059.0004
      2519.5924
 04  9 16 21 15  0.0000000  0  8G 3G 8G10G13G19G23G27G28
   1143040.96149    884170.21547  22866377.7114   22866377.4454
     -1313.8284
  -1867101.53149  -1449537.74247  21943650.8834   21943650.1334
      1333.7274
   -459223.39849   -357802.11746  24071399.5234   24071398.5864
      1045.2844
   1945686.39149   1504081.32848  20466414.9144   20466412.6524
     -1879.7114
  -1635842.63749  -1271270.97747  22874191.9064   22874190.4264
      1001.7354
   4730016.77749   3657910.40247  22689205.5554   22689202.4694
     -3924.0464
   -354023.59449   -278070.56648  21087826.0704   21087824.4614
       151.0594
   -477636.59049   -367730.25446  24217873.9694   24217875.5634
      2516.6604
 04  9 16 21 15 15.0000000  0  8G 3G 8G10G13G19G23G27G28
   1162894.70749    899640.67647  22870155.8054   22870155.7624
     -1323.5834
  -1887063.24249  -1465092.30547  21939852.4454   21939851.5664
      1330.7814
   -474776.27049   -369921.20746  24068439.7344   24068438.9964
      1036.8584
   1974006.55549   1526148.97748  20471803.9384   20471801.5234
     -1888.0114
  -1650761.91449  -1282896.38747  22871352.9534   22871350.7234
       994.6184
   4788948.08249   3703830.87147  22700419.5474   22700416.9024
     -3928.7544
   -356246.64549   -279802.81648  21087403.1644   21087401.7934
       148.2034
   -515345.47349   -397113.66446  24210698.3444   24210699.7584
      2513.9264
 04  9 16 21 15 30.0000000  0  8G 3G 8G10G13G19G23G27G28
   1182898.18449    915227.81347  22873962.5634   22873962.1884
     -1333.5654
  -1906977.13349  -1480609.61747  21936062.6564   21936062.2344
      1327.5934
   -490199.19149   -381939.07446  24065504.6484   24065503.9454
      1028.1954
   2002454.90649   1548316.50848  20477217.5004   20477215.4224
     -1896.5574
  -1665570.74249  -1294435.71147  22868534.4924   22868532.9064
       987.2554
   4847953.25449   3749808.88747  22711647.9774   22711645.2154
     -3933.6784
   -358423.47749   -281499.04748  21086988.7274   21086987.2974
       145.1224
   -553009.71549   -426462.37546  24203531.3914   24203532.6604
      2510.9494
 04  9 16 21 15 45.0000000  0  8G 3G 8G10G13G19G23G27G28
   1203047.70749    930928.73047  22877796.9454   22877796.4654
     -1343.3024
  -1926847.01649  -1496092.62947  21932281.6254   21932281.1054
      1324.6594
   -505495.71149   -393858.45346  24062594.5554   24062592.7344
      1019.7684
   2031027.18449   1570580.60548  20482654.4614   20482652.2154
     -1904.8184
  -1680272.55149  -1305891.65247  22865737.3834   22865735.0704
       980.1214
   4907028.33249   3795841.36747  22722889.5474   22722886.9144
     -3938.3394
   -360557.78549   -283162.14148  21086582.7584   21086581.1294
       142.2874
   -590633.02049   -455779.14846  24196371.3054   24196372.9224
      2508.2204
 04  9 16 21 16  0.0000000  0  8G 3G 8G10G13G19G23G27G28
   1223347.77749    946746.97747  22881659.8984   22881659.0124
     -1353.3384
  -1946668.23849  -1511537.73847  21928510.1484   21928508.6484
      1321.4154
   -520661.06649   -405675.60546  24059708.4224   24059707.5984
      1011.0244
   2059728.18449   1592945.01248  20488116.0554   20488114.1914
     -1913.4004
  -1694862.35949  -1317260.30947  22862960.0004   22862959.0004
       972.6544
   4966177.83649   3841931.83647  22734145.0944   22734142.4694
     -3943.3004
   -362644.88749   -284788.45748  21086185.2894   21086183.7194
       139.1404
   -628210.40649   -485060.12546  24189221.1564   24189222.4654
      2505.1594
 04  9 16 21 16 15.0000000  0  8G 3G 8G10G13G19G23G27G28
   1243793.73049    962678.89147  22885550.7504   22885549.8714
     -1363.0644
  -1966445.22349  -1526948.36347  21924746.7114   21924745.3244
      1318.4664
   -535699.46949   -417393.82446  24056846.7504   24056846.1684
      1002.5604
   2088553.16449   1615406.02748  20493601.2974   20493599.1994
     -1921.6654
  -1709344.46549  -1328545.04747  22860204.7584   22860203.0234
       965.4744
   5025396.96549   3888076.55547  22745414.4614   22745412.2624
     -3947.9424
   -364689.38749   -286381.57048  21085796.2584   21085794.8094
       136.3004
   -665746.32849   -514308.84846  24182077.9614   24182078.8834
      2502.3954
 04  9 16 21 16 30.0000000  0  8G 3G 8G10G13G19G23G27G28
   1264384.21149    978723.43047  22889468.5634   22889468.0594
     -1372.6994
  -1986179.32449  -1542325.57447  21920991.5164   21920990.3874
      1315.6074
   -550612.03149   -429014.00446  24054008.7274   24054008.6604
       994.1714
   2117501.03149   1637962.79748  20499109.9534   20499107.8134
     -1929.8584
  -1723719.88749  -1339746.66447  22857469.3364   22857467.3794
       958.3614
   5084684.08649   3934274.24647  22756696.6804   22756694.3524
     -3952.4754
   -366692.50049   -287942.43448  21085415.3054   21085413.5514
       133.5414
   -703241.90649   -543526.08246  24174942.5474   24174943.5984
      2499.7054
 04  9 16 21 16 45.0000000  0  8G 3G 8G10G13G19G23G27G28
   1285120.53949    994881.62147  22893414.7734   22893414.1054
     -1382.4224
  -2005869.31649  -1557668.41447  21917244.5084   21917243.5664
      1312.6664
   -565397.41849   -440535.06246  24051195.2504   24051194.7344
       985.6924
   2146573.13749   1660616.37548  20504642.3134   20504640.1764
     -1938.1404
  -1737987.05949  -1350863.92247  22854754.3594   22854752.2664
       951.1454
   5144040.35949   3980525.84847  22767991.6804   22767989.2114
     -3957.0854
   -368653.05549   -289470.14148  21085042.0634   21085040.6214
       130.7044
   -740695.66849   -572710.75046  24167815.9774   24167816.1174
      2496.9174
 04  9 16 21 17  0.0000000  0  8G 3G 8G10G13G19G23G27G28
   1306003.87149   1011154.35547  22897388.6644   22897387.7424
     -1392.2224
  -2025514.01649  -1572975.95347  21913505.8204   21913505.0084
      1309.6474
   -580054.17249   -451955.93046  24048406.4534   24048405.6604
       977.1174
   2175770.44549   1683367.50848  20510198.1804   20510196.1684
     -1946.4874
  -1752144.67649  -1361895.79347  22852059.7504   22852057.7274
       943.8414
   5203466.70349   4026832.05547  22779299.8524   22779297.8794
     -3961.7564
   -370569.80549   -290963.71148  21084677.0474   21084675.5234
       127.7834
   -778106.37549   -601861.89146  24160696.2504   24160696.4574
      2494.0474
 04  9 16 21 17 15.0000000  0  8G 3G 8G10G13G19G23G27G28
   1327034.72749   1027542.04347  22901390.0944   22901389.7774
     -1402.0574
  -2045112.67649  -1588247.63347  21909776.8914   21909775.4614
      1306.5774
   -594581.42249   -463275.85546  24045641.9694   24045640.4024
       968.4834
   2205093.53949   1706216.66448  20515778.3834   20515776.1954
     -1954.8734
  -1766191.75849  -1372841.55947  22849387.4144   22849384.3674
       936.4724
   5262963.54349   4073193.16447  22790622.2114   22790619.5004
     -3966.4564
   -372442.16049   -292422.68748  21084321.0234   21084319.2304
       124.8244
   -815473.25049   -630978.87946  24153585.9774   24153586.2774
      2491.1254
 04  9 16 21 17 30.0000000  0  8G 3G 8G10G13G19G23G27G28
   1348211.81349   1044043.68047  22905420.2584   22905419.7074
     -1411.8064
  -2064666.36349  -1603484.26247  21906055.8134   21906054.6604
      1303.5794
   -608980.14849   -474495.63746  24042901.4534   24042901.4304
       959.9154
   2234541.26649   1729162.93448  20521382.2194   20521379.9224
     -1963.1824
  -1780129.16049  -1383701.85247  22846735.1094   22846733.0044
       929.1604
   5322529.48049   4119608.13747  22801957.0864   22801954.9144
     -3971.0624
   -374271.16049   -293847.87948  21083973.3054   21083971.5234
       121.9334
   -852797.11349   -660062.32446  24146483.1954   24146484.3054
      2488.2584
 04  9 16 21 17 45.0000000  0  8G 3G 8G10G13G19G23G27G28
   1369534.90649   1060659.07047  22909477.9454   22909477.9774
     -1421.5404
  -2084175.55549  -1618686.21947  21902343.2974   21902342.4924
      1300.6134
   -623250.46549   -485615.36746  24040185.9534   24040185.3324
       951.3544
   2264113.33649   1752206.09448  20527009.6564   20527007.1294
     -1971.4714
  -1793956.85949  -1394476.65247  22844103.3594   22844101.6524
       921.8474
   5382164.10549   4166076.62547  22813305.1564   22813303.6374
     -3975.6424
   -376057.08649   -295239.51248  21083633.3134   21083631.6054
       119.0624
   -890078.12149   -689112.39146  24139388.3984   24139389.6054
      2485.4014
 04  9 16 21 18  0.0000000  0  8G 3G 8G10G13G19G23G27G28
   1391005.16449   1077389.15647  22913563.6334   22913562.9774
     -1431.3514
  -2103638.60549  -1633852.22347  21898639.2584   21898638.4384
      1297.5374
   -637390.91849   -496633.88346  24037495.7504   24037494.4774
       942.6974
   2293811.00849   1775347.12548  20532660.5234   20532658.3754
     -1979.8454
  -1807673.22749  -1405164.69947  22841493.6564   22841490.8554
       914.4244
   5441868.61349   4212599.57447  22824665.9694   22824664.4734
     -3980.3014
   -377798.59449   -296596.53148  21083301.7504   21083299.8794
       116.1014
   -927314.81249   -718127.91446  24132302.9614   24132303.3594
      2482.4464
 04  9 16 21 18 15.0000000  0  8G 3G 8G10G13G19G23G27G28
   1412621.78149   1094233.28147  22917677.0314   22917676.6414
     -1441.1084
  -2123056.23849  -1648982.84047  21894944.5704   21894943.4454
      1294.5094
   -651402.04749   -507551.63746  24034828.9224   24034828.0944
       934.0754
   2323633.46549   1798585.39148  20538335.8754   20538333.3794
     -1988.1644
  -1821278.81649  -1415766.43047  22838904.4924   22838901.9654
       907.0394
   5501641.78149   4259176.01247  22836040.9774   22836038.7344
     -3984.8784
   -379496.47749   -297919.55948  21082978.6724   21082977.2114
       113.1924
   -964507.83249   -747109.43446  24125225.5164   24125226.0434
      2479.5354
 04  9 16 21 18 30.0000000  0  8G 3G 8G10G13G19G23G27G28
   1434384.17649   1111190.99647  22921818.6804   22921817.6374
     -1450.8264
  -2142429.30949  -1664078.73047  21891257.9924   21891256.7934
      1291.5384
   -665284.29749   -518368.95746  24032186.4144   24032186.3984
       925.4834
   2353580.14549   1821920.45748  20544034.4064   20544032.2114
     -1996.4454
  -1834773.82049  -1426281.99247  22836336.4304   22836333.9534
       899.6674
   5561482.89149   4305805.39847  22847428.1884   22847426.3634
     -3989.4074
   -381151.28949   -299209.02348  21082663.7584   21082662.1844
       110.3214
  -1001657.49249   -776057.12546  24118155.8204   24118156.6214
      2476.6444
 04  9 16 21 18 45.0000000  0  8G 3G 8G10G13G19G23G27G28
   1456293.42649   1128263.16847  22925987.8364   22925986.8244
     -1460.6174
  -2161756.74649  -1679139.06247  21887580.3284   21887578.5904
      1288.4964
   -679036.32049   -529084.81646  24029570.8914   24029569.3164
       916.8024
   2383651.98449   1845353.05148  20549756.9844   20549754.7974
     -2004.7894
  -1848157.04749  -1436710.43447  22833789.4774   22833787.7934
       892.2154
   5621392.85949   4352488.43847  22858829.1724   22858826.5944
     -3993.9984
   -382762.03149   -300464.14548  21082357.1644   21082355.6724
       107.3834
  -1038762.54349   -804970.07446  24111095.1174   24111095.1134
      2473.6704
 04  9 16 21 19  0.0000000  0  8G 3G 8G10G13G19G23G27G28
   1478349.86349   1145450.01247  22930185.5944   22930184.2154
     -1470.4294
  -2181037.62549  -1694163.11347  21883910.7734   21883910.1294
      1285.3924
   -692657.52749   -539698.73846  24026978.9844   24026977.5124
       908.0804
   2413849.58649   1868883.64148  20555503.1174   20555500.9224
     -2013.1734
  -1861427.56249  -1447051.06647  22831263.8364   22831261.9844
       884.7014
   5681372.03549   4399225.40647  22870242.8674   22870240.4414
     -3998.6124
   -384327.98849   -301684.36748  21082059.2034   21082057.5354
       104.3974
  -1075822.30549   -833847.77746  24104042.5784   24104042.4344
      2470.6514
 04  9 16 21 19 15.0000000  0  8G 3G 8G10G13G19G23G27G28
   1500552.20749   1162750.53947  22934409.4064   22934409.0274
     -1480.1564
  -2200273.37149  -1709151.99247  21880250.9304   21880249.2814
      1282.3834
   -706149.00049   -550211.60546  24024410.9384   24024409.5204
       899.4324
   2444171.57849   1892511.15648  20561273.4534   20561271.2934
     -2021.4664
  -1874586.49249  -1457304.73447  22828759.8834   22828758.3484
       877.2624
   5741418.80149   4446015.04747  22881669.2344   22881666.4344
     -4003.1184
   -385850.51649   -302870.75048  21081769.3524   21081767.8094
       101.5024
  -1112837.95749   -862691.08646  24096998.8834   24096999.0984
      2467.7104
 04  9 16 21 19 30.0000000  0  8G 3G 8G10G13G19G23G27G28
   1522900.66849   1180164.93447  22938662.1334   22938661.6914
     -1489.8974
  -2219463.79749  -1724105.57047  21876599.0474   21876597.7814
      1279.3624
   -719510.18449   -560622.88746  24021868.6954   24021867.2234
       890.7464
   2474618.15249   1916235.75048  20567067.0784   20567065.2734
     -2029.7724
  -1887633.13749  -1467470.91047  22826277.4844   22826275.3594
       869.7764
   5801533.40249   4492857.54747  22893108.9844   22893106.4964
     -4007.6404
   -387329.29349   -304023.04348  21081488.1254   21081486.7664
        98.5854
  -1149809.06249   -891499.65246  24089963.2114   24089963.7074
      2464.7404
 04  9 16 21 19 45.0000000  0  8G 3G 8G10G13G19G23G27G28
   1545395.55549   1197693.43047  22942943.3054   22942943.0044
     -1499.6594
  -2238608.24649  -1739023.30547  21872955.8444   21872954.5474
      1276.2974
   -732740.54749   -570932.25046  24019351.0704   24019349.9804
       882.0244
   2505189.72349   1940057.74248  20572884.9924   20572882.8204
     -2038.1054
  -1900566.91849  -1477549.14547  22823816.1254   22823813.7584
       862.2524
   5861715.87949   4539752.93047  22904560.5084   22904558.6764
     -4012.1654
   -388763.87149   -305140.89548  21081214.9694   21081213.4104
        95.6394
  -1186734.97749   -920273.03946  24082936.1414   24082936.5554
      2461.7284
 04  9 16 21 20  0.0000000  0  8G 3G 8G10G13G19G23G27G28
   1568035.72349   1215335.13347  22947250.9774   22947251.0234
     -1509.3454
  -2257707.83649  -1753906.10247  21869320.9694   21869319.8204
      1273.3064
   -745840.97749   -581140.37147  24016857.4694   24016857.5084
       873.3624
   2535885.16049   1963976.25848  20578725.7664   20578723.9454
     -2046.3624
  -1913388.63349  -1487540.05947  22821376.4534   22821373.6844
       854.7814
   5921964.93049   4586700.19147  22916026.3204   22916024.2304
     -4016.6034
   -390155.31249   -306225.13748  21080950.4774   21080948.8094
        92.7634
  -1223616.57849   -949011.86346  24075917.9534   24075918.1374
      2458.7734
 04  9 16 21 20 15.0000000  0  8G 3G 8G10G13G19G23G27G28
   1590823.05549   1233091.50047  22951587.2734   22951587.2274
     -1519.1554
  -2276760.24249  -1768752.11747  21865695.4844   21865693.9494
      1270.1604
   -758809.29349   -591245.54347  24014390.5554   24014389.6294
       864.5544
   2566706.37949   1987992.77748  20584590.8054   20584589.0944
     -2054.7484
  -1926095.87549  -1497441.77347  22818958.2344   22818956.0204
       847.1494
   5982282.44949   4633700.81347  22927504.6414   22927502.1724
     -4021.1684
   -391501.60549   -307274.18748  21080694.0314   21080692.6644
        89.7534
  -1260451.76649   -977714.53546  24068908.5234   24068908.7704
      2455.6794
 04  9 16 21 20 30.0000000  0  8G 3G 8G10G13G19G23G27G28
   1613755.79749   1250961.17247  22955951.5944   22955951.4384
     -1528.8494
  -2295767.62149  -1783563.05947  21862078.3524   21862077.2854
      1267.1594
   -771647.07449   -601249.00846  24011947.3834   24011946.1094
       855.8524
   2597651.56649   2012105.89848  20590479.7974   20590477.5594
     -2063.0124
  -1938690.33649  -1507255.59847  22816561.5164   22816559.3554
       839.6314
   6042666.39149   4680753.16847  22938995.3914   22938993.2074
     -4025.5964
   -392804.62149   -308289.53148  21080446.2344   21080444.7304
        86.8684
  -1297242.06249  -1006382.21546  24061907.1484   24061908.1644
      2452.6864
 04  9 16 21 20 45.0000000  0  8G 3G 8G10G13G19G23G27G28
   1636833.95749   1268944.16447  22960343.1094   22960342.1884
     -1538.5444
  -2314729.81249  -1798338.78147  21858470.1804   21858468.9694
      1264.1464
   -784354.06649   -611150.56246  24009529.1954   24009528.0434
       847.1334
   2628720.90249   2036315.75848  20596391.7424   20596390.0634
     -2071.2894
  -1951171.47749  -1516981.12547  22814186.3754   22814184.0314
       832.0764
   6103116.69549   4727857.24647  22950498.6094   22950496.3914
     -4030.0204
   -394064.09449   -309270.92648  21080206.5634   21080205.2114
        83.9654
  -1333987.30149  -1035014.79746  24054914.5944   24054914.6804
      2449.6834
 04  9 16 21 21  0.0000000  0  8G 3G 8G10G13G19G23G27G28
   1660057.90649   1287040.75447  22964762.5474   22964762.1994
     -1548.2634
  -2333646.13749  -1813078.77347  21854870.6414   21854869.2734
      1261.0884
   -796929.57449   -620949.66446  24007135.8984   24007134.9264
       838.3674
   2659914.77349   2060622.66048  20602327.9924   20602325.6954
     -2079.5914
  -1963538.48449  -1526617.72347  22811832.9534   22811830.9104
       824.4674
   6163633.68449   4775013.29347  22962014.4924   22962013.0824
     -4034.4664
   -395279.43749   -310217.94948  21079975.1094   21079973.5634
        81.0234
  -1370686.73849  -1063611.68046  24047930.4534   24047931.4224
      2446.6294
 04  9 16 21 21 15.0000000  0  8G 3G 8G10G13G19G23G27G28
   1683428.58649   1305251.68447  22969209.9144   22969209.8284
     -1558.0454
  -2352515.66849  -1827782.28947  21851279.8594   21851278.7664
      1257.9694
   -809372.48049   -630645.42246  24004768.2734   24004767.6644
       829.5274
   2691234.07849   2085027.29748  20608287.8674   20608285.9414
     -2087.9544
  -1975790.35249  -1536164.58647  22809501.2814   22809499.4964
       816.7914
   6224217.91049   4822221.72747  22973543.3914   22973541.5824
     -4038.9484
   -396449.80949   -311129.93048  21079752.6644   21079751.0044
        78.0254
  -1407339.30549  -1092172.04346  24040956.0634   24040957.0084
      2443.5044
 04  9 16 21 21 30.0000000  0  8G 3G 8G10G13G19G23G27G28
   1706945.06649   1323576.22347  22973684.3444   22973685.1094
     -1567.7654
  -2371339.38349  -1842450.10947  21847697.8444   21847696.4304
      1254.9144
   -821683.47749   -640238.38746  24002425.5474   24002424.8594
       820.7334
   2722677.78949   2109528.87548  20614271.2114   20614269.7544
     -2096.2474
  -1987927.64149  -1545622.18747  22807191.9384   22807189.7734
       809.1534
   6284868.26649   4869481.69147  22985084.2584   22985082.2734
     -4043.3574
   -397576.11349   -312007.56248  21079538.0704   21079536.5784
        75.0874
  -1443945.67249  -1120696.39146  24033990.4384   24033991.0704
      2440.4244
 04  9 16 21 21 45.0000000  0  8G 3G 8G10G13G19G23G27G28
   1730603.35549   1342011.26247  22978186.5004   22978187.2114
     -1577.2194
  -2390120.92249  -1857085.07047  21844123.8754   21844122.5634
      1252.1034
   -833866.11349   -649731.34046  24000107.0474   24000106.1954
       812.1764
   2754242.13749   2134124.45748  20620277.8674   20620275.8834
     -2104.2904
  -1999953.94149  -1554993.29347  22804903.0234   22804900.6884
       801.7534
   6345580.78549   4916790.10247  22996637.7424   22996635.6024
     -4047.5014
   -398661.99249   -312853.69948  21079331.5394   21079329.8324
        72.3924
  -1480509.44149  -1149187.57047  24027032.1254   24027032.9924
      2437.5854
 04  9 16 21 22  0.0000000  0  8G 3G 8G10G13G19G23G27G28
   1754406.62149   1360559.27347  22982716.4614   22982716.3524
     -1586.8844
  -2408857.01249  -1871684.60947  21840558.5084   21840557.3404
      1249.0734
   -845917.16449   -659121.75446  23997813.8594   23997813.1414
       803.4034
   2785930.19149   2158816.43848  20626307.9774   20626306.1644
     -2112.5374
  -2011865.66849  -1564275.12547  22802636.2974   22802633.8014
       794.1154
   6406358.42649   4964149.25447  23008203.1884   23008201.2274
     -4051.8434
   -399704.32849   -313665.90648  21079133.0474   21079131.4224
        69.4894
  -1517027.34049  -1177643.00846  24020083.1484   24020083.9104
      2434.5274
 04  9 16 21 22 15.0000000  0  8G 3G 8G10G13G19G23G27G28
   1778352.72749   1379218.57447  22987273.1954   22987273.7894
     -1596.4074
  -2427549.74649  -1886250.36347  21837001.2274   21837000.2034
      1246.1824
   -857838.56249   -668411.14146  23995544.9614   23995545.1414
       794.7604
   2817739.87549   2183603.19548  20632361.1024   20632359.4494
     -2120.6464
  -2023664.67649  -1573469.12547  22800391.1024   22800388.7234
       786.6014
   6467199.00449   5011557.44547  23019781.3524   23019778.8094
     -4056.0394
   -400705.15649   -314445.77348  21078942.6644   21078941.3134
        66.7224
  -1553501.19949  -1206064.10546  24013142.1414   24013143.0634
      2431.5914
 04  9 16 21 22 30.0000000  0  8G 3G 8G10G13G19G23G27G28
   1802442.27349   1397989.66447  22991857.4384   22991857.4844
     -1605.9704
  -2446198.29749  -1900781.68747  21833452.4924   21833451.4614
      1243.2374
   -869629.29749   -677598.70346  23993301.0704   23993300.8204
       786.0494
   2849671.94149   2208485.30948  20638437.4454   20638435.5594
     -2128.8044
  -2035349.88349  -1582574.44547  22798167.5004   22798165.1054
       779.0144
   6528102.96149   5059015.03547  23031370.5394   23031368.0984
     -4060.2644
   -401663.66049   -315192.65248  21078760.5944   21078758.7734
        63.9004
  -1589930.06249  -1234450.16447  24006210.1564   24006210.4384
      2428.5914
 04  9 16 21 22 45.0000000  0  8G 3G 8G10G13G19G23G27G28
   1826676.07849   1416873.16447  22996468.9844   22996468.8054
     -1615.5874
  -2464801.71949  -1915277.85247  21829912.5784   21829911.3674
      1240.2284
   -881288.40449   -686683.67246  23991082.3524   23991082.3594
       777.2744
   2881727.21149   2233463.43448  20644537.6564   20644535.5554
     -2137.0184
  -2046920.31249  -1591590.33247  22795965.7974   22795963.4694
       771.3624
   6589070.91049   5106522.48047  23042972.1884   23042970.2034
     -4064.5304
   -402579.09849   -315905.98448  21078586.1644   21078584.5944
        61.0294
  -1626313.07849  -1262800.50846  23999287.0944   23999287.1764
      2425.5344
 04  9 16 21 23  0.0000000  0  8G 3G 8G10G13G19G23G27G28
   1851055.00849   1435869.74647  23001108.0554   23001108.0704
     -1625.2624
  -2483359.15649  -1929738.18447  21826381.1414   21826379.8754
      1237.1624
   -892814.69949   -695665.21546  23988889.0864   23988889.1414
       768.4204
   2913906.61749   2258538.28948  20650661.0474   20650659.3324
     -2145.2944
  -2058374.66449  -1600515.76647  22793785.5554   22793783.6254
       763.6234
   6650103.70749   5154080.44147  23054586.7274   23054584.8524
     -4068.8534
   -403450.29749   -316584.83248  21078420.1414   21078418.5394
        58.0804
  -1662648.97749  -1291114.12546  23992372.0634   23992372.3484
      2422.3934
 04  9 16 21 23 15.0000000  0  8G 3G 8G10G13G19G23G27G28
   1875579.30149   1454979.59447  23005774.3674   23005775.0944
     -1634.9534
  -2501870.15649  -1944162.32447  21822858.2584   21822857.6804
      1234.0674
   -904207.84949   -704543.03146  23986720.7894   23986720.7304
       759.5434
   2946210.23849   2283709.93048  20656808.2584   20656806.3134
     -2153.5754
  -2069712.39149  -1609350.33247  22791628.1414   22791625.9574
       755.8484
   6711201.30549   5201688.91047  23066213.5314   23066211.0434
     -4073.1734
   -404277.03549   -317229.03948  21078263.1724   21078261.7664
        55.1164
  -1698937.46149  -1319390.79346  23985466.3204   23985467.1604
      2419.2324
 04  9 16 21 23 30.0000000  0  8G 3G 8G10G13G19G23G27G28
   1900247.25449   1474201.37947  23010469.0944   23010469.2234
     -1644.5304
  -2520336.35949  -1958551.56647  21819344.1804   21819342.9304
      1231.0804
   -915469.24249   -713318.10246  23984578.4064   23984578.0044
       750.7604
   2978636.43449   2308977.08248  20662978.6724   20662977.1214
     -2161.7464
  -2080934.87949  -1618095.10547  22789492.7344   22789490.1524
       748.1664
   6772361.75849   5249346.36347  23077851.8134   23077849.8054
     -4077.3644
   -405060.91849   -317839.85548  21078113.9064   21078111.9104
        52.2594
  -1735179.85549  -1347631.57046  23978570.3134   23978569.9264
      2416.1604
 04  9 16 21 23 45.0000000  0  8G 3G 8G10G13G19G23G27G28
   1925059.72749   1493535.78947  23015190.8674   23015190.5084
     -1654.1654
  -2538756.65649  -1972905.03547  21815839.4144   21815837.9454
      1228.0204
   -926597.57449   -721989.52046  23982460.5634   23982460.3754
       741.8894
   3011186.23049   2334340.53548  20669172.6254   20669171.0004
     -2169.9864
  -2092040.83649  -1626749.08647  22787378.8284   22787376.7544
       740.3974
   6833586.05149   5297053.53947  23089503.1094   23089500.7774
     -4081.6204
   -405800.82449   -318416.40248  21077973.0394   21077971.5434
        49.3274
  -1771374.95349  -1375835.48847  23971681.9304   23971682.5824
      2413.0074
 04  9 16 21 24  0.0000000  0  8G 3G 8G10G13G19G23G27G28
   1950016.69949   1512982.79347  23019940.1564   23019939.8484
     -1663.7984
  -2557130.99649  -1987222.68447  21812342.6414   21812341.4144
      1224.9564
   -937592.76649   -730557.16446  23980369.4144   23980367.9614
       733.0134
   3043859.58249   2359800.28148  20675390.2344   20675388.5234
     -2178.2234
  -2103029.83649  -1635311.90647  22785287.8134   22785285.6604
       732.6004
   6894874.02049   5344810.34047  23101165.7114   23101163.2114
     -4085.8654
   -406496.79749   -318958.71548  21077840.4224   21077838.6954
        46.3984
  -1807522.56649  -1404002.38746  23964803.7584   23964803.8404
      2409.8414
 04  9 16 21 24 15.0000000  0  8G 3G 8G10G13G19G23G27G28
   1975117.92649   1532542.20747  23024716.7584   23024716.1604
     -1673.4154
  -2575459.41049  -2001504.55547  21808855.0234   21808853.5434
      1221.8944
   -948454.79349   -739021.08246  23978301.2424   23978301.0984
       724.1354
   3076656.24649   2385356.10548  20681631.3444   20681629.4384
     -2186.4444
  -2113901.94949  -1643783.65647  22783219.0944   22783217.2704
       724.8084
   6956225.22749   5392616.42647  23112840.2114   23112838.4414
     -4090.0804
   -407148.89549   -319466.83648  21077716.3674   21077714.9304
        43.4734
  -1843622.75449  -1432132.36746  23957933.5554   23957933.7854
      2406.6794
 04  9 16 21 24 30.0000000  0  8G 3G 8G10G13G19G23G27G28
   2000363.75849   1552214.28947  23029520.6024   23029520.2034
     -1683.0554
  -2593741.65249  -2015750.44547  21805376.0234   21805374.4384
      1218.8164
   -959183.05549   -747380.75047  23976259.3134   23976259.8914
       715.2174
   3109576.54349   2411008.27048  20687895.8364   20687893.9144
     -2194.6864
  -2124656.49249  -1652163.79347  22781172.1174   22781170.3834
       716.9704
   7017639.85949   5440471.94547  23124527.0394   23124524.9774
     -4094.3094
   -407756.72349   -319940.46548  21077600.5314   21077599.2544
        40.5224
  -1879674.94949  -1460224.93746  23951073.1884   23951073.6524
      2403.4804
 04  9 16 21 24 45.0000000  0  8G 3G 8G10G13G19G23G27G28
   2025751.57449   1571997.01647  23034352.0944   23034351.5434
     -1692.5214
  -2611980.09449  -2029962.20747  21801904.9454   21801904.0904
      1215.8964
   -969779.93749   -755638.05947  23974243.0864   23974243.2464
       706.4594
   3142617.97749   2436754.82448  20694183.2424   20694181.6174
     -2202.7624
  -2135295.64549  -1660454.02347  22779147.8914   22779145.9264
       709.2774
   7079115.18049   5488374.73447  23136225.2504   23136223.3404
     -4098.3554
   -408322.69149   -320381.47348  21077493.1724   21077491.4104
        37.7314
  -1915681.39549  -1488281.84846  23944221.5164   23944222.0234
      2400.4304
 04  9 16 21 25  0.0000000  0  8G 3G 8G10G13G19G23G27G28
   2051284.62149   1591892.91047  23039210.4454   23039209.8874
     -1702.2034
  -2630171.30549  -2044137.16047  21798443.4694   21798442.4924
      1212.7474
   -980241.93449   -763790.25447  23972252.1804   23972252.2734
       697.4664
   3175783.97349   2462598.44948  20700494.9534   20700492.8014
     -2211.0664
  -2145815.68749  -1668651.43747  22777146.4694   22777143.8204
       701.3364
   7140654.47349   5536327.37147  23147935.5314   23147934.0634
     -4102.6204
   -408843.41449   -320787.22748  21077394.1884   21077392.5394
        34.7154
  -1951638.52049  -1516300.32846  23937378.3834   23937378.7274
      2397.1424
 04  9 16 21 25 15.0000000  0  8G 3G 8G10G13G19G23G27G28
   2076960.83249   1611900.37147  23044096.5704   23044095.7624
     -1711.7474
  -2648317.15649  -2058276.77047  21794990.2734   21794989.4454
      1209.7234
   -990570.74249   -771838.66846  23970287.7974   23970286.7894
       688.5874
   3209072.44549   2488537.50048  20706829.4064   20706827.4494
     -2219.2324
  -2156218.39549  -1676757.42647  22775166.1724   22775164.3674
       693.5144
   7202255.38349   5584328.03547  23159657.8364   23159656.1764
     -4106.7274
   -409320.79749   -321159.20748  21077303.2034   21077301.5004
        31.8264
  -1987548.17649  -1544281.81247  23930545.7344   23930545.7774
      2393.9774
 04  9 16 21 25 30.0000000  0  8G 3G 8G10G13G19G23G27G28
   2102781.46149   1632020.35247  23049010.1024   23049009.0164
     -1721.3754
  -2666416.43749  -2072380.09447  21791546.1484   21791545.5634
      1206.6194
  -1000765.03149   -779782.26646  23968347.3594   23968346.0234
       679.6194
   3242484.38349   2514572.76248  20713187.2114   20713185.8204
     -2227.4624
  -2166502.36749  -1684770.89547  22773209.9694   22773207.2814
       685.5984
   7263918.95349   5632377.51247  23171391.9534   23171390.2814
     -4110.9054
   -409753.58649   -321496.44548  21077220.7814   21077219.2384
        28.8534
  -2023408.95349  -1572225.23446  23923721.4844   23923721.6214
      2390.7184
 04  9 16 21 25 45.0010000  0  8G 3G 8G10G13G19G23G27G28
   2128748.54749   1652254.46147  23053951.3104   23053950.5914
     -1731.1394
  -2684469.72749  -2086447.57847  21788110.6384   21788109.8964
      1203.5534
  -1010824.74649   -787620.98447  23966433.3564   23966432.0054
       670.6484
   3276022.66449   2540706.47348  20719569.5604   20719567.6424
     -2235.8854
  -2176667.36349  -1692691.65647  22771275.3964   22771273.0794
       677.6664
   7325649.67249   5680479.29747  23183139.2314   23183136.9814
     -4115.3814
   -410141.26649   -321798.53148  21077147.0444   21077145.3724
        25.8454
  -2059222.53549  -1600131.86746  23916906.4664   23916906.4464
      2387.5724
 04  9 16 21 26  0.0010000  0  8G 3G 8G10G13G19G23G27G28
   2154858.04749   1672599.54347  23058919.8414   23058919.0564
     -1740.6334
  -2702475.05149  -2100477.68447  21784684.2714   21784683.5604
      1200.3554
  -1020749.00049   -795354.15647  23964544.6614   23964543.7904
       661.6174
   3309682.15249   2566934.62948  20725974.6924   20725973.0794
     -2243.9664
  -2186712.47349  -1700518.99247  22769364.3334   22769361.1924
       669.6744
   7387438.56349   5728626.42647  23194897.6924   23194895.2714
     -4119.2594
   -410484.19949   -322065.74648  21077081.9504   21077080.3534
        22.8624
  -2094984.54349  -1627998.31647  23910101.0674   23910101.1494
      2384.1344
 04  9 16 21 26 15.0010000  0  8G 3G 8G10G13G19G23G27G28
   2181110.75049   1693056.20747  23063915.3724   23063914.9854
     -1750.1804
  -2720434.48849  -2114472.03547  21781266.8964   21781265.7554
      1197.2964
  -1030538.98449   -802982.70746  23962681.3724   23962680.8564
       652.6664
   3343464.29749   2593258.36348  20732403.2634   20732401.4544
     -2252.1434
  -2196638.74249  -1708253.73447  22767475.0364   22767472.8174
       661.7514
   7449288.69149   5776821.26647  23206667.6224   23206664.9814
     -4123.3424
   -410783.37949   -322298.86748  21077024.7634   21077023.2944
        19.9454
  -2130697.99249  -1655826.93047  23903304.9424   23903305.4464
      2380.8974
 04  9 16 21 26 30.0010000  0  8G 3G 8G10G13G19G23G27G28
   2207507.88749   1713625.42247  23068938.6464   23068938.0564
     -1759.8094
  -2738346.64149  -2128429.54347  21777858.4974   21777857.4464
      1194.1434
  -1040193.35949   -810505.58247  23960844.4894   23960843.6384
       643.6254
   3377370.28949   2619678.60548  20738855.3724   20738853.4814
     -2260.3994
  -2206444.75049  -1715894.75847  22765608.7554   22765606.9314
       653.7344
   7511201.05949   5825064.62147  23218449.0054   23218447.3414
     -4127.4914
   -411037.36749   -322496.77748  21076976.6854   21076974.5484
        16.9334
  -2166361.39849  -1683616.54747  23896518.6694   23896518.5444
      2377.5604
 04  9 16 21 26 45.0010000  0  8G 3G 8G10G13G19G23G27G28
   2234048.43849   1734306.38747  23073988.9194   23073988.1534
     -1769.3704
  -2756212.41849  -2142350.91447  21774458.8174   21774457.4704
      1191.0524
  -1049712.87949   -817923.37547  23959032.8564   23959031.7674
       634.6354
   3411399.13349   2646194.57048  20745330.5994   20745329.1034
     -2268.5904
  -2216131.11349  -1723442.54347  22763765.0834   22763763.6654
       645.7584
   7573174.60249   5873355.65647  23230242.4504   23230240.2164
     -4131.5704
   -411246.96149   -322660.09848  21076936.5914   21076935.0134
        13.9734
  -2201975.49249  -1711367.74247  23889741.4664   23889741.9314
      2374.2734
 04  9 16 21 27  0.0010000  0  8G 3G 8G10G13G19G23G27G28
   2260731.11749   1755098.09047  23079066.4424   23079065.8494
     -1778.8454
  -2774032.93049  -2156237.02047  21771067.1384   21771066.0714
      1188.0344
  -1059098.58249   -825236.90647  23957246.6384   23957245.9854
       625.7144
   3445549.67649   2672805.37548  20751829.4814   20751828.0874
     -2276.7034
  -2225698.71149  -1730897.78947  22761944.8414   22761943.0954
       637.8404
   7635207.92249   5921693.24647  23242046.8724   23242044.6774
     -4135.5554
   -411413.42649   -322789.80548  21076904.8964   21076903.4424
        11.0984
  -2237541.34849  -1739081.32447  23882973.3024   23882973.4664
      2371.0574
 04  9 16 21 27 15.0010000  0  8G 3G 8G10G13G19G23G27G28
   2287558.93849   1776002.89547  23084171.3104   23084171.6464
     -1788.5214
  -2791804.94549  -2170085.32447  21767685.4744   21767684.7044
      1184.8014
  -1068347.22349   -832443.64846  23955485.8174   23955486.3454
       616.5764
   3479824.98049   2699513.39548  20758351.8804   20758350.0444
     -2285.0204
  -2235144.16449  -1738257.85947  22760147.6614   22760145.4354
       629.6974
   7697303.94149   5970079.69147  23253863.7244   23253862.0324
     -4139.7354
   -411533.51249   -322883.37548  21076882.0604   21076880.3604
         8.0064
  -2273055.58249  -1766754.69947  23876215.3964   23876214.8214
      2367.6164
 04  9 16 21 27 30.0010000  0  8G 3G 8G10G13G19G23G27G28
   2314531.21949   1797020.26247  23089304.3334   23089304.7354
     -1798.1524
  -2809529.03149  -2183896.28547  21764312.7004   21764311.3454
      1181.6064
  -1077459.30949   -839543.94946  23953752.4664   23953751.6884
       607.4724
   3514224.08249   2726317.87548  20764897.6694   20764895.9424
     -2293.2734
  -2244467.86349  -1745523.05947  22758372.8174   22758370.7394
       621.5804
   7759461.72349   6018514.27747  23265691.8174   23265689.5134
     -4143.8524
   -411607.86749   -322941.31248  21076868.2394   21076866.2474
         4.9574
  -2308518.78149  -1794388.32047  23869466.5214   23869466.6614
      2364.2134
 04  9 16 21 27 45.0010000  0  8G 3G 8G10G13G19G23G27G28
   2341647.25849   1818149.65247  23094464.2864   23094464.9384
     -1807.7364
  -2827205.96549  -2197670.50847  21760949.2314   21760948.1424
      1178.4624
  -1086435.18449   -846538.13746  23952044.0364   23952043.6424
       598.3924
   3548746.43049   2753218.39548  20771467.2714   20771465.3064
     -2301.4904
  -2253670.25049  -1752693.73447  22756621.8564   22756619.7004
       613.4924
   7821680.54749   6066996.41847  23277531.5914   23277529.7944
     -4147.9224
   -411637.10249   -322964.09048  21076862.7084   21076860.7714
         1.9494
  -2343931.35249  -1821982.46147  23862727.0524   23862727.6734
      2360.8384
 04  9 16 21 28  0.0010000  0  8G 3G 8G10G13G19G23G27G28
   2368904.66849   1839389.20347  23099651.1464   23099650.9274
     -1817.1614
  -2844837.76249  -2211409.56247  21757593.8174   21757592.7944
      1175.4534
  -1095276.72349   -853427.64846  23950362.7554   23950361.6854
       589.4364
   3583389.83649   2780213.23848  20778059.5994   20778057.6774
     -2309.5604
  -2262753.20349  -1759771.34047  22754893.6384   22754891.2864
       605.5304
   7883958.03549   6115524.27747  23289382.2864   23289381.0014
     -4151.8334
   -411623.17249   -322953.23448  21076864.8564   21076863.4194
        -0.9294
  -2379295.12549  -1849538.58247  23855998.1224   23855998.2084
      2357.5854
 04  9 16 21 28 15.0010000  0  8G 3G 8G10G13G19G23G27G28
   2396304.71149   1860739.89847  23104865.8334   23104865.4424
     -1826.6704
  -2862422.94149  -2225112.29347  21754247.4424   21754245.7314
      1172.3454
  -1103982.69949   -860211.50846  23948705.4974   23948704.6924
       580.3984
   3618155.55549   2807303.39848  20784675.4504   20784673.5014
     -2317.7154
  -2271715.18749  -1766754.67247  22753187.9584   22753186.1184
       597.4664
   7946295.18049   6164098.60247  23301244.6614   23301242.8454
     -4155.8104
   -411564.88749   -322907.81648  21076876.4274   21076874.4894
        -3.8864
  -2414608.77049  -1877055.65646  23849278.0754   23849278.2594
      2354.2434
 04  9 16 21 28 30.0010000  0  8G 3G 8G10G13G19G23G27G28
   2423849.77349   1882203.57847  23110106.7314   23110107.0634
     -1836.3374
  -2879959.12149  -2238776.83247  21750910.0834   21750909.1884
      1169.0794
  -1112550.43749   -866887.66847  23947074.2864   23947074.3104
       571.1834
   3653046.09049   2834490.81648  20791314.9034   20791313.1774
     -2326.0364
  -2280553.37949  -1773641.55547  22751506.6144   22751504.3254
       589.2134
   8008694.37949   6212721.29347  23313119.2244   23313117.7864
     -4159.9474
   -411459.56249   -322825.74248  21076895.9504   21076894.2784
        -7.0224
  -2449869.52049  -1904531.49646  23842568.1774   23842568.5284
      2350.7174
 04  9 16 21 28 45.0010000  0  8G 3G 8G10G13G19G23G27G28
   2451539.39149   1903779.91847  23115376.2634   23115376.4314
     -1845.9744
  -2897446.32049  -2252403.20747  21747583.0284   21747581.5954
      1165.8134
  -1120980.05549   -873456.20746  23945470.9034   23945470.2554
       561.9744
   3688060.96549   2861775.12148  20797978.1774   20797976.2474
     -2334.3254
  -2289267.79349  -1780431.97747  22749847.7864   22749845.6224
       580.9614
   8071154.99649   6261391.84847  23325005.0284   23325002.8174
     -4164.0414
   -411307.69549   -322707.39848  21076924.8494   21076923.2434
       -10.1244
  -2485077.67249  -1931966.36346  23835868.7314   23835868.7244
      2347.2104
 04  9 16 21 29  0.0010000  0  8G 3G 8G10G13G19G23G27G28
   2479373.53549   1925468.85947  23120672.7474   23120672.7864
     -1855.6104
  -2914884.47749  -2265991.37147  21744264.2944   21744263.1104
      1162.5444
  -1129271.30949   -879916.89546  23943892.8724   23943892.4114
       552.7504
   3723200.23049   2889156.34448  20804664.9274   20804662.9704
     -2342.6184
  -2297858.23449  -1787125.79347  22748212.7164   22748211.0994
       572.6964
   8133676.92649   6310110.16847  23336902.3104   23336900.6814
     -4168.1294
   -411108.94149   -322552.52348  21076962.8174   21076960.9784
       -13.2504
  -2520232.98049  -1959360.04347  23829178.4894   23829178.6614
      2343.6874
 04  9 16 21 29 15.0010000  0  8G 3G 8G10G13G19G23G27G28
   2507346.75449   1947266.17647  23125995.6614   23125995.4114
     -1864.8814
  -2932278.81249  -2279545.39147  21740954.4664   21740953.2204
      1159.6224
  -1137429.45349   -886273.87946  23942340.6534   23942339.9074
       543.8764
   3758458.41049   2916630.23848  20811374.3494   20811372.4584
     -2350.5454
  -2306329.76649  -1793726.96547  22746601.6304   22746599.2284
       564.7694
   8196254.47349   6358871.83247  23348810.5284   23348808.9274
     -4171.8364
   -410868.80149   -322365.39548  21077008.9274   21077006.6694
       -16.0094
  -2555340.65649  -1986716.59846  23822497.2164   23822497.2864
      2340.5124
 04  9 16 21 29 30.0010000  0  8G 3G 8G10G13G19G23G27G28
   2535460.64549   1969173.10547  23131346.0834   23131345.6774
     -1874.2594
  -2949627.83249  -2293064.09847  21737653.0444   21737651.2044
      1156.6014
  -1145452.55949   -892525.64846  23940814.3024   23940813.0914
       534.8744
   3793837.22749   2944198.12948  20818106.5364   20818104.6534
     -2358.5884
  -2314680.46949  -1800233.97747  22745012.1694   22745009.9074
       556.7144
   8258889.29349   6407678.13347  23360729.0674   23360727.6884
     -4175.6554
   -410585.46149   -322144.60548  21077062.3724   21077060.5754
       -18.8894
  -2590398.73449  -2014034.52347  23815826.1854   23815826.0444
      2337.2054
 04  9 16 21 29 45.0010000  0  8G 3G 8G10G13G19G23G27G28
   2563715.29749   1991189.71947  23136722.9744   23136722.3134
     -1883.6434
  -2966931.14549  -2306547.18747  21734360.0674   21734358.9664
      1153.5544
  -1153340.38749   -898671.99646  23939312.6694   23939312.8884
       525.8554
   3829336.75449   2971860.08248  20824861.9894   20824860.1344
     -2366.6354
  -2322909.68749  -1806646.32447  22743446.0444   22743443.3214
       548.6154
   8321581.35549   6456529.02047  23372659.1694   23372657.2284
     -4179.4714
   -410258.53949   -321889.86348  21077124.7944   21077123.2594
       -21.7954
  -2625406.72749  -2041313.41447  23809164.3494   23809164.6494
      2333.8664
 04  9 16 21 30  0.0010000  0  8G 3G 8G10G13G19G23G27G28
   2592112.91849   2013317.73847  23142127.1144   23142126.7084
     -1893.1754
  -2984186.52349  -2319992.92247  21731076.4974   21731075.3924
      1150.3594
  -1161090.48849   -904711.02346  23937837.6534   23937837.6494
       516.6734
   3864959.22349   2999617.83248  20831640.6534   20831638.6534
     -2374.8314
  -2331015.16449  -1812962.24647  22741903.6304   22741901.2944
       540.3654
   8384332.68849   6505426.09447  23384600.7164   23384598.5404
     -4183.4224
   -409885.83649   -321599.44948  21077195.4974   21077193.8564
       -24.8474
  -2660362.31249  -2068551.48447  23802512.4584   23802512.2824
      2330.3724
 04  9 16 21 30 15.0010000  0  8G 3G 8G10G13G19G23G27G28
   2620653.50849   2035557.16047  23147557.3254   23147557.9464
     -1902.7064
  -3001393.56249  -2333400.99247  21727802.0364   21727800.5214
      1147.1364
  -1168702.54349   -910642.49246  23936389.6854   23936389.1384
       507.4704
   3900704.62549   3027471.38348  20838443.0444   20838441.2044
     -2383.0274
  -2338996.39849  -1819181.35247  22740385.1144   22740382.5214
       532.0824
   8447143.18049   6554369.26247  23396553.2084   23396551.6964
     -4187.3664
   -409467.09849   -321273.15248  21077275.3414   21077273.6384
       -27.9164
  -2695265.18749  -2095748.44147  23795870.6144   23795870.8254
      2326.8584
 04  9 16 21 30 30.0010000  0  8G 3G 8G10G13G19G23G27G28
   2649335.90649   2057907.08647  23153015.9814   23153015.5324
     -1912.1604
  -3018553.52349  -2346772.37947  21724536.2944   21724535.0244
      1143.9974
  -1176177.41449   -916467.06246  23934966.6064   23934966.3994
       498.3254
   3936571.90649   3055419.90248  20845268.1464   20845266.3294
     -2391.1524
  -2346854.16049  -1825304.25447  22738889.4034   22738887.4974
       523.8514
   8510011.56349   6603357.56347  23408516.6064   23408514.4234
     -4191.2264
   -409003.31249   -320911.75448  21077363.4664   21077362.0524
       -30.9194
  -2730116.17249  -2122904.99247  23789238.2164   23789238.5444
      2323.3994
 04  9 16 21 30 45.0010000  0  8G 3G 8G10G13G19G23G27G28
   2678159.19549   2080366.79347  23158500.6534   23158500.2864
     -1921.5534
  -3035666.97349  -2360107.52747  21721279.9814   21721278.7514
      1140.8974
  -1183515.80149   -922185.25846  23933570.6774   23933569.9154
       489.2264
   3972560.26249   3083462.76648  20852116.5604   20852114.3964
     -2399.2244
  -2354589.11349  -1831331.46147  22737417.3334   22737415.5524
       515.6644
   8572936.84849   6652390.19147  23420491.0214   23420489.1184
     -4195.0194
   -408495.26249   -320515.86748  21077460.3494   21077458.5484
       -33.8704
  -2764915.92249  -2150021.59047  23782616.0284   23782616.8804
      2319.9834
 04  9 16 21 31  0.0010000  0  8G 3G 8G10G13G19G23G27G28
   2707123.25049   2102936.18047  23164012.6064   23164011.6304
     -1930.9374
  -3052733.80949  -2373406.34447  21718032.5214   21718031.3644
      1137.7894
  -1190717.59849   -927797.05947  23932200.3644   23932199.5754
       480.1204
   4008669.51249   3111599.83248  20858987.9354   20858985.9704
     -2407.2834
  -2362201.02349  -1837262.78547  22735969.2164   22735967.0324
       507.4614
   8635918.76249   6701466.97347  23432476.1304   23432474.5954
     -4198.7944
   -407942.91849   -320085.47348  21077565.1224   21077563.8294
       -36.8234
  -2799664.24249  -2177098.12947  23776003.7554   23776004.6814
      2316.5554
 04  9 16 21 31 15.0010000  0  8G 3G 8G10G13G19G23G27G28
   2736227.84849   2125615.09847  23169550.2004   23169550.0174
     -1940.3074
  -3069754.09849  -2386668.89147  21714793.5674   21714792.4194
      1134.6864
  -1197782.75049   -933302.37147  23930856.2554   23930854.9934
       471.0104
   4044899.46549   3139830.94948  20865882.1694   20865880.3024
     -2415.3304
  -2369689.60549  -1843098.00847  22734543.8804   22734541.8994
       499.2394
   8698957.07049   6750587.68047  23444471.8804   23444470.2824
     -4202.5544
   -407346.31249   -319620.57848  21077678.8494   21077677.0674
       -39.7744
  -2834361.10249  -2204134.57047  23769401.3564   23769401.9074
      2313.1244
 04  9 16 21 31 30.0010000  0  8G 3G 8G10G13G19G23G27G28
   2765469.94949   2148401.14147  23175115.0054   23175114.5444
     -1949.4734
  -3086730.69549  -2399897.40247  21711562.8174   21711561.4464
      1131.7734
  -1204713.99249   -938703.32846  23929536.9894   23929536.6654
       462.0834
   4081247.30949   3168153.93048  20872798.8884   20872797.0444
     -2423.1904
  -2377057.54749  -1848839.22747  22733142.0674   22733139.9114
       491.1964
   8762048.61749   6799749.86347  23456478.2784   23456476.4114
     -4206.1034
   -406708.25049   -319123.38748  21077800.1614   21077798.4034
       -42.5374
  -2869009.11349  -2231132.96547  23762808.1694   23762807.7284
      2309.8674
 04  9 16 21 31 45.0010000  0  8G 3G 8G10G13G19G23G27G28
   2794853.44549   2171297.38347  23180706.4034   23180706.5954
     -1958.9004
  -3103659.59049  -2413088.73447  21708341.6144   21708340.1144
      1128.5934
  -1211507.20349   -943996.73046  23928244.6694   23928244.0094
       452.8814
   4117716.82449   3196571.73048  20879739.1064   20879737.0284
     -2431.3014
  -2384300.64849  -1854483.16447  22731763.2314   22731761.6734
       482.8734
   8825197.18449   6848956.46147  23468494.9424   23468493.1574
     -4209.9044
   -406024.81249   -318590.83648  21077930.3644   21077928.3254
       -45.5624
  -2903604.28549  -2258090.17247  23756224.5444   23756224.7864
      2306.3454
 04  9 16 21 32  0.0010000  0  8G 3G 8G10G13G19G23G27G28
   2824376.32049   2194302.21947  23186324.1534   23186324.7784
     -1968.1924
  -3120542.75049  -2426244.42647  21705128.4114   21705127.3724
      1125.5444
  -1218164.29349   -949184.07847  23926977.8414   23926977.0994
       443.8064
   4154305.91849   3225082.69548  20886701.7004   20886699.6654
     -2439.2734
  -2391420.71149  -1860031.24247  22730408.3724   22730405.9934
       474.6714
   8888400.57049   6898205.78947  23480522.6304   23480520.9584
     -4213.5594
   -405297.82849   -318024.35248  21078068.2784   21078066.9744
       -48.4664
  -2938148.37949  -2285007.58247  23749651.1694   23749651.2744
      2302.9404
 04  9 16 21 32 15.0010000  0  8G 3G 8G10G13G19G23G27G28
   2854040.09449   2217416.84447  23191969.3724   23191969.6884
     -1977.5854
  -3137378.20749  -2439362.96147  21701925.0834   21701923.4784
      1122.3644
  -1224683.33249   -954263.85246  23925736.8564   23925735.9664
       434.6034
   4191016.28149   3253688.16848  20893687.2244   20893685.2744
     -2447.3584
  -2398415.74249  -1865481.88347  22729077.3414   22729075.3494
       466.3354
   8951660.29749   6947499.01247  23492560.3804   23492558.9744
     -4217.3154
   -404525.49249   -317422.52348  21078215.3254   21078213.7674
       -51.4894
  -2972639.55149  -2311883.76247  23743087.9034   23743087.5484
      2299.4114
 04  9 16 21 32 30.0010000  0  8G 3G 8G10G13G19G23G27G28
   2883843.64849   2240640.39147  23197640.7944   23197641.4544
     -1986.9044
  -3154166.68749  -2452444.87947  21698730.4894   21698729.0404
      1119.2324
  -1231065.18449   -959236.69946  23924522.2084   23924521.7204
       425.4574
   4227846.96549   3282387.38748  20900696.3104   20900694.1884
     -2455.3794
  -2405286.38749  -1870835.59047  22727770.0134   22727768.2164
       458.0434
   9014975.33649   6996835.36347  23504608.1224   23504607.0364
     -4221.0034
   -403708.77749   -316786.12148  21078371.1384   21078369.2824
       -54.4484
  -3007078.53949  -2338719.27347  23736534.3964   23736534.2204
      2295.9334
 04  9 16 21 32 45.0010000  0  8G 3G 8G10G13G19G23G27G28
   2913787.30949   2263973.12947  23203338.8564   23203338.7904
     -1996.2444
  -3170908.03549  -2465490.07047  21695544.5834   21695543.1104
      1116.0904
  -1237309.37549   -964102.31247  23923333.9894   23923333.4584
       416.2794
   4264798.16049   3311180.50848  20907727.7554   20907725.5834
     -2463.4134
  -2412031.98849  -1876091.87147  22726486.1144   22726484.3334
       449.7074
   9078345.61749   7046214.71947  23516667.7714   23516665.5954
     -4224.6854
   -402847.18449   -316114.74248  21078534.8724   21078533.2864
       -57.4404
  -3041464.77349  -2365513.68447  23729990.5604   23729990.7394
      2292.4164
 04  9 16 21 33  0.0010000  0  8G 3G 8G10G13G19G23G27G28
   2943870.44949   2287414.54347  23209063.7244   23209063.6184
     -2005.5434
  -3187602.71149  -2478498.90247  21692367.7164   21692366.3494
      1112.9784
  -1243416.11749   -968860.80547  23922171.9504   23922170.7434
       407.1164
   4301869.37949   3340067.17248  20914782.1774   20914780.2244
     -2471.4154
  -2418652.74249  -1881250.86747  22725226.7394   22725223.7634
       441.3844
   9141770.60549   7095636.70747  23528737.2244   23528735.8604
     -4228.3334
   -401941.09449   -315408.69548  21078707.3644   21078705.7204
       -60.4064
  -3075798.46949  -2392267.15647  23723457.1064   23723456.8724
      2288.9134
 04  9 16 21 33 15.0010000  0  8G 3G 8G10G13G19G23G27G28
   2974093.94149   2310965.30947  23214815.2314   23214815.0094
     -2014.8994
  -3204249.60549  -2491470.49647  21689199.9354   21689198.6494
      1109.7934
  -1249384.38349   -973511.39546  23921036.5284   23921035.5674
       397.8844
   4339061.52749   3369048.05548  20921859.4194   20921857.2474
     -2479.4774
  -2425147.56649  -1886311.73447  22723990.4744   22723987.8724
       432.9884
   9205251.02349   7145101.90247  23540817.8884   23540816.0484
     -4232.0284
   -400989.61749   -314667.28148  21078888.5364   21078886.9154
       -63.4324
  -3110078.53549  -2418978.83647  23716933.6774   23716933.2514
      2285.3384
 04  9 16 21 33 30.0010000  0  8G 3G 8G10G13G19G23G27G28
   3004457.71549   2334625.39147  23220592.9504   23220592.6104
     -2024.2524
  -3220848.43449  -2504404.63347  21686040.9584   21686040.0054
      1106.5894
  -1255213.96549   -978053.90247  23919926.4974   23919926.0404
       388.6394
   4376374.61349   3398123.17248  20928959.9354   20928957.7864
     -2487.5394
  -2431516.15249  -1891274.23447  22722778.4114   22722776.0134
       424.5724
   9268786.67649   7194610.13347  23552908.0914   23552906.3844
     -4235.7104
   -399992.48049   -313890.28948  21079078.2004   21079076.4234
       -66.4764
  -3144304.77749  -2445648.59447  23710420.7314   23710420.4384
      2281.7494
 04  9 16 21 33 45.0010000  0  8G 3G 8G10G13G19G23G27G28
   3034961.86349   2358394.85547  23226397.8884   23226397.7674
     -2033.6104
  -3237398.79749  -2517301.02347  21682891.7864   21682890.4074
      1103.3584
  -1260904.43049   -982488.01647  23918843.0994   23918842.5634
       379.3644
   4413808.76649   3427292.62148  20936083.4274   20936081.4544
     -2495.6104
  -2437758.04749  -1896138.02047  22721590.2714   22721588.2784
       416.1264
   9332377.64149   7244161.47747  23565008.3414   23565006.8534
     -4239.3984
   -398949.32449   -313077.44148  21079276.5994   21079274.8804
       -69.5444
  -3178476.72749  -2472276.04347  23703917.7474   23703917.6614
      2278.1304
 04  9 16 21 34  0.0010000  0  8G 3G 8G10G13G19G23G27G28
   3065604.37549   2382272.12547  23232228.2394   23232228.7044
     -2042.8344
  -3253902.75449  -2530161.22747  21679751.0364   21679749.7394
      1100.2644
  -1266457.46149   -986815.05147  23917787.5054   23917785.5994
       370.2024
   4451362.10249   3456554.95348  20943229.3804   20943227.7634
     -2503.5564
  -2443874.87149  -1900904.33247  22720426.8414   22720424.0564
       407.7884
   9396021.81349   7293754.26647  23577120.0994   23577117.5604
     -4242.9454
   -397862.05149   -312230.21548  21079483.4974   21079482.0484
       -72.4854
  -3212596.08649  -2498862.48047  23697424.7084   23697424.8844
      2274.6244
 04  9 16 21 34 15.0010000  0  8G 3G 8G10G13G19G23G27G28
   3096386.81649   2406258.44947  23238086.2784   23238086.6694
     -2052.1634
  -3270358.61349  -2542983.96947  21676619.6694   21676618.3994
      1097.0574
  -1271871.40249   -991033.69546  23916756.5604   23916756.0404
       360.9294
   4489036.08649   3485911.29348  20950398.7474   20950396.9704
     -2511.5994
  -2449864.69149  -1905571.69947  22719286.8494   22719283.8334
       399.3214
   9459720.59049   7343389.61347  23589241.2314   23589240.1034
     -4246.5854
   -396729.06249   -311347.35548  21079699.4504   21079697.6494
       -75.5334
  -3246660.96549  -2525406.50047  23690943.5444   23690942.5834
      2270.9924
 04  9 16 21 34 30.0010000  0  8G 3G 8G10G13G19G23G27G28
   3127309.27049   2430353.85247  23243970.7164   23243971.1964
     -2061.4974
  -3286766.07449  -2555768.99247  21673497.3884   21673496.2044
      1093.8314
  -1277145.85549   -995143.66446  23915753.4194   23915751.8724
       351.6304
   4526830.95349   3515361.83248  20957590.7784   20957589.1144
     -2519.6584
  -2455727.20349  -1910139.85247  22718171.3254   22718168.5634
       390.8344
   9523473.87949   7393067.44147  23601372.9894   23601372.2244
     -4250.2194
   -395549.98849   -310428.60548  21079923.6304   21079922.3764
       -78.6054
  -3280671.17249  -2551907.90647  23684470.7164   23684471.0994
      2267.3474
 04  9 16 21 34 45.0010000  0  8G 3G 8G10G13G19G23G27G28
   3158369.85949   2454556.91847  23249881.4114   23249882.0134
     -2070.7064
  -3303126.98849  -2568517.75047  21670384.2244   21670382.6694
      1090.7284
  -1282282.46949   -999146.20747  23914775.9744   23914774.6424
       342.4414
   4564744.72749   3544905.01648  20964805.5134   20964803.6534
     -2527.5854
  -2461463.82849  -1914609.91847  22717079.5054   22717076.8604
       382.4424
   9587279.75049   7442786.23847  23613515.2394   23613512.7714
     -4253.7254
   -394326.61749   -309475.32048  21080156.3024   21080154.7354
       -81.5584
  -3314628.16849  -2578367.84847  23678008.7164   23678009.1184
      2263.8004
 04  9 16 21 35  0.0010000  0  8G 3G 8G10G13G19G23G27G28
   3189568.18449   2478867.30147  23255818.6144   23255818.2204
     -2079.8884
  -3319441.32849  -2581230.21147  21667279.4424   21667277.9584
      1087.6234
  -1287281.37149  -1003041.45746  23913824.9814   23913824.0284
       333.2604
   4602777.18849   3574540.68448  20972042.9114   20972041.2124
     -2535.4974
  -2467074.48849  -1918981.81647  22716011.9664   22716009.3564
       374.0444
   9651137.89549   7492545.76247  23625666.8254   23625666.1424
     -4257.2104
   -393058.94549   -308487.51648  21080397.5054   21080396.0524
       -84.5114
  -3348532.05149  -2604786.40247  23671557.2314   23671556.4274
      2260.2594
 04  9 16 21 35 15.0010000  0  8G 3G 8G10G13G19G23G27G28
   3220905.76649   2503286.18847  23261781.4114   23261781.5134
     -2089.1724
  -3335707.14149  -2593904.85547  21664184.0054   21664183.1224
      1084.3884
  -1292140.77149  -1006828.03946  23912899.9894   23912899.1494
       323.9604
   4640929.98449   3604270.12548  20979303.1854   20979301.0714
     -2543.5204
  -2472557.27349  -1923254.09047  22714968.4744   22714965.9384
       365.5194
   9715049.82849   7542347.19147  23637828.6774   23637828.1574
     -4260.7964
   -391745.25449   -307463.86348  21080647.3494   21080645.9154
       -87.5794
  -3382380.99249  -2631162.14847  23665116.1464   23665115.2744
      2256.5964
 04  9 16 21 35 30.0010000  0  8G 3G 8G10G13G19G23G27G28
   3252381.70749   2527812.88747  23267771.3024   23267770.8254
     -2098.3964
  -3351925.44149  -2606542.47747  21661098.0284   21661096.5794
      1081.2204
  -1296861.36749  -1010506.36346  23912001.6304   23912000.7824
       314.7064
   4679201.93449   3634092.41448  20986585.8174   20986584.1534
     -2551.4634
  -2477912.86349  -1927427.23447  22713949.0364   22713946.7244
       357.0394
   9779014.36749   7592189.62147  23650001.0604   23649999.5134
     -4264.3034
   -390386.50049   -306405.08648  21080906.0674   21080904.3104
       -90.5844
  -3416175.60949  -2657495.55547  23658684.4814   23658684.7314
      2252.9744
 04  9 16 21 35 45.0010000  0  8G 3G 8G10G13G19G23G27G28
   3283997.67249   2552448.70747  23273787.8804   23273787.9074
     -2107.7314
  -3368094.05549  -2619141.39847  21658020.9974   21658019.7824
      1077.9084
  -1301441.14549  -1014075.03546  23911130.6774   23911128.9934
       305.3184
   4717594.90649   3664009.00048  20993892.0054   20993890.3964
     -2559.5324
  -2483139.10949  -1931499.59847  22712955.1304   22712952.5634
       348.4164
   9843033.11349   7642074.27347  23662183.7314   23662182.3174
     -4267.9164
   -388980.62549   -305309.59848  21081173.7314   21081171.8804
       -93.7254
  -3449913.99649  -2683785.15247  23652264.6614   23652264.3374
      2249.2264
 04  9 16 21 36  0.0010000  0  8G 3G 8G10G13G19G23G27G28
   3315751.35249   2577191.83647  23279830.1144   23279830.3804
     -2116.9124
  -3384215.12149  -2631703.25447  21654953.3414   21654951.8104
      1074.7384
  -1305882.34049  -1017535.68747  23910285.0834   23910283.8414
       296.0804
   4756106.64149   3694018.12548  21001220.5834   21001218.7554
     -2567.4494
  -2488238.18049  -1935472.86747  22711984.5834   22711981.8104
       339.9384
   9907103.60949   7691999.26247  23674375.8174   23674375.1884
     -4271.3664
   -387529.86749   -304179.13748  21081449.7474   21081448.1264
       -96.7174
  -3483598.16449  -2710032.51247  23645855.3564   23645854.7394
      2245.6114
 04  9 16 21 36 15.0010000  0  8G 3G 8G10G13G19G23G27G28
   3347643.45749   2602042.80947  23285898.9034   23285898.7784
     -2126.1404
  -3400287.93449  -2644227.51647  21651894.4814   21651893.3564
      1071.5214
  -1310183.83649  -1020887.52047  23909466.8334   23909465.8494
       286.7664
   4794738.05149   3724120.51248  21008571.9504   21008569.8994
     -2575.4274
  -2493208.91049  -1939346.14147  22711038.4664   22711035.7164
       331.3824
   9971226.67649   7741965.21547  23686578.0754   23686576.6614
     -4274.8714
   -386033.19149   -303012.89148  21081734.5444   21081732.7714
       -99.7784
  -3517226.99249  -2736236.74647  23639455.3884   23639455.1424
      2241.9224
 04  9 16 21 36 30.0010000  0  8G 3G 8G10G13G19G23G27G28
   3379673.80149   2627001.51647  23291994.3804   23291994.0794
     -2135.3564
  -3416312.45349  -2656714.14847  21648845.2944   21648844.1964
      1068.3014
  -1314345.59049  -1024130.42247  23908675.0524   23908673.3884
       277.4504
   4833489.02349   3754316.06348  21015946.2004   21015944.1494
     -2583.3984
  -2498051.02749  -1943119.18047  22710117.2784   22710114.4544
       322.8084
  10035401.97349   7791971.86347  23698790.0834   23698789.3254
     -4278.3534
   -384490.55549   -301810.82848  21082028.0914   21082026.5564
      -102.8424
  -3550800.27749  -2762397.69947  23633066.5914   23633066.4034
      2238.2194
 04  9 16 21 36 45.0010000  0  8G 3G 8G10G13G19G23G27G28
   3411839.60549   2652065.77047  23298115.1534   23298114.3374
     -2144.3874
  -3432291.14549  -2669165.06647  21645804.9664   21645803.3374
      1065.2464
  -1318370.05549  -1027266.36746  23907908.6064   23907907.7944
       268.2984
   4872356.80549   3784602.62548  21023342.2784   21023340.3294
     -2591.1854
  -2502766.79749  -1946793.77347  22709220.0054   22709216.7284
       314.3854
  10099626.66849   7842016.99247  23711011.3254   23711011.3534
     -4281.6464
   -382904.48049   -300574.93048  21082329.9114   21082328.1774
      -105.7384
  -3584320.55149  -2788517.32447  23626687.9894   23626687.7674
      2234.6854
 04  9 16 21 37  0.0010000  0  8G 3G 8G10G13G19G23G27G28
   3444144.29349   2677238.24247  23304263.4424   23304262.1424
     -2153.6464
  -3448220.44549  -2681577.49247  21642773.4894   21642772.1534
      1061.9534
  -1322253.63349  -1030292.52747  23907169.7864   23907169.2354
       258.9054
   4911344.79349   3814982.86748  21030761.2244   21030759.4704
     -2599.1994
  -2507352.60249  -1950367.09447  22708346.8564   22708344.4544
       305.7204
  10163904.12949   7892103.23847  23723243.9034   23723243.2164
     -4285.1644
   -381271.34049   -299302.34848  21082640.8254   21082639.0834
      -108.8764
  -3617784.09849  -2814592.76647  23620320.2244   23620319.3374
      2230.9034
 04  9 16 21 37 15.0010000  0  8G 3G 8G10G13G19G23G27G28
   3476585.27349   2702516.93047  23310435.9274   23310435.4744
     -2162.7324
  -3464102.88749  -2693953.41047  21639751.3104   21639749.9074
      1058.8294
  -1325998.70349  -1033210.75047  23906456.2004   23906456.4234
       249.6714
   4950450.38349   3845454.73448  21038202.8564   21038201.2594
     -2607.0394
  -2511810.79749  -1953840.98447  22707498.4664   22707495.9784
       297.2134
  10228231.60549   7942228.46547  23735484.9974   23735483.4934
     -4288.4984
   -379593.68449   -297995.08248  21082959.8414   21082958.4034
      -111.8444
  -3651193.26249  -2840625.83646  23613962.4274   23613961.5524
      2227.2784
 04  9 16 21 37 30.0010000  0  8G 3G 8G10G13G19G23G27G28
   3509161.75849   2727901.19147  23316634.6064   23316634.4744
     -2171.7664
  -3479938.69949  -2706293.00047  21636737.5214   21636736.4504
      1055.7214
  -1329605.69949  -1036021.39146  23905770.3174   23905769.9274
       240.4664
   4989672.84849   3876017.68048  21045666.8254   21045664.8684
     -2614.8314
  -2516141.63749  -1957215.63347  22706674.1144   22706671.9154
       288.7234
  10292608.34049   7992392.07847  23747734.8804   23747734.5364
     -4291.7824
   -377871.98049   -296653.48848  21083287.9194   21083286.2394
      -114.7804
  -3684548.38749  -2866616.78147  23607615.0994   23607614.0954
      2223.6754
 04  9 16 21 37 45.0010000  0  8G 3G 8G10G13G19G23G27G28
   3541874.17649   2753391.38747  23322859.4504   23322859.9194
     -2180.8284
  -3495727.40649  -2718595.88347  21633733.2084   21633731.9624
      1052.5804
  -1333074.02349  -1038723.95747  23905109.8884   23905109.8374
       231.2224
   5029012.72749   3906672.12148  21053152.7244   21053151.4744
     -2622.6594
  -2520344.38749  -1960490.46947  22705874.6144   22705871.6854
       280.1834
  10357034.59049   8042594.27047  23759995.2714   23759993.7904
     -4295.0834
   -376105.66049   -295277.13748  21083623.9114   21083622.2984
      -117.7554
  -3717848.78549  -2892565.08247  23601277.8964   23601277.2044
      2220.0274
 04  9 16 21 38  0.0010000  0  8G 3G 8G10G13G19G23G27G28
   3574723.79349   2778988.46547  23329110.5604   23329110.7244
     -2189.9744
  -3511467.47749  -2730860.86347  21630737.6614   21630736.6224
      1049.3384
  -1336401.98449  -1041317.18046  23904477.5754   23904477.1034
       221.8644
   5068471.41849   3937419.13348  21060661.8414   21060659.9934
     -2630.5794
  -2524417.40649  -1963664.21147  22705099.2474   22705096.9504
       271.5354
  10421511.55549   8092835.98047  23772264.7554   23772263.1964
     -4298.4644
   -374293.21149   -293864.83648  21083968.7474   21083966.6734
      -120.8304
  -3751092.89849  -2918469.53547  23594951.3564   23594951.3724
      2216.2744
 04  9 16 21 38 15.0010000  0  8G 3G 8G10G13G19G23G27G28
   3607709.35949   2804691.49647  23335387.9424   23335387.8804
     -2199.0384
  -3527159.96949  -2743088.77047  21627751.9744   21627750.8884
      1046.1664
  -1339590.74649  -1043801.92646  23903870.8104   23903869.7124
       212.5844
   5108047.67649   3968257.75448  21068192.8964   21068191.3844
     -2638.4174
  -2528361.53549  -1966737.54747  22704348.7864   22704346.4384
       262.9424
  10486037.87549   8143116.15646  23784543.2554   23784542.1734
     -4301.7554
   -372435.57049   -292417.32048  21084322.3644   21084320.5324
      -123.8434
  -3784281.79349  -2944330.94947  23588636.2944   23588636.0054
      2212.5934
 04  9 16 21 38 30.0010000  0  8G 3G 8G10G13G19G23G27G28
   3640831.44549   2830500.91047  23341690.9504   23341690.7124
     -2208.1394
  -3542804.04749  -2755278.95347  21624774.8884   21624773.4974
      1042.9394
  -1342639.38349  -1046177.46946  23903290.3334   23903289.3684
       203.2424
   5147742.06649   3999188.43448  21075746.4744   21075744.7004
     -2646.2934
  -2532176.02049  -1969709.84847  22703623.1614   22703619.8724
       254.2994
  10550614.19149   8193435.29347  23796832.4424   23796830.7714
     -4305.0884
   -370532.02049   -290934.03148  21084684.2474   21084682.4154
      -126.9034
  -3817414.39849  -2970148.51647  23582331.0994   23582331.3254
      2208.8404
 04  9 16 21 38 45.0010000  0  8G 3G 8G10G13G19G23G27G28
   3674093.69549   2856419.53547  23348019.9894   23348020.7394
     -2217.4834
  -3558395.77749  -2767428.33647  21621807.4664   21621806.3884
      1039.4494
  -1345543.98449  -1048440.78146  23902737.6774   23902736.7004
       193.6404
   5187558.37949   4030214.11748  21083323.3254   21083321.2314
     -2654.4214
  -2535856.62549  -1972577.80147  22702922.6614   22702919.7084
       245.3744
  10615243.95349   8243796.06647  23809131.3024   23809129.8454
     -4308.6514
   -368578.72749   -289411.98448  21085056.2864   21085054.1654
      -130.2204
  -3850486.69549  -2995919.07847  23576037.8334   23576037.8534
      2204.8204
 04  9 16 21 39  0.0010000  0  8G 3G 8G10G13G19G23G27G28
   3707493.93849   2882445.67247  23354376.8104   23354376.4854
     -2226.6834
  -3573936.87949  -2779538.28548  21618850.4814   21618849.2784
      1036.0734
  -1348306.40649  -1050593.33246  23902212.5284   23902210.9934
       184.1614
   5227494.45349   4061333.11348  21090922.9894   21090921.2944
     -2662.4054
  -2539405.13749  -1975342.84847  22702247.4974   22702244.9354
       236.5674
  10679924.96149   8294196.77347  23821439.9194   23821438.0564
     -4312.0674
   -366577.50849   -287852.59048  21085436.8024   21085435.3684
      -133.4154
  -3883500.59849  -3021644.15247  23569755.0754   23569755.3884
      2200.9274
 04  9 16 21 39 15.0010000  0  8G 3G 8G10G13G19G23G27G28
   3741030.30949   2908577.90647  23360758.3644   23360758.1464
     -2235.7584
  -3589429.35949  -2791610.33247  21615902.1534   21615900.8564
      1032.8324
  -1350928.39849  -1052636.43447  23901712.9114   23901712.2984
       174.7994
   5267548.41849   4092543.98048  21098544.8964   21098542.9624
     -2670.2644
  -2542823.16449  -1978006.21947  22701597.0834   22701594.4074
       227.8684
  10744655.35949   8344635.96947  23833757.5524   23833756.0794
     -4315.3604
   -364530.10949   -286257.20748  21085826.4114   21085825.0444
      -136.4934
  -3916457.78549  -3047325.00447  23563483.7714   23563484.2284
      2197.1464
 04  9 16 21 39 30.0010000  0  8G 3G 8G10G13G19G23G27G28
   3774702.80949   2934816.21547  23367166.5914   23367165.5834
     -2244.8334
  -3604873.05549  -2803644.37147  21612963.4664   21612962.1464
      1029.5804
  -1353409.59449  -1054569.83246  23901240.8884   23901239.9664
       165.4134
   5307720.31649   4123846.74248  21106189.5364   21106187.7514
     -2678.1274
  -2546110.36349  -1980567.63347  22700971.7314   22700968.5054
       219.1474
  10809435.02749   8395113.56347  23846084.8334   23846083.5014
     -4318.6454
   -362436.39549   -284625.74648  21086224.8724   21086223.3104
      -139.5814
  -3949357.85249  -3072961.36347  23557223.3024   23557223.2004
      2193.3384
 04  9 16 21 39 45.0010000  0  8G 3G 8G10G13G19G23G27G28
   3808511.17649   2961160.37147  23373599.7004   23373599.4544
     -2253.8914
  -3620267.70749  -2815640.20347  21610033.7084   21610032.6814
      1026.3104
  -1355750.04749  -1056393.56646  23900794.5134   23900794.2634
       156.0304
   5348010.09049   4155241.36348  21113856.1614   21113854.4974
     -2685.9854
  -2549266.59049  -1983026.99247  22700370.4664   22700367.9584
       210.4154
  10874263.58649   8445629.25447  23858421.2784   23858419.7204
     -4321.9044
   -360296.14849   -282958.01648  21086631.9894   21086630.3494
      -142.6834
  -3982200.70749  -3098553.14547  23550973.5364   23550973.1464
      2189.5244
 04  9 16 21 40  0.0010000  0  8G 3G 8G10G13G19G23G27G28
   3842455.46149   2987610.46147  23380059.1224   23380058.9894
     -2262.9524
  -3635613.08649  -2827597.63748  21607113.7004   21607112.5954
      1023.0254
  -1357949.47349  -1058107.39146  23900376.9974   23900375.9114
       146.6284
   5388417.80549   4186727.87948  21121545.6384   21121543.5604
     -2693.8484
  -2552291.41449  -1985383.97747  22699794.9194   22699792.0134
       201.6554
  10939141.06349   8496183.04747  23870767.1144   23870765.6464
     -4325.1654
   -358109.27349   -281253.96548  21087048.4894   21087046.3684
      -145.7924
  -4014986.03949  -3124100.10547  23544734.3884   23544734.2124
      2185.6894
 04  9 16 21 40 15.0010000  0  8G 3G 8G10G13G19G23G27G28
   3876534.04349   3014165.20347  23386544.0524   23386544.0674
     -2271.9054
  -3650910.71549  -2839517.85947  21604202.6534   21604201.1924
      1019.8424
  -1360009.16049  -1059712.35246  23899985.1144   23899984.0994
       137.3134
   5428941.84849   4218305.03948  21129257.2634   21129255.2634
     -2701.6034
  -2555186.05949  -1987639.51647  22699244.1144   22699241.2514
       192.9764
  11004065.88749   8546773.75047  23883121.8564   23883121.0634
     -4328.3224
   -355877.12149   -279514.62148  21087473.3414   21087471.6144
      -148.8104
  -4047715.07449  -3149603.20347  23538506.4034   23538506.2004
      2181.9364
 04  9 16 21 40 30.0010000  0  8G 3G 8G10G13G19G23G27G28
   3910747.86749   3040825.31647  23393055.1224   23393054.6424
     -2280.9224
  -3666159.40649  -2851399.95747  21601300.8724   21601299.3724
      1016.5794
  -1361928.01249  -1061207.55146  23899619.6534   23899618.3374
       127.9234
   5469583.16449   4249973.58648  21136990.9504   21136989.0954
     -2709.4214
  -2557949.39149  -1989792.73447  22698718.4664   22698715.5954
       184.2224
  11069038.81349   8597401.91047  23895485.4744   23895485.2244
     -4331.5284
   -353598.62949   -277739.17248  21087906.5134   21087905.0444
      -151.8994
  -4080386.65249  -3175061.50047  23532289.1534   23532288.9034
      2178.1054
 04  9 16 21 40 45.0010000  0  8G 3G 8G10G13G19G23G27G28
   3945098.68049   3067592.18447  23399591.2714   23399591.5634
     -2290.0544
  -3681357.23049  -2863242.40648  21598409.1854   21598407.7204
      1013.1884
  -1363704.09849  -1062591.52346  23899281.7784   23899280.5914
       118.4064
   5510343.58249   4281734.93448  21144747.1304   21144745.7204
     -2717.3614
  -2560579.25049  -1991841.93747  22698218.1614   22698215.0874
       175.3244
  11134061.47749   8648068.82447  23907859.1854   23907858.2394
     -4334.8444
   -351271.72349   -275925.99248  21088349.3174   21088347.9114
      -155.1274
  -4112998.75849  -3200473.48847  23526083.1384   23526083.3104
      2174.1404
 04  9 16 21 41  0.0010000  0  8G 3G 8G10G13G19G23G27G28
   3979583.86349   3094463.74647  23406153.3254   23406153.6224
     -2299.0124
  -3696506.42649  -2875046.96148  21595525.9274   21595524.6064
      1009.9464
  -1365339.77049  -1063866.05946  23898970.2164   23898969.4744
       109.0454
   5551220.61749   4313587.16048  21152525.9424   21152524.3994
     -2725.1364
  -2563077.80549  -1993788.83247  22697742.5914   22697739.7394
       166.5704
  11199131.27749   8698772.48447  23920241.8494   23920240.7984
     -4337.9874
   -348898.73049   -274076.91448  21088801.2784   21088799.4074
      -158.1994
  -4145553.46549  -3225840.73847  23519888.5674   23519887.3454
      2170.3144
 04  9 16 21 41 15.0010000  0  8G 3G 8G10G13G19G23G27G28
   4014206.17649   3121442.16047  23412742.4114   23412742.0284
     -2308.1544
  -3711603.98049  -2886811.28547  21592653.2554   21592651.7164
      1006.5044
  -1366831.89849  -1065028.75846  23898686.6224   23898685.5874
        99.4754
   5592217.11749   4345532.46548  21160327.5524   21160325.8254
     -2733.1004
  -2565441.83649  -1995630.91847  22697292.2634   22697289.8214
       157.6024
  11264250.94149   8749514.99247  23932633.8644   23932632.4624
     -4341.3114
   -346476.68049   -272189.60248  21089261.9194   21089260.1424
      -161.4704
  -4178047.82049  -3251160.95747  23513704.4744   23513704.1814
      2166.2904
 04  9 16 21 41 30.0010000  0  8G 3G 8G10G13G19G23G27G28
   4048959.50049   3148522.66047  23419354.9034   23419355.6304
     -2316.8884
  -3726655.75849  -2898539.93447  21589789.0604   21589787.4504
      1003.4524
  -1368186.38749  -1066084.19147  23898429.0914   23898428.0244
        90.2994
   5633326.80949   4377565.98848  21168150.6614   21168148.3764
     -2740.6464
  -2567677.27349  -1997372.78547  22696866.7164   22696864.3414
       149.0294
  11329414.14849   8800291.41447  23945033.3414   23945033.1464
     -4344.2144
   -344011.54349   -270268.71548  21089731.0604   21089729.6144
      -164.3424
  -4210487.65649  -3276438.69547  23507531.1144   23507530.8724
      2162.6564
 04  9 16 21 41 45.0010000  0  8G 3G 8G10G13G19G23G27G28
   4083845.85249   3175706.84047  23425993.8174   23425993.9074
     -2325.7574
  -3741659.44549  -2910231.11347  21586934.1144   21586932.6614
      1000.2464
  -1369400.97349  -1067030.62546  23898197.8334   23898196.8454
        80.9724
   5674551.80149   4409689.33648  21175995.1614   21175993.5014
     -2748.3334
  -2569781.75049  -1999012.61347  22696466.9354   22696463.9314
       140.2984
  11394622.99249   8851103.42647  23957442.7944   23957442.3414
     -4347.2564
   -341500.97749   -268312.42648  21090208.6534   21090207.2244
      -167.3714
  -4242870.55149  -3301672.05547  23501369.1694   23501368.6964
      2158.8604
 04  9 16 21 42  0.0010000  0  8G 3G 8G10G13G19G23G27G28
   4118867.78149   3202996.63747  23432658.6694   23432658.2434
     -2334.7954
  -3756612.46549  -2921882.80947  21584088.2714   21584087.2474
       996.8684
  -1370472.75049  -1067865.75046  23897993.5754   23897992.6034
        71.4524
   5715894.86349   4441904.69548  21183862.6384   21183860.4314
     -2756.2044
  -2571752.19949  -2000548.00447  22696091.9354   22696089.0324
       131.3634
  11459880.04749   8901952.98847  23969860.7784   23969859.9074
     -4350.4704
   -338942.23049   -266318.59848  21090695.4424   21090693.9034
      -170.5834
  -4275193.60549  -3326858.81647  23495218.5914   23495218.0014
      2154.8704
 04  9 16 21 42 15.0010000  0  8G 3G 8G10G13G19G23G27G28
   4154023.68849   3230390.85247  23439348.4194   23439348.7354
     -2343.7274
  -3771516.05149  -2933495.98047  21581252.2714   21581251.0634
       993.5724
  -1371403.08649  -1068590.71147  23897816.7554   23897815.7514
        62.0224
   5757354.48049   4474210.87148  21191751.9114   21191750.0404
     -2763.9744
  -2573589.89549  -2001979.94547  22695741.6304   22695739.4744
       122.5134
  11525183.64149   8952838.80947  23982287.7164   23982287.1224
     -4353.5734
   -336336.54349   -264288.18748  21091191.4424   21091189.9194
      -173.7124
  -4307458.06249  -3351999.89847  23489078.2244   23489077.3994
      2150.9644
 04  9 16 21 42 30.0010000  0  8G 3G 8G10G13G19G23G27G28
   4189313.92649   3257889.72347  23446064.0214   23446063.8764
     -2352.6834
  -3786369.44949  -2945070.05547  21578425.7634   21578424.4974
       990.2274
  -1372191.44949  -1069205.00846  23897666.3564   23897666.1734
        52.5584
   5798930.93049   4506608.09048  21199663.8964   21199662.1344
     -2771.7634
  -2575294.16449  -2003307.93447  22695417.4504   22695415.0524
       113.6184
  11590533.98049   9003761.06647  23994723.5444   23994722.9464
     -4356.6894
   -333683.34449   -262220.76648  21091696.2864   21091694.5754
      -176.8804
  -4339663.42249  -3377094.91447  23482949.6614   23482949.6104
      2147.0244
 04  9 16 21 42 45.0010000  0  8G 3G 8G10G13G19G23G27G28
   4224738.83649   3285493.55547  23452804.7634   23452804.9504
     -2361.6614
  -3801172.16449  -2956604.61347  21575608.6854   21575607.5054
       986.8484
  -1372837.27049  -1069708.25446  23897543.8804   23897542.5054
        43.0554
   5840624.60949   4539096.65648  21207597.9974   21207596.1734
     -2779.5794
  -2576864.21549  -2004531.32447  22695118.3964   22695116.0324
       104.6704
  11655931.28549   9054719.89847  24007168.2084   24007167.0874
     -4359.8204
   -330982.15249   -260115.94148  21092210.2394   21092208.7904
      -180.0794
  -4371808.89849  -3402143.28147  23476833.0284   23476831.9544
      2143.0324
 04  9 16 21 43  0.0010000  0  8G 3G 8G10G13G19G23G27G28
   4260301.44549   3313204.66847  23459571.6464   23459571.9934
     -2370.8414
  -3815920.95749  -2968097.18047  21572802.6534   21572801.1104
       983.2534
  -1373337.27049  -1070097.87147  23897449.1694   23897447.3924
        33.3334
   5882438.75449   4571679.09048  21215554.8254   21215553.2594
     -2787.6104
  -2578296.65249  -2005647.48047  22694846.5364   22694843.4464
        95.4964
  11721378.58249   9105717.71947  24019622.5674   24019622.5634
     -4363.1534
   -328229.60549   -257971.09848  21092734.2244   21092732.6184
      -183.5034
  -4403891.05949  -3427142.31647  23470727.3494   23470727.0364
      2138.8114
 04  9 16 21 43 15.0010000  0  8G 3G 8G10G13G19G23G27G28
   4296000.78949   3341022.34847  23466365.7004   23466365.1344
     -2379.9564
  -3830616.59849  -2979548.31647  21570006.0284   21570004.2714
       979.7094
  -1373692.07449  -1070374.34846  23897381.8024   23897380.9074
        23.6544
   5924372.23449   4604354.50848  21223534.3964   21223532.9464
     -2795.5654
  -2579592.17249  -2006656.96547  22694600.0284   22694597.3534
        86.3684
  11786874.98049   9156753.79347  24032085.8254   24032085.5524
     -4366.4274
   -325426.44949   -255786.82848  21093267.5834   21093265.8764
      -186.8774
  -4435910.50449  -3452092.48847  23464634.7714   23464634.0364
      2134.6304
 04  9 16 21 43 30.0010000  0  8G 3G 8G10G13G19G23G27G28
   4331835.46549   3368945.45747  23473185.0214   23473184.3134
     -2388.9784
  -3845260.28549  -2990958.96947  21567219.3254   21567217.6614
       976.2464
  -1373902.88749  -1070538.59846  23897341.1924   23897340.4464
        14.0544
   5966423.82049   4637121.96548  21231536.9424   21231534.7714
     -2803.4394
  -2580751.89549  -2007560.62547  22694379.2084   22694376.1574
        77.3154
  11852418.91049   9207826.87947  24044558.9814   24044558.0834
     -4369.5954
   -322573.85949   -253564.03148  21093810.4424   21093808.6694
      -190.1734
  -4467868.44149  -3476994.71947  23458553.1534   23458552.3254
      2130.5294
 04  9 16 21 43 45.0010000  0  8G 3G 8G10G13G19G23G27G28
   4367805.78949   3396974.28947  23480029.5604   23480029.9744
     -2398.0224
  -3859851.34849  -3002328.61748  21564442.5524   21564440.8804
       972.7374
  -1373969.03549  -1070590.15246  23897328.0284   23897327.7434
         4.4104
   6008593.97749   4669981.81348  21239561.3564   21239559.9504
     -2811.3444
  -2581775.08649  -2008357.91047  22694184.0754   22694181.1104
        68.2134
  11918010.65249   9258937.22347  24057040.6694   24057040.2164
     -4372.7834
   -319671.36349   -251302.34048  21094362.9114   21094361.3684
      -193.5004
  -4499764.28949  -3501848.57447  23452483.4354   23452482.9234
      2126.3904
 04  9 16 21 44  0.0010000  0  8G 3G 8G10G13G19G23G27G28
   4403912.33249   3425109.25447  23486900.9974   23486900.8104
     -2407.1034
  -3874388.88349  -3013656.56248  21561676.1304   21561674.8724
       969.1694
  -1373889.74249  -1070528.34846  23897343.2314   23897342.5364
        -5.2864
   6050883.22349   4702934.45348  21247608.7554   21247607.0524
     -2819.2834
  -2582660.71149  -2009047.98847  22694015.9504   22694012.9314
        59.0424
  11983650.69149   9310085.21547  24069531.3414   24069531.8494
     -4376.0034
   -316717.89549   -249000.93048  21094924.9194   21094923.4784
      -196.8984
  -4531596.87549  -3526653.13747  23446425.8804   23446425.3134
      2122.1724
 04  9 16 21 44 15.0010000  0  8G 3G 8G10G13G19G23G27G28
   4440153.95349   3453349.47347  23493797.7164   23493797.0094
     -2416.1084
  -3888873.63349  -3024943.36747  21558919.8964   21558918.5014
       965.6504
  -1373665.94549  -1070353.96946  23897385.8414   23897385.6424
       -14.9204
   6093290.62149   4735979.15648  21255678.8494   21255676.7314
     -2827.1604
  -2583409.53149  -2009631.45747  22693873.3104   22693870.3564
        49.9214
  12049338.02349   9361270.02347  24082031.6384   24082031.1924
     -4379.1554
   -313714.40649   -246660.55548  21095496.2944   21095494.8724
      -200.2334
  -4563367.11349  -3551409.12147  23440379.7784   23440379.0954
      2118.0164
 04  9 16 21 44 30.0010000  0  8G 3G 8G10G13G19G23G27G28
   4476532.42249   3481696.34047  23500719.4814   23500719.6424
     -2425.2314
  -3903303.81249  -3036187.64847  21556173.8174   21556172.2394
       962.0124
  -1373295.60249  -1070065.38347  23897456.8884   23897455.7744
       -24.6904
   6135817.88349   4769117.27048  21263771.1924   21263769.5674
     -2835.1514
  -2584019.46149  -2010106.71947  22693757.0134   22693754.4784
        40.6624
  12115074.19549   9412492.93447  24094540.3644   24094540.0954
     -4382.4114
   -310658.99649   -244279.70748  21096077.6774   21096075.9234
      -203.6944
  -4595072.97749  -3576114.93747  23434347.0604   23434346.2004
      2113.7244
 04  9 16 21 44 45.0010000  0  8G 3G 8G10G13G19G23G27G28
   4513048.28149   3510150.23047  23507668.3174   23507667.9464
     -2434.3914
  -3917678.54749  -3047388.73847  21553438.3104   21553436.8764
       958.3164
  -1372777.92649  -1069662.00047  23897555.1534   23897554.1344
       -34.5124
   6178465.63349   4802349.26648  21271886.6854   21271885.2674
     -2843.1834
  -2584489.58649  -2010473.02347  22693667.7314   22693664.8684
        31.3424
  12180859.81649   9463754.34047  24107058.6924   24107058.9154
     -4385.7084
   -307550.73849   -241857.69148  21096669.3334   21096667.8174
      -207.2174
  -4626713.58249  -3600769.90247  23428326.2944   23428324.9624
      2109.3744
 04  9 16 21 45  0.0010000  0  8G 3G 8G10G13G19G23G27G28
   4549700.12549   3538710.10247  23514642.7314   23514642.4464
     -2443.4564
  -3931999.04349  -3058547.55147  21550713.4894   21550711.8884
       954.7004
  -1372114.20349  -1069144.80146  23897680.9354   23897680.7554
       -44.2484
   6221232.32049   4835673.94148  21280024.9744   21280023.2784
     -2851.1124
  -2584821.11349  -2010731.34847  22693604.5914   22693601.4544
        22.1024
  12246693.31649   9515053.07846  24119586.4814   24119586.6884
     -4388.9004
   -304390.85549   -239395.44548  21097270.5054   21097268.9074
      -210.6594
  -4658290.07849  -3625374.92247  23422316.4814   23422316.3134
      2105.1004
 04  9 16 21 45 15.0010000  0  8G 3G 8G10G13G19G23G27G28
   4586485.87149   3567374.34047  23521643.1144   23521642.8724
     -2452.3834
  -3946267.27049  -3069665.64147  21547998.3414   21547996.8724
       951.2154
  -1371306.21149  -1068515.20346  23897835.3564   23897834.1494
       -53.8664
   6264116.17249   4869089.91848  21288185.7634   21288184.2004
     -2858.9234
  -2585015.61349  -2010882.89547  22693567.3414   22693564.7004
        12.9674
  12312572.59849   9566387.44946  24132123.6304   24132123.2124
     -4391.9524
   -301181.33249   -236894.51648  21097881.3024   21097880.0054
      -213.9684
  -4689804.16849  -3649931.30147  23416319.8174   23416319.4074
      2100.9394
 04  9 16 21 45 30.0010000  0  8G 3G 8G10G13G19G23G27G28
   4623405.68849   3596143.03147  23528669.2084   23528668.8494
     -2461.3214
  -3960482.39149  -3080742.35248  21545293.2864   21545291.8994
       947.6754
  -1370353.45749  -1067772.79746  23898016.0054   23898015.9784
       -63.5174
   6307117.43449   4902597.37948  21296368.5284   21296366.7204
     -2866.7514
  -2585072.53149  -2010927.22747  22693556.4894   22693554.4664
         3.7954
  12378497.74249   9617757.58646  24144669.2714   24144668.6494
     -4395.0104
   -297921.50849   -234354.39148  21098501.5754   21098500.0244
      -217.3224
  -4721255.35549  -3674438.67247  23410335.1064   23410334.2004
      2096.7464
 04  9 16 21 45 45.0010000  0  8G 3G 8G10G13G19G23G27G28
   4660457.53149   3625014.57047  23535719.5364   23535719.3104
     -2470.1234
  -3974646.49249  -3091779.30948  21542597.7944   21542596.0794
       944.2734
  -1369257.66049  -1066918.93047  23898224.5914   23898224.2554
       -73.0534
   6350234.02749   4936194.69948  21304573.3644   21304571.5484
     -2874.4404
  -2584993.61749  -2010865.72347  22693572.1854   22693569.0914
        -5.2614
  12444466.74249   9669161.89847  24157222.5674   24157222.6574
     -4397.9334
   -294613.12549   -231776.43448  21099131.2474   21099129.7084
      -220.5594
  -4752645.26649  -3698898.30547  23404361.6464   23404360.8374
      2092.6614
 04  9 16 21 46  0.0010000  0  8G 3G 8G10G13G19G23G27G28
   4697643.62149   3653990.74247  23542796.1064   23542795.6854
     -2479.0734
  -3988756.77049  -3102774.32447  21539912.5364   21539911.3494
       940.6854
  -1368016.34849  -1065951.67247  23898460.6384   23898460.2824
       -82.7544
   6393468.39849   4969883.80547  21312800.4584   21312798.5794
     -2882.2914
  -2584776.23049  -2010696.31247  22693612.9974   22693610.4504
       -14.4924
  12510481.85949   9720602.14846  24169784.8174   24169783.9854
     -4401.0084
   -291253.68049   -229158.68048  21099770.5914   21099769.0214
      -223.9634
  -4783971.27049  -3723308.13347  23398400.5214   23398399.5094
      2088.4004
 04  9 16 21 46 15.0010000  0  8G 3G 8G10G13G19G23G27G28
   4734961.82049   3683069.86747  23549896.8884   23549897.3294
     -2487.8804
  -4002815.33249  -3113729.04347  21537237.1924   21537235.7674
       937.2374
  -1366631.43049  -1064872.52346  23898724.2244   23898724.1694
       -92.3284
   6436818.02349   5003662.71148  21321049.7634   21321048.0014
     -2889.9754
  -2584422.18049  -2010420.41447  22693680.3254   22693678.0954
       -23.6034
  12576540.85549   9772076.58647  24182355.8024   24182354.6344
     -4403.9334
   -287845.21149   -226502.73448  21100418.9584   21100417.4194
      -227.2314
  -4815235.22349  -3747669.60547  23392451.1854   23392450.3134
      2084.2644
 04  9 16 21 46 30.0010000  0  8G 3G 8G10G13G19G23G27G28
   4772410.92649   3712250.97347  23557023.4274   23557023.2354
     -2496.6074
  -4016822.95749  -3124644.06247  21534571.9274   21534570.2474
       933.8424
  -1365103.90649  -1063682.25447  23899014.9274   23899014.5674
      -101.8354
   6480281.98049   5037530.71148  21329320.5834   21329318.9194
     -2897.5974
  -2583932.25849  -2010038.64147  22693773.5284   22693770.9424
       -32.6614
  12642642.44949   9823584.19547  24194934.8884   24194934.6734
     -4406.7734
   -284388.54749   -223809.22348  21101076.8334   21101075.0014
      -230.4444
  -4846437.89549  -3771983.32847  23386512.9584   23386512.4154
      2080.1784
 04  9 16 21 46 45.0010000  0  8G 3G 8G10G13G19G23G27G28
   4809988.74649   3741532.38747  23564174.4424   23564174.1464
     -2505.1884
  -4030781.67649  -3135520.98047  21531915.5524   21531914.0524
       930.5814
  -1363435.82049  -1062382.43747  23899332.9424   23899331.7124
      -111.2064
   6523858.36349   5071486.31648  21337613.1384   21337611.5244
     -2905.0924
  -2583308.29349  -2009552.41847  22693892.4744   22693889.5174
       -41.5984
  12708784.41449   9875123.28147  24207520.8804   24207520.2004
     -4409.4644
   -280885.79749   -221079.80948  21101743.4424   21101741.5834
      -233.5174
  -4877581.34849  -3796250.91847  23380587.1144   23380586.1464
      2076.2304
 04  9 16 21 47  0.0010000  0  8G 3G 8G10G13G19G23G27G28
   4847695.31349   3770914.10947  23571350.1854   23571349.4464
     -2513.7714
  -4044691.15249  -3146359.52347  21529268.6694   21529267.5564
       927.2984
  -1361626.64849  -1060972.69146  23899677.1064   23899676.0214
      -120.6114
   6567547.34849   5105529.66448  21345926.7164   21345925.2244
     -2912.5994
  -2582549.87549  -2008961.43447  22694036.7554   22694033.6574
       -50.5614
  12774966.85949   9926693.94546  24220115.3104   24220114.6464
     -4412.1634
   -277336.23449   -218313.90648  21102418.9584   21102416.9424
      -236.6374
  -4908664.93449  -3820471.84847  23374671.7554   23374671.6144
      2072.2394
 04  9 16 21 47 15.0010000  0  8G 3G 8G10G13G19G23G27G28
   4885531.98849   3800397.22347  23578549.4354   23578549.5634
     -2522.4454
  -4058549.80149  -3157158.46948  21526631.5604   21526630.0244
       923.9104
  -1359675.04349  -1059451.94946  23900048.1144   23900047.9504
      -130.1074
   6611350.03549   5139661.62548  21354262.3804   21354260.7244
     -2920.1794
  -2581655.44949  -2008264.46547  22694207.3254   22694204.0954
       -59.6284
  12841190.92249   9978297.03547  24232717.4274   24232716.0444
     -4414.9374
   -273738.73449   -215510.66448  21103103.6304   21103101.5794
      -239.8334
  -4939687.25849  -3844645.03147  23368769.0134   23368768.2434
      2068.1554
 04  9 16 21 47 30.0010000  0  8G 3G 8G10G13G19G23G27G28
   4923498.23449   3829981.29747  23585774.6064   23585774.2044
     -2531.0834
  -4072357.81649  -3167917.95348  21524003.8564   21524002.5634
       920.5344
  -1357581.12549  -1057820.34046  23900446.8414   23900446.7394
      -139.5954
   6655266.04749   5173881.88348  21362619.2714   21362617.7634
     -2927.7344
  -2580625.07449  -2007461.55547  22694402.8334   22694399.9814
       -68.6924
  12907456.13349  10029932.16446  24245327.2314   24245326.3374
     -4417.6814
   -270093.20349   -212669.98448  21103796.9584   21103795.5714
      -243.0354
  -4970648.33649  -3868770.49247  23362876.5834   23362875.9074
      2064.0724
 04  9 16 21 47 45.0010000  0  8G 3G 8G10G13G19G23G27G28
   4961594.38749   3859666.58647  23593024.2004   23593024.1424
     -2539.7434
  -4086114.49649  -3178637.43448  21521385.9114   21521384.6264
       917.1124
  -1355344.44949  -1056077.46947  23900872.4034   23900871.9464
      -149.1124
   6699295.77349   5208190.73848  21370997.7004   21370996.3494
     -2935.3154
  -2579458.11749  -2006552.21947  22694624.8254   22694622.3104
       -77.7974
  12973762.80949  10081599.58646  24257944.4034   24257945.4234
     -4420.4454
   -266399.20349   -209791.54348  21104500.0214   21104498.3884
      -246.2674
  -5001547.56249  -3892847.77047  23356996.8024   23356996.0244
      2059.9484
 04  9 16 21 48  0.0010000  0  8G 3G 8G10G13G19G23G27G28
   4999819.96149   3889452.73847  23600297.7554   23600298.1654
     -2548.3724
  -4099820.19149  -3189317.19148  21518778.0284   21518776.3374
       913.7134
  -1352965.12549  -1054223.44947  23901325.2244   23901324.9784
      -158.6224
   6743438.79749   5242587.88747  21379397.8334   21379396.0914
     -2942.8684
  -2578154.54349  -2005536.43747  22694873.0674   22694870.2124
       -86.9054
  13040110.42649  10133298.92646  24270570.8804   24270570.8414
     -4423.1744
   -262656.78149   -206875.37148  21105212.2474   21105210.3564
      -249.4954
  -5032385.05949  -3916876.94547  23351128.2244   23351127.8024
      2055.8334
 04  9 16 21 48 15.0010000  0  8G 3G 8G10G13G19G23G27G28
   5038174.48849   3919339.36347  23607597.3174   23607596.4544
     -2556.9684
  -4113474.89149  -3199957.20748  21516179.3104   21516178.5444
       910.3134
  -1350443.41449  -1052258.50047  23901805.8174   23901804.9464
      -168.1144
   6787694.69149   5277072.99648  21387819.5214   21387817.9154
     -2950.3934
  -2576714.41049  -2004414.23047  22695146.7784   22695144.3604
       -96.0094
  13106498.45749  10185029.75047  24283204.0284   24283203.7944
     -4425.8694
   -258866.13349   -203921.61348  21105933.5604   21105931.8064
      -252.7104
  -5063160.86349  -3940858.05147  23345272.3644   23345271.3884
      2051.7204
 04  9 16 21 48 30.0010000  0  8G 3G 8G10G13G19G23G27G28
   5076657.75849   3949326.30547  23614919.7634   23614919.1694
     -2565.5514
  -4127078.78949  -3210557.64848  21513590.8724   21513589.2714
       906.9274
  -1347779.44549  -1050182.67647  23902312.1224   23902312.0674
      -177.5984
   6832063.23849   5311645.86348  21396262.5444   21396261.2634
     -2957.9034
  -2575137.88349  -2003185.75447  22695446.9424   22695444.2354
      -105.1024
  13172926.45749  10236791.74246  24295844.1224   24295844.6614
     -4428.5334
   -255027.47349   -200930.44948  21106663.8724   21106662.6924
      -255.9114
  -5093875.06649  -3964791.14847  23339426.9504   23339426.6064
      2047.6144
 04  9 16 21 48 45.0010000  0  8G 3G 8G10G13G19G23G27G28
   5115267.32049   3979411.64546  23622267.6694   23622266.3174
     -2573.9714
  -4140633.97749  -3221120.12147  21511011.4664   21511010.3764
       903.6794
  -1344975.16849  -1047997.51247  23902845.9974   23902844.9314
      -186.9524
   6876542.16849   5346304.75048  21404726.4584   21404725.0324
     -2965.2624
  -2573426.90249  -2001852.50047  22695772.7714   22695770.1734
      -114.0654
  13239392.32049  10288583.19546  24308493.0754   24308492.5604
     -4431.0584
   -251142.71549   -197903.37148  21107403.2714   21107401.6774
      -258.9844
  -5124529.51249  -3988677.68447  23333594.0364   23333593.5604
      2043.6304
 04  9 16 21 49  0.0010000  0  8G 3G 8G10G13G19G23G27G28
   5154004.73849   4009596.65246  23629638.6924   23629637.8884
     -2582.4954
  -4154138.44549  -3231643.07848  21508441.7784   21508440.3334
       900.2984
  -1342028.73849  -1045701.59447  23903406.4744   23903406.0284
      -196.4294
   6921133.21549   5381051.00048  21413211.9894   21413210.4814
     -2972.7364
  -2571579.43449  -2000412.90247  22696123.8804   22696121.1034
      -123.1654
  13305897.50849  10340405.31646  24321148.8104   24321148.6304
     -4433.6794
   -247210.01649   -194838.91848  21108152.0754   21108150.0794
      -262.1804
  -5155122.27749  -4012516.14847  23327772.1924   23327771.4114
      2039.5184
 04  9 16 21 49 15.0010000  0  8G 3G 8G10G13G19G23G27G28
   5192868.27049   4039879.90247  23637034.1224   23637033.9384
     -2590.9024
  -4167593.78149  -3242127.75047  21505881.0524   21505879.7124
       897.0224
  -1338941.88349  -1043296.25447  23903993.4664   23903993.0284
      -205.7904
   6965834.51649   5415883.17247  21421718.4974   21421716.6184
     -2980.0874
  -2569596.95749  -1998868.09447  22696501.3564   22696498.4584
      -132.1654
  13372440.13749  10392256.60246  24333811.2244   24333811.2864
     -4436.1754
   -243230.94949   -191738.34448  21108908.8174   21108907.1814
      -265.2714
  -5185654.98849  -4036307.84447  23321962.1534   23321960.9034
      2035.5144
 04  9 16 21 49 30.0010000  0  8G 3G 8G10G13G19G23G27G28
   5231859.36349   4070262.53947  23644453.8724   23644453.8964
     -2599.4064
  -4180998.10249  -3252572.67248  21503329.9424   21503328.7784
       893.6214
  -1335712.76249  -1040780.04347  23904608.3254   23904607.3564
      -215.2754
   7010647.74649   5450802.55547  21430245.9274   21430244.2474
     -2987.5494
  -2567477.55549  -1997216.59047  22696904.5674   22696902.0214
      -141.2934
  13439021.71549  10444138.25446  24346482.0914   24346480.7284
     -4438.7724
   -239203.60249   -188600.15248  21109675.0214   21109673.5754
      -268.4904
  -5216125.83249  -4060051.31247  23316163.3494   23316163.2984
      2031.3904
 04  9 16 21 49 45.0010000  0  8G 3G 8G10G13G19G23G27G28
   5270977.27349   4100744.00446  23651897.2714   23651897.2714
     -2607.8614
  -4194351.73449  -3262978.09048  21500789.0674   21500787.7944
       890.2424
  -1332341.88349  -1038153.38347  23905249.4274   23905249.0914
      -224.7254
   7055572.24249   5485808.62947  21438794.9504   21438793.1224
     -2994.9664
  -2565221.68749  -1995458.75847  22697333.8254   22697331.1884
      -150.3914
  13505641.45349  10496049.63346  24359158.0604   24359157.6924
     -4441.3164
   -235128.46949   -185424.72348  21110450.5754   21110449.2744
      -271.6764
  -5246534.96549  -4083746.70747  23310376.6464   23310375.9744
      2027.2764
 04  9 16 21 50  0.0010000  0  8G 3G 8G10G13G19G23G27G28
   5310221.09049   4131323.57847  23659365.5754   23659365.4504
     -2616.2544
  -4207655.59049  -3273344.71948  21498257.6924   21498256.6224
       886.9244
  -1328829.78149  -1035416.68447  23905918.2944   23905917.3534
      -234.1404
   7100607.16449   5520900.75847  21447364.8964   21447363.3414
     -3002.3284
  -2562829.88749  -1993595.00047  22697789.3254   22697786.8254
      -159.4534
  13572298.49649  10547990.06346  24371843.8024   24371843.3254
     -4443.8034
   -231006.23849   -182212.59448  21111234.8254   21111233.5484
      -274.8154
  -5276882.95749  -4107394.43447  23304602.0754   23304601.1104
      2023.1994
 04  9 16 21 50 15.0010000  0  8G 3G 8G10G13G19G23G27G28
   5349591.53549   4162001.84447  23666857.9034   23666857.0914
     -2624.6964
  -4220908.59049  -3283671.72748  21495735.5604   21495734.2744
       883.5334
  -1325175.61349  -1032569.26247  23906613.3724   23906613.2514
      -243.6114
   7145752.98049   5556079.30548  21455955.7554   21455954.1034
     -3009.7214
  -2560301.17249  -1991624.55547  22698270.0134   22698267.6814
      -168.5814
  13638993.26649  10599959.89846  24384535.3024   24384535.2594
     -4446.3184
   -226836.00849   -178963.06248  21112028.6534   21112027.1104
      -278.0154
  -5307169.03949  -4130993.93747  23298838.5054   23298838.0994
      2019.0724
 04  9 16 21 50 30.0010000  0  8G 3G 8G10G13G19G23G27G28
   5389088.27049   4192778.48847  23674373.9974   23674373.3494
     -2633.1164
  -4234110.94549  -3293959.27748  21493223.0754   21493221.9034
       880.1574
  -1321379.63349  -1029611.37147  23907336.1064   23907334.9114
      -253.0654
   7191009.51249   5591344.11748  21464567.7244   21464566.0444
     -3017.1024
  -2557635.63749  -1989547.49647  22698777.6774   22698774.5604
      -177.7024
  13705725.47349  10651958.89546  24397233.3334   24397234.3254
     -4448.8144
   -222617.87149   -175676.20748  21112831.6304   21112829.7204
      -281.2094
  -5337392.93049  -4154544.97747  23293086.7864   23293086.0634
      2014.9264
 04  9 16 21 50 45.0010000  0  8G 3G 8G10G13G19G23G27G28
   5428713.28949   4223655.09047  23681913.8024   23681913.9704
     -2641.6684
  -4247260.12949  -3304205.38748  21490720.9274   21490719.8994
       876.6124
  -1317439.64549  -1026541.25447  23908085.5674   23908084.4784
      -262.6664
   7236378.85949   5626696.84447  21473201.8334   21473199.9784
     -3024.6234
  -2554830.85549  -1987361.94547  22699311.2864   22699308.5634
      -186.9854
  13772497.13749  10703988.64547  24409939.7714   24409940.7354
     -4451.4444
   -218349.33649   -172350.07048  21113643.4504   21113641.9504
      -284.5694
  -5367552.21549  -4178045.68047  23287347.7164   23287346.7784
      2010.6194
 04  9 16 21 51  0.0010000  0  8G 3G 8G10G13G19G23G27G28
   5468464.07049   4254629.70347  23689478.5914   23689478.4544
     -2650.0524
  -4260358.35549  -3314411.78548  21488228.1854   21488227.2084
       873.2154
  -1313357.70749  -1023360.52747  23908862.4034   23908861.3924
      -272.1294
   7281858.66849   5662135.64548  21481855.9814   21481854.5174
     -3031.9874
  -2551888.80149  -1985069.41847  22699871.4114   22699868.3494
      -196.1374
  13839305.80149  10756047.18046  24422652.5214   24422654.0674
     -4453.9114
   -214032.59049   -168986.37148  21114465.0284   21114463.7004
      -287.7834
  -5397649.14549  -4201497.79747  23281620.4424   23281619.6614
      2006.4624
 04  9 16 21 51 15.0010000  0  8G 3G 8G10G13G19G23G27G28
   5508341.30149   4285702.84046  23697066.9974   23697066.7434
     -2658.4824
  -4273404.78949  -3324577.83248  21485745.9274   21485744.6534
       869.7624
  -1309132.93449  -1020068.48847  23909666.4504   23909665.0674
      -281.6524
   7327449.54349   5697660.98847  21490531.3334   21490530.4934
     -3039.3924
  -2548808.63349  -1982669.27347  22700457.1854   22700454.5954
      -205.3454
  13906152.01649  10808134.99247  24435374.0134   24435374.0874
     -4456.4144
   -209666.80149   -165584.45348  21115295.8334   21115294.6924
      -291.0534
  -5427682.82449  -4224900.61747  23275905.3564   23275904.8804
      2002.2454
 04  9 16 21 51 30.0010000  0  8G 3G 8G10G13G19G23G27G28
   5548344.51249   4316874.13347  23704679.0914   23704678.9194
     -2666.8814
  -4286399.66849  -3334703.70348  21483272.9194   21483271.8064
       866.3254
  -1304765.73449  -1016665.47747  23910498.4974   23910496.8564
      -291.1474
   7373151.08249   5733272.56348  21499228.2474   21499227.0444
     -3046.7694
  -2545590.42249  -1980161.55147  22701069.5524   22701066.9074
      -214.5474
  13973035.30849  10860251.68046  24448100.7784   24448101.5874
     -4458.8864
   -205252.18749   -162144.49248  21116135.3804   21116134.6654
      -294.3084
  -5457653.45749  -4248254.32447  23270202.1224   23270201.0714
      1998.0424
 04  9 16 21 51 45.0010000  0  8G 3G 8G10G13G19G23G27G28
   5588473.87149   4348143.75447  23712316.5054   23712314.7674
     -2675.2914
  -4299342.37949  -3344788.92648  21480809.9354   21480808.6964
       862.8474
  -1300255.51249  -1013151.00047  23911355.5914   23911355.2744
      -300.6824
   7418963.68049   5768970.67648  21507945.9814   21507944.4814
     -3054.1734
  -2542233.47749  -1977545.74247  22701708.4354   22701705.7244
      -223.7964
  14039955.84449  10912397.42647  24460835.3414   24460836.8254
     -4461.3694
   -200788.12549   -158666.00448  21116985.7084   21116983.9934
      -297.6044
  -5487560.39149  -4271558.39547  23264510.8334   23264510.0834
      1993.7964
 04  9 16 21 52  0.0010000  0  8G 3G 8G10G13G19G23G27G28
   5628728.28949   4379510.79347  23719976.2554   23719974.8564
     -2683.6284
  -4312233.78949  -3354834.17648  21478357.1224   21478355.9074
       859.4274
  -1295603.14849  -1009525.77347  23912240.7474   23912240.8604
      -310.1584
   7464886.27749   5804754.50048  21516684.9974   21516683.0914
     -3061.5074
  -2538738.63349  -1974822.46547  22702373.3254   22702370.4544
      -232.9904
  14106912.53549  10964571.35547  24473577.7084   24473578.1494
     -4463.7794
   -196275.49649   -155149.66448  21117844.2554   21117842.7474
      -300.8424
  -5517404.35949  -4294813.39147  23258832.0674   23258830.8644
      1989.5984
 04  9 16 21 52 15.0010000  0  8G 3G 8G10G13G19G23G27G28
   5669109.21949   4410976.44147  23727659.6064   23727659.5484
     -2692.0624
  -4325071.99249  -3364837.96548  21475914.0604   21475912.8604
       855.8804
  -1290806.91849  -1005788.45747  23913153.2784   23913152.8134
      -319.7494
   7510920.33649   5840625.18047  21525444.8254   21525443.5014
     -3068.9374
  -2535104.12549  -1971990.36747  22703064.9664   22703062.2314
      -242.3014
  14173906.84849  11016774.59447  24486326.4664   24486326.5794
     -4466.2874
   -191712.45349   -151594.03948  21118712.5754   21118710.8334
      -304.2034
  -5547183.52749  -4318017.90647  23253165.0994   23253164.1034
      1985.2784
 04  9 16 21 52 30.0010000  0  7G 3G 8G10G13G19G27G28
   5709615.59049   4442539.82047  23735368.2714   23735368.3214
     -2700.4254
  -4337857.70349  -3374800.84848  21473480.8564   21473479.5914
       852.3814
  -1285867.66449  -1001939.68447  23914093.5054   23914093.1424
      -329.2844
   7557064.83249   5876581.90648  21534225.9504   21534224.3884
     -3076.3004
  -2531330.64549  -1969049.98047  22703783.2784   22703780.0954
      -251.5654
   -187099.72349   -147999.70348  21119590.3564   21119588.5794
      -307.5154
  -5576898.61749  -4341172.48447  23247510.3254   23247509.8064
      1981.0064
 04  9 16 21 52 45.0010000  0  7G 3G 8G10G13G19G27G28
   5750246.68449   4474200.37547  23743100.2634   23743100.2434
     -2708.7404
  -4350591.27049  -3384723.10248  21471057.7634   21471056.1884
       848.9044
  -1280785.89549   -997979.85947  23915060.4034   23915060.1734
      -338.7854
   7603319.07849   5912624.15647  21543027.7864   21543026.1654
     -3083.6164
  -2527418.60249  -1966001.61747  22704527.6534   22704524.8644
      -260.8034
   -182437.94549   -144367.15248  21120477.1144   21120475.9074
      -310.7854
  -5606550.09449  -4364277.48847  23241868.2314   23241867.3414
      1976.7654
 04  9 16 21 53  0.0010000  0  7G 3G 8G10G13G19G27G28
   5791005.36349   4505960.36347  23750856.2394   23750856.5014
     -2717.2454
  -4363269.65649  -3394602.35548  21468645.0054   21468643.4424
       845.2264
  -1275558.57049   -993906.62547  23916055.6614   23916054.9704
      -348.4884
   7649686.14549   5948754.32847  21551851.2244   21551849.7084
     -3091.1384
  -2523364.73449  -1962842.74647  22705299.1224   22705295.8214
      -270.2584
   -177723.80549   -140693.79348  21121374.5914   21121372.7314
      -314.2764
  -5636134.65649  -4387330.34447  23236238.1614   23236237.3104
      1972.3044
 04  9 16 21 53 15.0010000  0  7G 3G 8G10G13G19G27G28
   5831892.32849   4537820.30547  23758637.0134   23758636.4664
     -2725.7984
  -4375892.08249  -3404438.00448  21466243.0604   21466241.5284
       841.4954
  -1270184.79749   -989719.27747  23917077.7004   23917077.6064
      -358.2524
   7696166.73049   5984972.94547  21560695.9584   21560694.7084
     -3098.7064
  -2519167.97749  -1959572.54347  22706097.5444   22706094.1184
      -279.7844
   -172956.30949   -136978.85948  21122281.6614   21122279.7744
      -317.8334
  -5665651.18049  -4410330.22347  23230621.8254   23230620.3884
      1967.7684
 04  9 16 21 53 30.0010000  0  7G 3G 8G10G13G19G27G28
   5872907.71149   4569780.35247  23766441.6464   23766441.5134
     -2734.3594
  -4388457.88749  -3414229.53148  21463851.7164   21463850.5604
       837.7204
  -1264664.12949   -985417.43447  23918128.8494   23918127.7284
      -368.0454
   7742761.00849   6021280.14847  21569562.9424   21569561.3214
     -3106.2854
  -2514827.96149  -1956190.68447  22706923.2004   22706920.5564
      -289.3344
   -168135.09049   -133222.07048  21123199.1224   21123197.5214
      -321.4154
  -5695099.21549  -4433276.71547  23225017.5134   23225016.4974
      1963.2024
 04  9 16 21 53 45.0010000  0  7G 3G 8G10G13G19G27G28
   5914050.83649   4601839.90247  23774270.8884   23774271.0214
     -2742.8754
  -4400967.39149  -3423977.19148  21461471.2004   21461470.0524
       833.9674
  -1258996.90649   -981001.42647  23919206.8724   23919206.4854
      -377.8154
   7789468.39149   6057675.49247  21578451.0364   21578449.2784
     -3113.8264
  -2510344.84049  -1952697.34447  22707776.8564   22707773.6224
      -298.8754
   -163260.39149   -129423.60248  21124126.6854   21124125.4154
      -324.9804
  -5724479.07849  -4456170.07447  23219426.8024   23219425.5134
      1958.6584
 04  9 16 21 54  0.0010000  0  7G 3G 8G10G13G19G27G28
   5955321.10949   4633998.51647  23782124.6464   23782123.9544
     -2751.3524
  -4413420.87549  -3433681.19548  21459101.7554   21459100.2674
       830.2324
  -1253183.59049   -976471.55947  23920313.0134   23920312.5054
      -387.5544
   7836288.43849   6094158.63747  21587360.5444   21587358.9114
     -3121.3364
  -2505718.93449  -1949092.72747  22708656.7784   22708654.0444
      -308.3944
   -158332.58249   -125583.74648  21125064.0444   21125062.7044
      -328.5214
  -5753791.01649  -4479010.51647  23213848.9584   23213847.8374
      1954.1294
 04  9 16 21 54 15.0010000  0  7G 3G 8G10G13G19G27G28
   5996718.48849   4666256.19147  23790002.1694   23790002.2284
     -2759.8254
  -4425818.25849  -3443341.48848  21456742.0674   21456740.8494
       826.4924
  -1247223.90649   -971827.65247  23921446.5994   23921446.6424
      -397.3124
   7883221.04749   6130729.48447  21596291.5364   21596290.1854
     -3128.8414
  -2500949.98849  -1945376.66047  22709564.4504   22709561.1734
      -317.9304
   -153351.38349   -121702.29348  21126012.3334   21126010.5214
      -332.0804
  -5783034.77349  -4501797.81247  23208283.9194   23208283.0714
      1949.5844
 04  9 16 21 54 30.0010000  0  7G 3G 8G10G13G19G27G28
   6038241.55149   4698611.80547  23797903.2004   23797903.8414
     -2768.2044
  -4438160.43049  -3452958.75448  21454393.5444   21454392.2904
       822.8114
  -1241119.10249   -967070.66847  23922608.6694   23922607.7124
      -406.9874
   7930264.97749   6167387.07447  21605243.6464   21605242.3064
     -3136.2624
  -2496038.93049  -1941549.85247  22710498.7394   22710495.7634
      -327.4044
   -148317.86749   -117780.07048  21126970.0604   21126968.3294
      -335.5684
  -5812211.32449  -4524532.75847  23202731.8964   23202730.4314
      1945.1034
 04  9 16 21 54 45.0010000  0  7G 3G 8G10G13G19G27G28
   6079892.13349   4731066.80147  23805829.2714   23805829.8374
     -2776.7054
  -4450445.37549  -3462531.43748  21452055.9114   21452054.3764
       818.9964
  -1234867.14849   -962199.02347  23923797.8104   23923797.7124
      -416.7974
   7977421.93049   6204132.73847  21614217.3024   21614215.7744
     -3143.7974
  -2490983.70349  -1937610.70347  22711460.4354   22711458.4504
      -337.0154
   -143229.93749   -113815.45348  21127938.4744   21127936.6034
      -339.1954
  -5841318.52749  -4547213.66447  23197192.5834   23197191.8064
      1940.4804
 04  9 16 21 55  0.0010000  0  7G 3G 8G10G13G19G27G28
   6121667.52749   4763619.04747  23813779.4034   23813779.1614
     -2785.0264
  -4462675.52749  -3472061.42248  21449728.5674   21449726.9894
       815.3434
  -1228470.57449   -957214.68047  23925015.5604   23925015.4154
      -426.4384
   8024689.25049   6240964.39547  21623212.4194   21623210.4384
     -3151.1554
  -2485786.68449  -1933561.07447  22712449.8334   22712446.7784
      -346.4684
   -138090.04349   -109810.33648  21128916.3104   21128914.7124
      -342.6604
  -5870358.79349  -4569842.41047  23191666.7784   23191665.4974
      1936.0184
 04  9 16 21 55 15.0010000  0  7G 3G 8G10G13G19G27G28
   6163569.55549   4796269.94547  23821753.0914   23821752.6694
     -2793.4684
  -4474848.52049  -3481546.85548  21447412.0364   21447410.7204
       811.5334
  -1221927.19149   -952115.94147  23926260.9194   23926260.7744
      -436.2264
   8072069.00849   6277883.66447  21632227.9114   21632226.4384
     -3158.6514
  -2480445.59849  -1929399.18447  22713466.2084   22713463.6224
      -356.0724
   -132895.90649   -105762.95748  21129904.8884   21129903.0994
      -346.2764
  -5899329.84049  -4592417.21947  23186153.6064   23186152.2554
      1931.4034
 04  9 16 21 55 30.0010000  0  7G 3G 8G10G13G19G27G28
   6205595.98049   4829017.80147  23829749.6694   23829749.8684
     -2801.7624
  -4486966.41049  -3490989.36348  21445106.4974   21445105.1734
       807.8594
  -1215239.10249   -946904.45747  23927534.2084   23927533.0674
      -445.8734
   8119558.91449   6314888.76247  21641265.3644   21641263.7434
     -3165.9944
  -2474962.46549  -1925126.60947  22714510.0674   22714506.5404
      -365.5424
   -127649.55549   -101674.88348  21130903.1854   21130901.6384
      -349.7574
  -5928233.59449  -4614939.59047  23180653.8174   23180652.0754
      1926.9174
 04  9 16 21 55 45.0010000  0  7G 3G 8G10G13G19G27G28
   6247747.21149   4861862.92647  23837771.0604   23837771.1064
     -2810.0824
  -4499028.46949  -3500388.36348  21442811.0754   21442809.3684
       804.1374
  -1208405.59049   -941579.63347  23928834.0914   23928833.6854
      -455.5674
   8167159.48049   6351980.09447  21650323.3174   21650322.0794
     -3173.3714
  -2469336.50049  -1920742.73447  22715580.4194   22715577.2314
      -375.0644
   -122350.17249    -97545.49648  21131911.5674   21131909.9814
      -353.2924
  -5957069.31249  -4637408.95747  23175166.0604   23175165.0054
      1922.3814
 04  9 16 21 56  0.0010000  0  7G 3G 8G10G13G19G27G28
   6290024.67649   4894806.38747  23845816.4114   23845816.9234
     -2818.4984
  -4511032.83249  -3509742.40248  21440526.7004   21440525.2004
       800.2914
  -1201424.96949   -936140.19947  23930162.5444   23930161.7124
      -465.3754
   8214872.33249   6389158.91847  21659402.5994   21659401.7314
     -3180.8574
  -2463565.78549  -1916246.06647  22716678.4584   22716675.2674
      -384.7144
   -116995.96949    -93373.38348  21132930.6384   21132928.6734
      -356.9474
  -5985835.03549  -4659823.77747  23169692.3884   23169690.6064
      1917.7154
 04  9 16 21 56 15.0010000  0  7G 3G 8G10G13G19G27G28
   6332425.25849   4927845.78547  23853884.9894   23853885.4624
     -2826.7054
  -4522982.54749  -3519053.85548  21438252.7394   21438251.2554
       796.6484
  -1194300.19549   -930588.41847  23931517.5754   23931517.6264
      -474.9854
   8262694.19549   6426422.68447  21668502.7784   21668501.5524
     -3188.1244
  -2457653.32049  -1911638.94147  22717803.3644   22717800.6064
      -394.1644
   -111589.94549    -89160.89848  21133959.1224   21133957.7674
      -360.4024
  -6014533.70749  -4682186.34447  23164230.7164   23164229.6424
      1913.2454
 04  9 16 21 56 30.0010000  0  7G 3G 8G10G13G19G27G28
   6374952.42249   4960983.82047  23861977.6924   23861978.0674
     -2835.1444
  -4534873.63749  -3528319.64148  21435989.8724   21435988.1494
       792.7394
  -1187027.44949   -924921.33647  23932902.0754   23932901.3684
      -484.8504
   8310628.69149   6463774.23047  21677624.8024   21677622.8024
     -3195.6334
  -2451595.02349  -1906918.19947  22718955.9744   22718953.1064
      -403.8864
   -106128.07849    -84904.90648  21134998.5754   21134996.9584
      -364.1244
  -6043161.32049  -4704493.54347  23158783.2314   23158782.4384
      1908.5084
 04  9 16 21 56 45.0010000  0  7G 3G 8G10G13G19G27G28
   6417602.82449   4994217.90247  23870093.5754   23870093.8134
     -2843.3604
  -4546708.97749  -3537541.97748  21433737.7474   21433736.2514
       789.0234
  -1179609.83249   -919141.38347  23934313.9974   23934312.7044
      -494.5084
   8358672.66049   6501211.05947  21686767.3494   21686765.7204
     -3202.9314
  -2445393.96149  -1902086.20347  22720136.4034   22720132.7244
      -413.4044
   -100613.41049    -80607.75848  21136048.0604   21136046.2824
      -367.6454
  -6071720.85549  -4726747.68747  23153348.1924   23153347.7944
      1903.9694
 04  9 16 21 57  0.0010000  0  7G 3G 8G10G13G19G27G28
   6460374.57849   5027546.55147  23878233.1304   23878232.7784
     -2851.4504
  -4558490.40249  -3546722.30148  21431495.7554   21431494.4934
       785.4284
  -1172049.13749   -913249.93047  23935752.6224   23935751.8064
      -504.0464
   8406824.23049   6538731.74647  21695930.3104   21695928.4504
     -3210.1054
  -2439051.72349  -1897144.18747  22721343.3964   22721340.0484
      -422.8164
    -95047.57449    -76270.73848  21137107.3174   21137105.4934
      -371.0564
  -6100214.03949  -4748950.12947  23147926.3254   23147925.2394
      1899.5464
 04  9 16 21 57 15.0010000  0  7G 3G 8G10G13G19G27G28
   6503268.22749   5060970.15647  23886395.6144   23886395.2434
     -2859.5774
  -4570216.68449  -3555859.64548  21429264.3644   21429262.8134
       781.7524
  -1164344.53549   -907246.34847  23937218.8884   23937218.0284
      -513.6404
   8455083.89849   6576336.66047  21705113.4424   21705112.0094
     -3217.3114
  -2432567.45349  -1892091.51647  22722577.2784   22722574.1884
      -432.2854
    -89429.86349    -71893.30548  21138176.5524   21138174.7714
      -374.5144
  -6128639.85249  -4771100.07847  23142516.9424   23142515.9624
      1895.0544
 04  9 16 21 57 30.0010000  0  7G 3G 8G10G13G19G27G28
   6546283.22749   5094488.34847  23894580.8884   23894580.7864
     -2867.6674
  -4581888.19549  -3564954.32848  21427043.3884   21427041.8294
       778.1014
  -1156496.39549   -901130.91847  23938711.8644   23938711.0484
      -523.2094
   8503451.16049   6614025.42247  21714317.6924   21714315.7864
     -3224.4844
  -2425941.33249  -1886928.29747  22723838.1144   22723834.8374
      -441.7414
    -83760.14549    -67475.34448  21139255.0284   21139253.5484
      -377.9814
  -6156998.38349  -4793197.60247  23137120.4974   23137119.6534
      1890.5694
 04  9 16 21 57 45.0010000  0  7G 3G 8G10G13G19G27G28
   6589419.77049   5128101.23847  23902789.5524   23902789.5484
     -2875.7704
  -4593504.55949  -3574006.02748  21424832.7244   21424831.3064
       774.4244
  -1148504.19949   -894903.23047  23940232.9814   23940232.7984
      -532.8134
   8551926.50049   6651798.39147  21723542.3414   21723540.7514
     -3231.6894
  -2419172.81649  -1881654.12947  22725126.1064   22725123.3454
      -451.2344
    -78038.14149    -63016.64148  21140344.0834   21140342.2944
      -381.4674
  -6185289.10249  -4815242.29347  23131736.9274   23131735.7984
      1886.0484
 04  9 16 21 58  0.0010000  0  7G 3G 8G10G13G19G27G28
   6632676.67249   5161807.90647  23911021.0754   23911021.6034
     -2883.7934
  -4605066.64549  -3583015.44548  21422632.5834   21422631.0484
       770.8064
  -1140369.05149   -888564.14547  23941780.7314   23941781.0794
      -542.3434
   8600508.68449   6689654.61347  21732786.9424   21732785.2984
     -3238.8124
  -2412262.76249  -1876269.66047  22726440.7714   22726438.3764
      -460.6704
    -72264.73449    -58517.87948  21141442.6304   21141441.0054
      -384.8944
  -6213512.89149  -4837234.82047  23126366.4274   23126364.8294
      1881.5864
 04  9 16 21 58 15.0020000  0  7G 3G 8G10G13G19G27G28
   6676055.79749   5195609.83247  23919275.7214   23919275.8654
     -2891.9424
  -4616575.50449  -3591983.37948  21420442.2134   21420440.9904
       767.2574
  -1132090.98849   -882113.71547  23943355.9394   23943355.5494
      -551.8714
   8649200.06649   6727595.92247  21742052.6274   21742051.6354
     -3246.0924
  -2405211.28149  -1870775.00047  22727782.6434   22727779.8814
      -470.0994
    -66439.87549    -53979.03148  21142551.1894   21142549.2684
      -388.3244
  -6241672.14549  -4859177.06247  23121007.6434   23121006.4864
      1877.2844
 04  9 16 21 58 30.0020000  0  7G 3G 8G10G13G19G27G28
   6719550.78149   5229502.02346  23927552.4714   23927552.5064
     -2899.6664
  -4628030.09449  -3600909.02748  21418262.8224   21418261.2684
       763.6394
  -1123671.55549   -875553.12147  23944958.3854   23944957.9984
      -561.2964
   8697993.62949   6765616.85947  21751337.8384   21751336.6044
     -3252.9044
  -2398019.63749  -1865171.11347  22729151.2364   22729148.4434
      -479.4434
    -60564.87149    -49401.10548  21143668.9164   21143667.0374
      -391.6674
  -6269763.46149  -4881066.37147  23115661.5964   23115661.0414
      1872.7544
 04  9 16 21 58 45.0020000  0  7G 3G 8G10G13G19G27G28
   6763163.92249   5263486.28946  23935851.6504   23935851.5494
     -2907.5434
  -4639431.53549  -3609793.25448  21416093.1114   21416091.9124
       760.0964
  -1115110.69549   -868882.30547  23946587.4164   23946587.1434
      -570.7244
   8746891.93849   6803719.41047  21760642.6584   21760641.6234
     -3259.8874
  -2390687.63349  -1859457.86747  22730546.8694   22730543.8384
      -488.8004
    -54639.63749    -44784.04748  21144796.5104   21144794.6544
      -395.0164
  -6297788.98449  -4902904.41447  23110328.8544   23110327.7874
      1868.3684
 04  9 16 21 59  0.0020000  0  7G 3G 8G10G13G19G27G28
   6806892.87949   5297560.79347  23944173.2294   23944172.8814
     -2915.2644
  -4650781.71949  -3618637.55948  21413933.0724   21413931.7954
       756.6794
  -1106410.46949   -862102.91847  23948242.9324   23948242.5844
      -580.0154
   8795892.86349   6841901.93047  21769967.3384   21769965.7564
     -3266.7284
  -2383217.19949  -1853636.74647  22731968.1744   22731965.2524
      -498.0294
    -48666.05549    -40129.30148  21145933.1044   21145931.4514
      -398.2394
  -6325750.60549  -4924692.65647  23105007.6664   23105006.8144
      1864.1084
 04  9 16 21 59 15.0020000  0  7G 3G 8G10G13G19G27G28
   6850740.01249   5331727.39846  23952516.5334   23952517.1004
     -2923.1424
  -4662077.96949  -3627439.81648  21411783.7134   21411782.0184
       753.0834
  -1097568.15649   -855212.80547  23949925.4244   23949924.9864
      -589.4874
   8844998.88749   6880166.33647  21779312.2364   21779310.8264
     -3273.7354
  -2375605.59049  -1847705.60547  22733416.7834   22733413.7364
      -507.4414
    -42641.51249    -35434.85248  21147080.0184   21147078.2174
      -401.6364
  -6353645.46549  -4946428.87547  23099699.4554   23099698.7874
      1859.6574
 04  9 16 21 59 30.0020000  0  7G 3G 8G10G13G19G27G28
   6894703.44549   5365984.60546  23960882.7604   23960882.9434
     -2930.8964
  -4673321.99649  -3636201.38748  21409644.0184   21409642.2524
       749.6024
  -1088585.52349   -848213.33247  23951634.1354   23951633.7834
      -598.8424
   8894208.09449   6918511.14847  21788676.2214   21788674.5494
     -3280.6144
  -2367854.40249  -1841665.72347  22734891.3074   22734888.3814
      -516.7464
    -36567.45749    -30701.82448  21148235.5884   21148234.2014
      -404.9374
  -6381475.24249  -4968114.37947  23094403.6114   23094402.9204
      1855.3184
 04  9 16 21 59 45.0020000  0  7G 3G 8G10G13G19G27G28
   6938784.49649   5400333.46947  23969272.1974   23969270.9324
     -2938.7374
  -4684511.99249  -3644920.86348  21407514.4714   21407512.8344
       746.0004
  -1079460.96549   -841103.29347  23953371.4474   23953370.1624
      -608.3044
   8943521.94149   6956937.50047  21798060.5414   21798058.9284
     -3287.5904
  -2359962.01649  -1835515.80547  22736393.2834   22736390.5614
      -526.1594
    -30442.28149    -25928.96148  21149401.0334   21149399.5764
      -408.3454
  -6409238.32049  -4989747.91447  23089120.6044   23089119.7444
      1850.8724
 04  9 16 22  0  0.0020000  0  7G 3G 8G10G13G19G27G28
   6982983.12149   5434773.94946  23977681.7524   23977682.0144
     -2946.5754
  -4695647.51649  -3653597.89148  21405395.4324   21405393.6434
       742.3684
  -1070194.44949   -833882.63347  23955134.9084   23955133.6194
      -617.7684
   8992940.26249   6995445.25447  21807464.1274   21807462.5964
     -3294.5554
  -2351928.23049  -1829255.70347  22737921.8074   22737919.5064
      -535.5864
    -24265.70749    -21116.03948  21150576.5494   21150575.0144
      -411.7724
  -6436934.32449  -5011329.18447  23083850.0104   23083848.9514
      1846.4004
 04  9 16 22  0 15.0020000  0  7G 3G 8G10G13G19G27G28
   7027298.66049   5469305.52746  23986114.4394   23986114.9754
     -2954.3694
  -4706729.18749  -3662232.95348  21403286.9474   21403285.2794
       738.7784
  -1060786.34049   -826551.63747  23956925.0254   23956924.1394
      -627.2074
   9042462.52749   7034034.00447  21816888.2524   21816886.7994
     -3301.4844
  -2343753.26649  -1822885.59047  22739477.7364   22739474.9754
      -544.9984
    -18038.10549    -16263.37148  21151761.6664   21151760.2014
      -415.1734
  -6464563.52749  -5032858.41047  23078592.3464   23078591.3894
      1841.9474
 04  9 16 22  0 30.0020000  0  7G 3G 8G10G13G19G27G28
   7071731.30149   5503928.35246  23994569.5574   23994570.5104
     -2962.1764
  -4717756.41849  -3670825.59848  21401188.3614   21401186.9474
       735.1494
  -1051236.27349   -819110.04347  23958742.3304   23958741.3814
      -636.6714
   9092089.03949   7072703.99247  21826331.9004   21826330.1934
     -3308.4344
  -2335436.58249  -1816405.05547  22741060.4474   22741057.3814
      -554.4464
    -11758.93749    -11370.51648  21152956.4004   21152954.6624
      -418.6114
  -6492125.37949  -5054335.15247  23073347.7134   23073346.5334
      1837.4574
 04  9 16 22  0 45.0020000  0  7G 3G 8G10G13G19G27G28
   7116280.16849   5538641.74246  24003047.8464   24003047.8464
     -2969.9244
  -4728729.50449  -3679376.04748  21399100.3934   21399098.8934
       731.5394
  -1041544.77749   -811558.21947  23960586.8304   23960586.0254
      -646.1004
   9141819.07849   7111454.65247  21835795.4714   21835793.8114
     -3315.3364
  -2326978.66849  -1809814.45347  22742669.6274   22742667.0374
      -563.8614
     -5428.61349     -6437.79748  21154161.0884   21154159.5884
      -422.0224
  -6519620.29749  -5075759.72747  23068115.7294   23068114.6354
      1832.9954
 04  9 16 22  1  0.0020000  0  7G 3G 8G10G13G19G27G28
   7160946.57849   5573446.72746  24011547.0884   24011547.6464
     -2977.7614
  -4739646.79349  -3687883.02348  21397023.0724   21397021.3574
       727.8194
  -1031710.41849   -803895.08247  23962458.4394   23962456.9514
      -655.6244
   9191653.96949   7150287.00447  21845278.5184   21845277.2994
     -3322.3264
  -2318377.93049  -1803112.56647  22744306.7994   22744303.8614
      -573.3834
       954.48449     -1463.96148  21155375.7364   21155374.0064
      -425.5404
  -6547046.68049  -5097130.91847  23062896.4794   23062895.3544
      1828.4264
 04  9 16 22  1 15.0020000  0  7G 3G 8G10G13G19G27G28
   7205729.32049   5608342.34046  24020069.3464   24020069.1354
     -2985.5164
  -4750509.09049  -3696347.13748  21394955.6114   21394954.4244
       724.1534
  -1021734.26649   -796121.47347  23964356.2834   23964355.6704
      -665.0774
   9241592.54749   7189200.16047  21854781.7134   21854779.8034
     -3329.2394
  -2309635.34449  -1796300.14847  22745970.1744   22745967.3894
      -582.8394
      7389.34449      3550.21548  21156600.2834   21156598.4554
      -428.9914
  -6574405.35549  -5118449.33247  23057690.3544   23057688.7714
      1823.9124
 04  9 16 22  1 30.0020000  0  7G 3G 8G10G13G19G27G28
   7250628.73849   5643328.88746  24028613.7524   24028612.5374
     -2993.2954
  -4761315.91849  -3704768.03948  21392899.0254   21392897.9754
       720.4554
  -1011615.62549   -788236.80947  23966281.9634   23966281.1744
      -674.5764
   9291635.23049   7228194.43847  21864304.4554   21864303.0574
     -3336.1794
  -2300750.10949  -1789376.57847  22747661.3854   22747658.2134
      -592.3494
     13876.84049      8605.40648  21157834.8074   21157832.9794
      -432.5004
  -6601695.56649  -5139714.40247  23052496.7684   23052496.0644
      1819.3474
 04  9 16 22  1 45.0020000  0  7G 3G 8G10G13G19G27G28
   7295643.32449   5678405.17646  24037178.7054   24037179.5144
     -3000.9724
  -4772068.33249  -3713146.54748  21390853.1274   21390851.8504
       716.8284
  -1001355.72349   -780242.08647  23968234.1274   23968234.1824
      -683.9934
   9341780.72349   7267268.82047  21873846.5024   21873845.4164
     -3343.0334
  -2291723.30549  -1782342.68447  22749379.0574   22749375.6314
      -601.7874
     20415.85949     13700.73848  21159079.1044   21159077.5964
      -435.9354
  -6628918.39849  -5160926.97347  23047317.0574   23047316.0534
      1814.8554
 04  9 16 22  2  0.0020000  0  7G 3G 8G10G13G19G27G28
   7340775.10549   5713572.78546  24045767.7214   24045767.7754
     -3008.7854
  -4782763.98449  -3721480.80548  21388817.7754   21388816.6584
       713.0434
   -990952.46149   -772135.65647  23970214.1044   23970213.1744
      -693.5514
   9392030.84849   7306424.74647  21883408.7294   21883407.5334
     -3350.0084
  -2282552.77049  -1775196.79347  22751123.3854   22751120.7564
      -611.3694
     27008.58649     18837.93048  21160333.9084   21160332.0614
      -439.5154
  -6656071.62149  -5182085.30147  23042149.7754   23042148.7054
      1810.2154
 04  9 16 22  2 15.0020000  0  7G 3G 8G10G13G19G27G28
   7386021.80149   5748829.94146  24054377.7754   24054377.8114
     -3016.4464
  -4793404.65649  -3729772.23448  21386792.6434   21386791.7404
       709.3784
   -980407.87949   -763919.10247  23972220.4394   23972219.9594
      -702.9724
   9442383.55149   7345660.59047  21892990.3774   21892989.1504
     -3356.8474
  -2273240.35549  -1767940.34447  22752895.5024   22752892.8464
      -620.8284
     33653.30949     24015.63748  21161598.1824   21161596.4674
      -442.9824
  -6683156.91049  -5203190.68047  23036995.6974   23036994.5494
      1805.6864
 04  9 16 22  2 30.0020000  0  7G 3G 8G10G13G19G27G28
   7431386.45349   5784179.00446  24063010.7994   24063010.1194
     -3024.3104
  -4803987.15249  -3738018.33248  21384779.0334   21384777.4364
       705.5004
   -969718.58649   -755589.78547  23974255.2604   23974254.4244
      -712.6204
   9492841.80949   7384978.69147  21902592.9084   21902591.1864
     -3363.8844
  -2263782.78149  -1760570.78147  22754695.7214   22754692.6934
      -630.5054
     40353.21149     29236.33648  21162872.9324   21162871.2714
      -446.6604
  -6710170.98049  -5224240.57447  23031854.8774   23031853.9474
      1800.9384
 04  9 16 22  2 45.0020000  0  7G 3G 8G10G13G19G27G28
   7476866.83649   5819618.24246  24071664.9864   24071665.4904
     -3032.0264
  -4814513.63749  -3746220.78148  21382775.9634   21382774.5614
       701.7664
   -958886.85549   -747149.47347  23976315.9634   23976315.6664
      -722.1154
   9543403.46149   7424377.36347  21912214.2834   21912213.0454
     -3370.7774
  -2254181.96949  -1753089.60547  22756522.1974   22756519.5064
      -640.0544
     47106.33249     34498.50448  21164158.4004   21164156.6544
      -450.2084
  -6737115.89849  -5245236.58647  23026727.6434   23026726.1044
      1796.3284
 04  9 16 22  3  0.0020000  0  7G 3G 8G10G13G19G27G28
   7522462.88349   5855147.59846  24080341.4794   24080341.7364
     -3039.7364
  -4824983.60249  -3754379.18748  21380783.6114   21380782.0494
       697.9984
   -947912.30549   -738597.87947  23978404.4554   23978404.2604
      -731.6374
   9594068.77049   7463856.80547  21921855.7914   21921853.9794
     -3377.6874
  -2244437.47749  -1745496.48047  22758377.2054   22758373.9904
      -649.6334
     53913.26649     39802.60948  21165453.7994   21165451.9474
      -453.7964
  -6763991.14849  -5266178.31647  23021613.3224   23021611.5144
      1791.6834
 04  9 16 22  3 15.0020000  0  7G 3G 8G10G13G19G27G28
   7568174.92249   5890767.35246  24089039.6114   24089040.7094
     -3047.4694
  -4835395.98449  -3762492.73048  21378802.2524   21378800.8034
       694.1594
   -936794.39549   -729934.58647  23980520.1114   23980519.4554
      -741.1944
   9644837.93049   7503417.16447  21931516.8144   21931515.4164
     -3384.6114
  -2234548.68449  -1737790.90247  22760258.5964   22760255.3734
      -659.2534
     60774.47349     45149.00448  21166759.1434   21166757.4284
      -457.4144
  -6790796.01649  -5287065.19547  23016512.4164   23016511.1194
      1786.9914
 04  9 16 22  3 30.0020000  0  7G 3G 8G10G13G19G27G28
   7614002.25049   5926476.91846  24097761.3774   24097761.1894
     -3055.1554
  -4845751.10549  -3770561.64848  21376831.4004   21376830.1864
       690.3414
   -925533.74649   -721160.04747  23982662.7754   23982662.6974
      -750.7104
   9695710.38749   7543058.01647  21941197.3934   21941196.1434
     -3391.4974
  -2224516.01649  -1729973.21947  22762167.6274   22762164.7404
      -668.8454
     67689.86349     50537.61748  21168075.3694   21168073.3734
      -461.0264
  -6817530.81249  -5307897.46147  23011424.6744   23011423.3144
      1782.3204
 04  9 16 22  3 45.0020000  0  7G 3G 8G10G13G19G27G28
   7659947.39849   5962278.32846  24106504.1044   24106503.6394
     -3063.0104
  -4856046.22749  -3778583.81648  21374872.3304   21374871.1114
       686.3414
   -914127.55149   -712272.10947  23984832.7754   23984833.3074
      -760.4134
   9746688.74249   7582781.38747  21950898.1354   21950896.8034
     -3398.5574
  -2214336.64149  -1722041.21947  22764104.8774   22764101.4824
      -678.6254
     74662.00049     55970.44948  21169401.9244   21169400.0924
      -464.8094
  -6844192.61749  -5328672.87147  23006350.9554   23006349.5494
      1777.4544
 04  9 16 22  4  0.0020000  0  7G 3G 8G10G13G19G27G28
   7706009.35249   5998170.73846  24115268.6974   24115269.4634
     -3070.7974
  -4866282.31649  -3786559.97748  21372924.5964   21372922.9474
       682.4064
   -902576.60249   -703271.37947  23987031.3074   23987031.1394
      -770.0634
   9797771.97749   7622586.48847  21960619.2364   21960617.5104
     -3405.5494
  -2204011.15249  -1713995.35947  22766069.8074   22766066.8074
      -688.3664
     81690.35249     61447.08648  21170739.4084   21170737.8614
      -468.5574
  -6870782.22749  -5349392.02047  23001291.4554   23001290.3614
      1772.6414
 04  9 16 22  4 15.0020000  0  7G 3G 8G10G13G19G27G28
   7752187.15649   6034153.40646  24124057.2914   24124056.5964
     -3078.5204
  -4876459.93449  -3794490.58648  21370987.9864   21370986.7994
       678.5084
   -890881.85949   -694158.59447  23989256.8464   23989256.6894
      -779.6494
   9848959.12149   7662472.55547  21970359.8074   21970358.1274
     -3412.4764
  -2193540.36749  -1705836.28147  22768061.7444   22768059.4864
      -698.0524
     88774.22749     66966.98448  21172087.1354   21172085.8814
      -472.2584
  -6897300.18449  -5370055.32847  22996245.5334   22996243.9714
      1767.8644
 04  9 16 22  4 30.0020000  0  7G 3G 8G10G13G19G27G28
   7798479.13749   6070225.05546  24132866.3694   24132866.0184
     -3086.1324
  -4886580.11749  -3802376.43748  21369062.0024   21369060.7014
       674.6794
   -879044.54749   -684934.73447  23991509.5184   23991508.5214
      -789.1544
   9900248.77049   7702438.49647  21980119.6504   21980118.2214
     -3419.3104
  -2182925.57849  -1697564.99647  22770081.7684   22770079.3344
      -707.6534
     95912.37949     72529.18048  21173445.7294   21173443.8814
      -475.8774
  -6923747.72349  -5390663.77347  22991212.1974   22991211.0334
      1763.1694
 04  9 16 22  4 45.0020000  0  7G 3G 8G10G13G19G27G28
   7844885.13749   6106385.56646  24141696.7684   24141696.6864
     -3093.7334
  -4896642.55549  -3810217.29748  21367147.1974   21367145.9984
       670.8294
   -867064.57049   -675599.68747  23993788.8934   23993788.6114
      -798.6654
   9951640.66449   7742484.10247  21989899.2214   21989897.7524
     -3426.1264
  -2172166.49249  -1689181.26247  22772128.9554   22772126.5764
      -717.2724
    103105.12549     78133.91848  21174814.4794   21174812.9244
      -479.5164
  -6950124.64549  -5411217.18047  22986193.2524   22986191.5184
      1758.4614
 04  9 16 22  5  0.0020000  0  7G 3G 8G10G13G19G27G28
   7891405.82849   6142635.44946  24150549.2684   24150549.3384
     -3101.3794
  -4906646.54749  -3818012.60248  21365243.6824   21365242.0374
       666.9334
   -854941.04749   -666152.80147  23996095.9714   23996095.6314
      -808.2354
  10003135.66049   7782610.05547  21999698.5254   21999696.9754
     -3433.0004
  -2161262.12949  -1680684.33247  22774204.5104   22774201.3144
      -726.9584
    110353.51649     83782.01648  21176193.7444   21176192.1544
      -483.2264
  -6976429.76249  -5431714.65247  22981187.2914   22981185.9714
      1753.6744
 04  9 16 22  5 15.0020000  0  7G 3G 8G10G13G19G27G28
   7938041.07449   6178974.57846  24159423.9244   24159423.2834
     -3109.0164
  -4916591.64549  -3825762.02348  21363351.1744   21363349.6894
       663.0074
   -842673.93049   -656594.01247  23998430.5334   23998429.9554
      -817.8084
  10054733.59849   7822816.21947  22009517.4004   22009515.6704
     -3439.8624
  -2150212.34449  -1672074.09447  22776307.2134   22776303.9554
      -736.6524
    117657.73449     89473.61348  21177584.1114   21177581.8774
      -486.9484
  -7002662.97349  -5452156.08647  22976195.3074   22976194.0104
      1748.8814
 04  9 16 22  5 30.0020000  0  7G 3G 8G10G13G19G27G28
   7984792.14149   6215403.96546  24168320.4394   24168319.6824
     -3116.7384
  -4926476.26249  -3833464.31648  21361470.3774   21361468.7524
       658.9744
   -830261.87149   -646922.29747  24000792.8854   24000791.8734
      -827.4714
  10106435.88349   7863103.69547  22019355.8144   22019354.5884
     -3446.8194
  -2139015.45749  -1663349.23447  22778437.6824   22778434.8504
      -746.4594
    125019.40249     95209.97348  21178984.6354   21178983.0214
      -490.7784
  -7028822.53549  -5472540.12947  22971217.0254   22971215.8614
      1743.9714
 04  9 16 22  5 45.0020000  0  7G 3G 8G10G13G19G27G28
   8031657.89549   6251922.70346  24177238.6274   24177238.6044
     -3124.3844
  -4936301.39149  -3841120.25848  21359600.2914   21359598.9164
       655.0094
   -817705.86349   -637138.38347  24003181.5884   24003181.6234
      -837.0674
  10158241.43049   7903471.63347  22029214.2914   22029212.6894
     -3453.7034
  -2127672.41049  -1654510.47747  22780596.2754   22780593.4124
      -756.2034
    132437.64549    100990.42648  21180396.3144   21180394.3814
      -494.5494
  -7054909.31649  -5492867.45747  22966253.1044   22966251.6004
      1739.1194
 04  9 16 22  6  0.0020000  0  7G 3G 8G10G13G19G27G28
   8078635.04749   6288528.26646  24186178.2604   24186178.1664
     -3131.8104
  -4946069.71149  -3848731.93748  21357741.6044   21357740.0684
       651.2214
   -805008.91049   -627244.66447  24005597.8144   24005598.0144
      -846.4644
  10210147.10949   7943917.59847  22039091.6194   22039090.1784
     -3460.3794
  -2116186.13749  -1645560.11347  22782781.9474   22782779.2404
      -765.7524
    139909.66449    106812.78148  21181817.8464   21181816.7754
      -498.1354
  -7080926.13349  -5513140.27347  22961302.2214   22961300.8034
      1734.4544
 04  9 16 22  6 15.0020000  0  7G 3G 8G10G13G19G27G28
   8125724.42249   6325221.26647  24195139.0964   24195139.2364
     -3139.2924
  -4955779.78549  -3856298.21948  21355893.9084   21355892.5454
       647.3384
   -792169.96149   -617240.30147  24008041.3144   24008040.9284
      -855.9304
  10262153.76649   7984442.24647  22048988.1974   22048987.0534
     -3467.1104
  -2104555.50049  -1636497.26647  22784995.3144   22784992.4084
      -775.3764
    147436.58249    112677.90648  21183250.3854   21183248.7604
      -501.7954
  -7106871.93449  -5533357.75047  22956365.1274   22956363.5064
      1729.7204
 04  9 16 22  6 30.0020000  0  7G 3G 8G10G13G19G27G28
   8172925.81349   6362001.56346  24204121.0104   24204121.1544
     -3146.7594
  -4965431.75449  -3863819.23448  21354057.2754   21354055.4794
       643.4654
   -779189.02349   -607125.29347  24010511.1974   24010510.8424
      -865.3964
  10314261.16849   8025045.40247  22058903.9394   22058902.7644
     -3473.8274
  -2092780.32849  -1627321.78947  22787235.3614   22787233.0884
      -785.0114
    155018.63749    118586.00448  21184693.4084   21184691.6354
      -505.4704
  -7132746.45349  -5553519.68447  22951440.8774   22951440.0104
      1724.9684
 04  9 16 22  6 45.0020000  0  7G 3G 8G10G13G19G27G28
   8220238.00849   6398868.18447  24213124.1114   24213124.8224
     -3154.1464
  -4975026.25449  -3871295.45348  21352231.3384   21352229.7294
       639.6334
   -766066.86749   -596900.22347  24013008.7214   24013008.0964
      -874.8104
  10366468.31649   8065726.27347  22068838.5334   22068837.2484
     -3480.4774
  -2080861.37949  -1618034.27347  22789503.6894   22789501.2254
      -794.5974
    162655.07049    124536.46948  21186146.5494   21186144.4904
      -509.0964
  -7158550.37949  -5573626.59447  22946530.3614   22946529.5374
      1720.2624
 04  9 16 22  7  0.0020000  0  7G 3G 8G10G13G19G27G28
   8267661.91049   6435821.85947  24222148.8074   24222148.7684
     -3161.5934
  -4984562.11749  -3878725.98848  21350416.4474   21350414.9434
       635.7244
   -752802.75449   -586564.56247  24015532.5804   24015531.5144
      -884.2744
  10418776.01249   8106485.49647  22078792.4864   22078791.2324
     -3487.1804
  -2068797.71549  -1608634.00447  22791799.5184   22791796.7994
      -804.2444
    170346.94149    130530.13348  21187610.1664   21187608.4904
      -512.7914
  -7184282.66449  -5593677.70347  22941633.7134   22941632.7444
      1715.4864
 04  9 16 22  7 15.0020000  0  7G 3G 8G10G13G19G27G28
   8315197.60949   6472862.65647  24231194.4324   24231194.8574
     -3169.0474
  -4994038.99249  -3886110.56248  21348613.1044   21348611.7714
       631.7924
   -739396.24649   -576117.93747  24018083.4944   24018082.8734
      -893.7674
  10471184.43449   8147323.20747  22088765.3384   22088764.2444
     -3493.8954
  -2056588.88349  -1599120.61747  22794122.9714   22794119.8304
      -813.9224
    178094.73849    136567.38748  21189084.7364   21189082.8854
      -516.5204
  -7209942.83649  -5613672.60247  22936750.9324   22936749.6974
      1710.6784
 04  9 16 22  7 30.0020000  0  7G 3G 8G10G13G19G27G28
   8362840.29749   6509986.80947  24240261.0574   24240260.5294
     -3176.1794
  -5003461.19549  -3893452.53148  21346820.2134   21346818.9394
       628.1474
   -725851.93449   -565563.93447  24020661.1664   24020659.9324
      -902.9544
  10523689.02349   8188235.86747  22098756.6504   22098755.5534
     -3500.3064
  -2044239.32049  -1589497.55947  22796472.7914   22796469.9244
      -823.3044
    185894.13749    142644.82448  21190569.0024   21190566.7604
      -519.9604
  -7235535.25049  -5633614.71547  22931881.2914   22931879.9984
      1706.1614
 04  9 16 22  7 45.0020000  0  7G 3G 8G10G13G19G27G28
   8410596.91849   6547199.74247  24249349.0494   24249348.6464
     -3183.7754
  -5012821.41849  -3900746.20348  21345039.1354   21345037.5104
       624.0154
   -712162.83649   -554897.10247  24023266.3464   24023264.6274
      -912.6074
  10576296.54349   8229228.71547  22108767.8384   22108766.2254
     -3507.1684
  -2031741.84849  -1579759.25847  22798851.3774   22798848.2714
      -833.1654
    193752.27749    148768.05548  21192063.5884   21192061.9904
      -523.8764
  -7261052.68449  -5653498.39847  22927025.2364   22927024.1004
      1701.1624
 04  9 16 22  8  0.0020000  0  7G 3G 8G10G13G19G27G28
   8458461.62949   6584496.89846  24258457.0184   24258456.9904
     -3190.9814
  -5022125.48449  -3907996.12548  21343268.6194   21343267.1934
       620.2714
   -698334.47749   -544121.77347  24025897.4944   24025896.0294
      -921.8914
  10629001.37149   8270297.39847  22118797.2994   22118795.6934
     -3513.6554
  -2019101.86749  -1569909.91847  22801256.4864   22801253.5764
      -842.6654
    201663.77349    154932.86748  21193569.7214   21193567.9554
      -527.4334
  -7286500.47749  -5673327.80947  22922182.4944   22922181.7364
      1696.5204
 04  9 16 22  8 15.0020000  0  7G 3G 8G10G13G19G27G28
   8506432.97749   6621877.16047  24267585.5644   24267585.3424
     -3198.0904
  -5031373.99249  -3915202.74248  21341508.3384   21341507.4044
       616.5674
   -684368.09049   -533238.87147  24028555.1744   24028554.1974
      -931.0924
  10681801.95349   8311440.68847  22128844.4554   22128843.3734
     -3520.0394
  -2006320.57849  -1559950.45747  22803688.4474   22803685.5644
      -852.0864
    209627.57049    161138.42248  21195084.8774   21195083.1464
      -530.9204
  -7311879.66049  -5693103.76647  22917352.9244   22917351.7564
      1691.9464
 04  9 16 22  8 30.0020000  0  7G 3G 8G10G13G19G27G28
   8554510.80149   6659340.37546  24276734.5024   24276734.8504
     -3205.1884
  -5040566.70749  -3922365.89148  21339759.2604   21339757.8224
       612.8484
   -670263.71949   -522248.46947  24031239.1274   24031238.7914
      -940.2914
  10734698.32449   8352658.62147  22138910.3694   22138909.3034
     -3526.4254
  -1993397.82849  -1549880.77747  22806147.7754   22806144.6044
      -861.5174
    217643.85549    167384.88348  21196610.3304   21196608.5534
      -534.4194
  -7337190.15249  -5712826.19547  22912536.4084   22912535.4164
      1687.3664
 04  9 16 22  8 45.0020000  0  7G 3G 8G10G13G19G27G28
   8602698.30549   6696889.07447  24285903.7294   24285904.3934
     -3212.5004
  -5049700.39549  -3929483.04748  21338021.0644   21338020.2254
       608.9134
   -656017.82849   -511147.78947  24033950.2914   24033949.6824
      -949.7264
  10787693.78949   8393953.76247  22148995.3934   22148993.8034
     -3533.0314
  -1980330.02749  -1539698.07047  22808634.2604   22808631.4794
      -871.1874
    225716.32449    173675.11748  21198146.4794   21198144.9434
      -538.1654
  -7362428.34849  -5732492.28947  22907734.0104   22907732.4634
      1682.5464
 04  9 16 22  9  0.0020000  0  7G 3G 8G10G13G19G27G28
   8650995.17649   6734522.98447  24295094.4324   24295095.2214
     -3219.7914
  -5058774.92649  -3936554.09848  21336294.2364   21336293.1314
       604.9694
   -641630.57849   -499936.96147  24036687.6584   24036687.6864
      -959.1504
  10840788.10249   8435325.93047  22159098.3304   22159097.5614
     -3539.6214
  -1967117.30549  -1529402.43747  22811148.6194   22811145.7294
      -880.8484
    233844.92249    180009.09048  21199693.4554   21199691.4434
      -541.9074
  -7387594.07849  -5752101.91047  22902945.0184   22902943.6704
      1677.7154
 04  9 16 22  9 15.0020000  0  7G 3G 8G10G13G19G27G28
   8699398.57049   6772239.90247  24304305.6744   24304306.1824
     -3226.8934
  -5067792.48849  -3943580.76248  21334578.4244   21334577.1544
       601.1714
   -627104.59849   -488618.01647  24039451.9864   24039451.4324
      -968.3994
  10893978.54749   8476773.00847  22169220.6824   22169219.4514
     -3546.0304
  -1953762.05549  -1518995.73847  22813689.9474   22813687.4594
      -890.3504
    242027.25849    186384.93448  21201250.3304   21201248.8544
      -545.4894
  -7412689.78549  -5771656.98447  22898169.6274   22898168.1934
      1673.0474
 04  9 16 22  9 30.0020000  0  7G 3G 8G10G13G19G27G28
   8747908.69949   6810039.96146  24313537.0644   24313537.7954
     -3234.0094
  -5076752.74649  -3950562.77048  21332873.2054   21332871.8224
       597.3514
   -612439.54749   -477190.72347  24042242.9714   24042242.5414
      -977.6704
  10947265.22749   8518295.07047  22179360.6504   22179359.6704
     -3552.4454
  -1940263.88349  -1508477.68047  22816258.5494   22816255.7484
      -899.8784
    250263.85549    192803.06348  21202817.9324   21202815.7914
      -549.1074
  -7437715.03949  -5791157.14547  22893407.1044   22893405.9904
      1668.3504
 04  9 16 22  9 45.0020000  0  7G 3G 8G10G13G19G27G28
   8796526.64549   6847924.07046  24322788.6744   24322789.0184
     -3241.1964
  -5085654.06249  -3957498.85948  21331179.5964   21331177.7794
       593.4214
   -597634.15249   -465654.05547  24045059.7994   24045060.1044
      -987.0264
  11000649.26649   8559892.98847  22189519.4944   22189518.1234
     -3558.9364
  -1926621.34449  -1497847.11747  22818854.6504   22818851.7214
      -909.5034
    258556.08649    199264.54348  21204395.5104   21204394.0414
      -552.8154
  -7462668.39149  -5810601.29747  22888658.8224   22888657.2014
      1663.5574
 04  9 16 22 10  0.0020000  0  7G 3G 8G10G13G19G27G28
   8845249.80149   6885890.14546  24332060.3144   24332059.9714
     -3248.2104
  -5094498.73449  -3964390.80948  21329496.2684   21329495.0924
       589.6454
   -582690.85949   -454009.94947  24047903.9084   24047903.3034
      -996.2204
  11054128.23849   8601564.88347  22199696.0884   22199695.1664
     -3565.2654
  -1912836.71149  -1487105.84847  22821477.7754   22821475.1004
      -918.9764
    266901.88749    205767.76248  21205983.8304   21205981.9794
      -556.3874
  -7487551.97749  -5829991.06647  22883923.5494   22883921.8304
      1658.9064
 04  9 16 22 10 15.0020000  0  7G 3G 8G10G13G19G27G28
   8894077.35949   6923937.60946  24341351.6894   24341352.1154
     -3255.1714
  -5103287.05149  -3971238.84048  21327824.1194   21327822.5804
       585.8884
   -567610.18049   -442258.75047  24050773.4714   24050773.2214
     -1005.3794
  11107701.53949   8643310.28547  22209890.8224   22209890.1464
     -3571.5534
  -1898910.46149  -1476254.21947  22824127.8774   22824125.2714
      -928.4174
    275300.83649    212312.39848  21207582.1504   21207580.3774
      -559.9304
  -7512366.13749  -5849326.74647  22879201.7684   22879200.7604
      1654.2774
 04  9 16 22 10 30.0020000  0  7G 3G 8G10G13G19G27G28
   8943010.40649   6962067.21546  24350663.3464   24350663.6664
     -3262.2034
  -5112017.64549  -3978041.89148  21326162.8384   21326161.1044
       582.0404
   -552390.98449   -430399.67247  24053669.0334   24053669.4904
     -1014.6134
  11161370.11749   8685129.93847  22220103.3144   22220102.6434
     -3577.9054
  -1884841.28549  -1465291.22347  22826805.2604   22826802.3464
      -937.9454
    283754.29749    218899.52348  21209191.0494   21209189.3504
      -563.5644
  -7537109.59449  -5868607.32447  22874492.9634   22874492.0374
      1649.5644
 04  9 16 22 10 45.0020000  0  7G 3G 8G10G13G19G27G28
   8992047.88749   7000278.21146  24359995.0414   24359995.1234
     -3269.1654
  -5120691.29749  -3984800.57448  21324512.0184   21324510.7364
       578.2434
   -537034.23049   -418433.37147  24056591.6584   24056591.7324
     -1023.7844
  11215132.85949   8727022.96147  22230334.4394   22230333.0804
     -3584.1834
  -1870629.95749  -1454217.45747  22829509.5804   22829507.2324
      -947.4224
    292261.68049    225528.64848  21210809.7604   21210808.2484
      -567.1594
  -7561782.97749  -5887833.30947  22869797.7604   22869796.3614
      1644.8924
 04  9 16 22 11  0.0020000  0  7G 3G 8G10G13G19G27G28
   9041188.76649   7038569.75846  24369346.1434   24369346.2714
     -3276.0594
  -5129308.48049  -3991515.25448  21322872.1824   21322871.1194
       574.4794
   -521540.46949   -406360.30947  24059540.2994   24059540.1624
     -1032.9174
  11268989.04349   8768988.78547  22240582.7994   22240581.5804
     -3590.4124
  -1856277.08649  -1443033.41447  22832240.9164   22832238.0924
      -956.8584
    300822.32049    232199.28148  21212438.6664   21212436.9244
      -570.7094
  -7586386.78549  -5907005.08247  22865115.8614   22865114.4754
      1640.2544
 04  9 16 22 11 15.0020000  0  7G 3G 8G10G13G19G27G28
   9090434.08649   7076942.74246  24378717.1744   24378717.1934
     -3283.0214
  -5137867.60549  -3998184.69948  21321243.8304   21321242.0494
       570.6084
   -505908.50449   -394179.56647  24062515.6194   24062514.8424
     -1042.1314
  11322939.78949   8811028.31347  22250849.4944   22250848.2404
     -3596.7164
  -1841781.41049  -1431738.07847  22834999.5644   22834996.5684
      -966.3784
    309437.66049    238912.53148  21214078.3304   21214076.3264
      -574.3564
  -7610919.76649  -5926121.66047  22860447.0574   22860445.8034
      1635.5324
 04  9 16 22 11 30.0020000  0  7G 3G 8G10G13G19G27G28
   9139786.93449   7115399.49646  24388109.1194   24388109.1464
     -3290.1904
  -5146365.61749  -4004806.51648  21319626.8224   21319624.9514
       566.5344
   -490135.18049   -381888.68047  24065517.0254   24065516.2014
     -1051.5554
  11376988.16849   8853143.91447  22261134.1434   22261133.1314
     -3603.2254
  -1827139.54349  -1420328.84847  22837785.6974   22837782.8734
      -976.1244
    318111.10949    245671.06348  21215728.5804   21215727.0214
      -578.2304
  -7635378.44549  -5945180.34047  22855792.8614   22855791.7794
      1630.5794
 04  9 16 22 11 45.0020000  0  7G 3G 8G10G13G19G27G28
   9189241.87149   7153935.77746  24397519.9394   24397519.8304
     -3296.9964
  -5154807.42249  -4011384.53948  21318020.0414   21318018.6974
       562.7874
   -474225.68449   -369491.68047  24068544.5024   24068543.8114
     -1060.6334
  11431128.80149   8895331.38347  22271437.1114   22271435.9434
     -3609.3764
  -1812356.57449  -1408809.63747  22840598.9714   22840595.8934
      -985.5314
    326837.55149    252470.89548  21217389.3774   21217387.3814
      -581.7634
  -7659767.84049  -5964185.04347  22851151.7444   22851150.6544
      1625.9604
 04  9 16 22 12  0.0020000  0  7G 3G 8G10G13G19G27G28
   9238801.77049   7192553.87946  24406950.7444   24406951.0374
     -3303.9934
  -5163189.72349  -4017916.19948  21316424.9474   21316423.0804
       558.8204
   -458177.08649   -356986.27347  24071597.5884   24071597.4204
     -1069.9074
  11485364.48049   8937592.94147  22281757.9004   22281756.2604
     -3615.7124
  -1797429.40249  -1397178.07847  22843439.2214   22843436.2834
      -995.1454
    335620.33249    259314.62148  21219060.8854   21219058.7054
      -585.5194
  -7684084.73449  -5983133.24247  22846524.4474   22846523.0724
      1621.1264
 04  9 16 22 12 15.0020000  0  7G 3G 8G10G13G19G27G28
   9288463.51649   7231251.33246  24416401.2214   24416401.4904
     -3310.7834
  -5171515.06649  -4024403.47348  21314840.7604   21314838.6624
       555.0234
   -441992.13749   -344374.63347  24074677.7994   24074677.0724
     -1078.9974
  11539692.37549   8979926.34047  22292095.8384   22292094.7094
     -3621.8604
  -1782360.73849  -1385436.25047  22846306.7214   22846303.6004
     -1004.5784
    344456.78949    266200.17248  21220742.1664   21220740.3114
      -589.0974
  -7708331.87149  -6002027.08247  22841910.2134   22841908.8774
      1616.4764
 04  9 16 22 12 30.0020000  0  7G 3G 8G10G13G19G27G28
   9338228.54749   7270029.25846  24425870.6824   24425871.2604
     -3317.6694
  -5179781.76649  -4030845.05148  21313267.4634   21313266.0494
       551.1134
   -425669.33249   -331655.57447  24077783.9944   24077783.8574
     -1088.1874
  11594113.85549   9022332.66847  22302451.8464   22302450.8574
     -3628.0994
  -1767148.94549  -1373582.91447  22849201.2294   22849198.5884
     -1014.1204
    353348.67649    273128.91448  21222434.1114   21222432.5334
      -592.7924
  -7732507.39149  -6020865.12547  22837309.4554   22837308.1894
      1611.7014
 04  9 16 22 12 45.0020000  0  7G 3G 8G10G13G19G27G28
   9388096.34449   7308887.27046  24435360.8544   24435360.6314
     -3324.5204
  -5187989.98049  -4037241.05548  21311705.4474   21311703.9434
       547.2144
   -409209.09449   -318829.43047  24080916.1894   24080915.7564
     -1097.3494
  11648628.60249   9064811.66047  22312825.8854   22312824.4284
     -3634.3164
  -1751794.19549  -1361618.17247  22852123.3544   22852120.0724
     -1023.6504
    362295.89549    280100.77348  21224136.7134   21224134.9164
      -596.4814
  -7756611.41049  -6039647.43447  22832722.7914   22832721.2214
      1606.9354
 04  9 16 22 13  0.0020000  0  7G 3G 8G10G13G19G27G28
   9438066.27749   7347824.85946  24444869.2364   24444869.8964
     -3331.3294
  -5196139.93049  -4043591.66448  21310154.4634   21310152.8504
       543.3304
   -392611.80949   -305896.49647  24084074.6504   24084074.3964
     -1106.4864
  11703236.05949   9107362.90647  22323217.3854   22323216.3814
     -3640.4974
  -1736296.68449  -1349542.18447  22855072.4714   22855068.8734
     -1033.1674
    371298.21149    287115.56348  21225849.9394   21225848.0534
      -600.1544
  -7780644.10549  -6058374.19147  22828149.5964   22828148.3964
      1602.1804
 04  9 16 22 13 15.0020000  0  7G 3G 8G10G13G19G27G28
   9488138.43049   7386842.11346  24454398.0254   24454398.4674
     -3338.1434
  -5204231.16049  -4049896.50848  21308614.7684   21308613.1154
       539.4154
   -375877.14549   -292856.51247  24087259.9084   24087259.1664
     -1115.6444
  11757936.28949   9149986.43447  22333626.8544   22333625.4084
     -3646.6824
  -1720656.16449  -1337354.75847  22858048.8774   22858045.4674
     -1042.7014
    380356.11749    294173.67648  21227573.4714   21227572.0494
      -603.8604
  -7804605.05949  -6077045.03547  22823590.0644   22823588.6824
      1597.3974
 04  9 16 22 13 30.0020000  0  7G 3G 8G10G13G19G27G28
   9538312.43849   7425938.71546  24463944.9004   24463945.4984
     -3344.9344
  -5212263.33649  -4056155.34048  21307086.6044   21307085.3264
       535.4784
   -359005.33249   -279709.64547  24090469.6894   24090469.9634
     -1124.7874
  11812729.03149   9192682.06347  22344053.2684   22344052.2324
     -3652.8494
  -1704872.82049  -1325056.04347  22861052.2834   22861049.0374
     -1052.2234
    389469.62549    301275.10948  21229307.7684   21229305.8654
      -607.5674
  -7828494.23049  -6095659.93747  22819044.3544   22819042.2054
      1592.6114
 04  9 16 22 13 45.0020000  0  7G 3G 8G10G13G19G27G28
   9588589.96149   7465116.00446  24473513.2364   24473513.4124
     -3351.8354
  -5220234.71149  -4062366.79348  21305569.4944   21305568.3694
       531.4254
   -341994.55549   -266454.50447  24093707.3074   24093706.0964
     -1134.0524
  11867615.91849   9235451.03947  22354497.9394   22354497.2444
     -3659.1264
  -1688944.52049  -1312644.37947  22864083.0184   22864080.2404
     -1061.8874
    398640.71149    308421.41048  21231053.2834   21231051.3694
      -611.4064
  -7852309.73449  -6114217.44547  22814512.0494   22814510.4514
      1587.7004
 04  9 16 22 14  0.0020000  0  7G 3G 8G10G13G19G27G28
   9638971.96949   7504374.68846  24483100.7684   24483100.7994
     -3358.8014
  -5228143.70749  -4068529.64548  21304064.7914   21304063.2484
       527.2664
   -324843.60549   -253090.13747  24096970.3774   24096970.0024
     -1143.3974
  11922598.02049   9278294.20747  22364960.8934   22364959.6864
     -3665.4734
  -1672870.04749  -1300118.80547  22867141.9164   22867139.0534
     -1071.6324
    407870.89849    315613.76648  21232809.4004   21232807.5534
      -615.3464
  -7876050.19949  -6132716.48047  22809994.4324   22809992.8384
      1582.6984
 04  9 16 22 14 15.0020000  0  7G 3G 8G10G13G19G27G28
   9689456.30149   7543713.09846  24492708.0184   24492707.4944
     -3365.6224
  -5235992.27349  -4074645.40248  21302570.9004   21302569.8304
       523.2384
   -307554.46149   -239618.07047  24100260.5494   24100260.1394
     -1152.6104
  11977673.23849   9321209.92647  22375441.0964   22375440.0844
     -3671.6814
  -1656651.35249  -1287480.85947  22870228.2134   22870225.3224
     -1081.2464
    417158.14849    322850.58648  21234576.6434   21234575.1274
      -619.1504
  -7899717.32849  -6151158.38347  22805490.6664   22805488.9594
      1577.8094
 04  9 16 22 14 30.0020000  0  7G 3G 8G10G13G19G27G28
   9740043.20749   7583131.46547  24502333.8224   24502333.5804
     -3372.4604
  -5243779.72749  -4080713.53948  21301089.4394   21301087.7294
       519.1644
   -290126.76249   -226038.05947  24103576.7834   24103576.5724
     -1161.8474
  12032841.92249   9364198.48447  22385939.1744   22385938.5764
     -3677.9124
  -1640287.85949  -1274730.07847  22873341.7754   22873339.6434
     -1090.8994
    426503.36749    330132.57448  21236355.1894   21236353.3774
      -623.0154
  -7923310.51249  -6169542.64847  22801000.5254   22800999.5454
      1572.8794
 04  9 16 22 14 45.0020000  0  7G 3G 8G10G13G19G27G28
   9790732.10949   7622629.29346  24511979.8304   24511980.1004
     -3379.2604
  -5251506.18749  -4086734.14848  21299619.0254   21299617.6354
       515.0974
   -272560.86749   -212350.37147  24106919.3854   24106919.2324
     -1171.0604
  12088103.53949   9407259.44947  22396455.2914   22396454.2094
     -3684.1084
  -1623779.80549  -1261866.65247  22876483.7754   22876480.7404
     -1100.5374
    435906.23049    337459.47748  21238144.2134   21238142.5684
      -626.8584
  -7946829.86349  -6187869.39147  22796525.6114   22796524.3184
      1567.9574
 04  9 16 22 15  0.0020000  0  7G 3G 8G10G13G19G27G28
   9841522.50049   7662206.19946  24521644.8854   24521645.2254
     -3386.0264
  -5259171.72749  -4092707.30148  21298160.1664   21298158.6584
       511.0364
   -254857.02749   -198555.19147  24110288.4394   24110287.7564
     -1180.2564
  12143457.73449   9450392.56347  22406989.0104   22406987.5494
     -3690.2804
  -1607127.41049  -1248890.75447  22879652.0964   22879649.4124
     -1110.1604
    445366.78549    344831.34048  21239944.5964   21239942.9044
      -630.7044
  -7970275.57449  -6206138.73847  22792063.9084   22792062.4284
      1563.0474
 04  9 16 22 15 15.0020000  0  7G 3G 8G10G13G19G27G28
   9892412.68849   7701860.85947  24531329.3464   24531329.3074
     -3392.6794
  -5266777.73449  -4098634.05148  21296712.7604   21296711.4594
       507.0674
   -237016.81649   -184653.72347  24113683.6434   24113682.8814
     -1189.3474
  12198903.02749   9493596.67247  22417539.3544   22417538.4824
     -3696.3534
  -1590332.02349  -1235803.44547  22882848.2684   22882845.3344
     -1119.6924
    454883.69149    352247.10548  21241755.7684   21241753.8034
      -634.4604
  -7993648.86349  -6224351.67247  22787615.6194   22787614.3464
      1558.2194
 04  9 16 22 15 30.0020000  0  7G 3G 8G10G13G19G27G28
   9943404.37549   7741594.64847  24541032.4244   24541033.1974
     -3399.4464
  -5274321.96549  -4104512.66448  21295276.9164   21295275.7714
       502.9494
   -219038.39549   -170644.57447  24117104.5884   24117103.8694
     -1198.5614
  12254440.86349   9536872.87547  22428108.4634   22428107.4364
     -3702.5224
  -1573391.76249  -1222603.23447  22886071.9714   22886069.1974
     -1129.3514
    464458.96549    359708.36348  21243577.7834   21243576.0144
      -638.3524
  -8016947.77349  -6242506.64147  22783182.7214   22783180.6354
      1553.2614
 04  9 16 22 15 45.0020000  0  7G 3G 8G10G13G19G27G28
   9994496.35949   7781406.55546  24550755.1354   24550755.3734
     -3406.1324
  -5281805.20749  -4110343.76248  21293853.1274   21293851.6004
       498.8834
   -200922.69149   -156528.45747  24120551.9554   24120551.6044
     -1207.7144
  12310070.26649   9580220.43847  22438694.3074   22438693.6314
     -3708.6274
  -1556307.54349  -1209290.84847  22889323.3384   22889320.5644
     -1138.9484
    474091.84849    367214.50448  21245410.6504   21245409.0574
      -642.1924
  -8040173.16449  -6260604.32047  22778762.8384   22778761.0454
      1548.3594
 04  9 16 22 16  0.0020000  0  7G 3G 8G10G13G19G27G28
  10045692.33649   7821299.51246  24560496.8854   24560498.2644
     -3413.0654
  -5289223.54349  -4116124.27348  21292441.3934   21292439.8854
       494.5564
   -182665.85549   -142302.35947  24124025.8074   24124025.1314
     -1217.1224
  12365794.94149   9623642.24247  22449298.3304   22449297.3224
     -3714.9784
  -1539075.25049  -1195863.07847  22892602.4394   22892599.6504
     -1148.8204
    483786.44149    374768.73048  21247255.4474   21247253.6194
      -646.3064
  -8063320.76249  -6278641.38347  22774357.9164   22774356.0764
      1543.1734
 04  9 16 22 16 15.0020000  0  7G 3G 8G10G13G19G27G28
  10096989.35249   7861271.18446  24570258.9714   24570259.2364
     -3419.8014
  -5296579.19549  -4121855.94548  21291041.6664   21291039.9984
       490.3774
   -164270.78949   -127968.53947  24127526.4794   24127525.7994
     -1226.3384
  12421611.97749   9667136.00047  22459919.9244   22459919.2404
     -3721.1364
  -1521697.55149  -1182322.00847  22895909.2684   22895906.3964
     -1158.5134
    493540.27749    382369.11748  21249111.7754   21249110.3424
      -650.2564
  -8086393.23449  -6296619.91447  22769967.3544   22769965.8224
      1538.1654
 04  9 16 22 16 30.0020000  0  7G 3G 8G10G13G19G27G28
  10148386.46949   7901320.88346  24580039.3224   24580039.5764
     -3426.4744
  -5303873.16849  -4127539.56248  21289653.7994   21289652.2684
       486.2654
   -145738.29349   -113527.66047  24131053.7054   24131052.4904
     -1235.5004
  12477520.49649   9710701.06347  22470559.1664   22470558.3184
     -3727.2354
  -1504175.29749  -1168668.30147  22899243.3224   22899240.8304
     -1168.1504
    503352.64849    390015.12948  21250978.9634   21250977.2604
      -654.1584
  -8109391.20749  -6314540.38747  22765590.7834   22765589.3074
      1533.1984
 04  9 16 22 16 45.0020000  0  7G 3G 8G10G13G19G27G28
  10199883.80949   7941448.67646  24589839.1894   24589839.1624
     -3433.1564
  -5311104.87149  -4133174.64548  21288277.4324   21288275.9004
       482.1144
   -127068.03149    -98979.42247  24134605.7754   24134605.7874
     -1244.6844
  12533520.69949   9754337.55947  22481215.6274   22481214.8654
     -3733.3474
  -1486508.06249  -1154901.61747  22902605.4084   22902602.7684
     -1177.8164
    513224.14549    397707.19948  21252857.4004   21252855.6074
      -658.1004
  -8132314.14149  -6332402.38747  22761229.1974   22761227.0104
      1528.1964
 04  9 16 22 17  0.0020000  0  7G 3G 8G10G13G19G27G28
  10251479.86349   7981653.38346  24599657.7994   24599658.0534
     -3439.7374
  -5318275.11349  -4138761.84448  21286913.0254   21286911.6704
       478.0164
   -108261.39149    -84324.90647  24138184.7524   24138184.8854
     -1253.7764
  12589611.09449   9798044.32847  22491889.4164   22491888.1544
     -3739.3604
  -1468697.05549  -1141022.90647  22905994.4324   22905992.0764
     -1187.4014
    523153.70749    405444.51648  21254746.9554   21254745.3894
      -661.9714
  -8155163.23049  -6350206.84447  22756880.7214   22756879.3934
      1523.2734
 04  9 16 22 17 15.0020000  0  7G 3G 8G10G13G19G27G28
  10303176.77049   8021936.66446  24609495.0024   24609495.8144
     -3446.4604
  -5325381.42249  -4144299.22748  21285560.6744   21285559.5254
       473.7544
    -89316.00849    -69562.28547  24141789.7914   24141790.0844
     -1263.0264
  12645793.95749   9841823.14847  22502580.4864   22502579.6934
     -3745.5244
  -1450739.77349  -1127030.21947  22909411.9864   22909409.3224
     -1197.1524
    533143.77749    413228.98448  21256647.8854   21256646.3034
      -666.0054
  -8177935.95749  -6367951.79747  22752547.1664   22752545.7134
      1518.1824
 04  9 16 22 17 30.0020000  0  7G 3G 8G10G13G19G27G28
  10354973.35949   8062297.64546  24619351.0184   24619352.0764
     -3453.1064
  -5332424.71149  -4149787.50448  21284220.5724   21284219.2174
       469.5534
    -70233.03149    -54692.43747  24145421.7834   24145421.4594
     -1272.1984
  12702068.14849   9885673.13747  22513289.1354   22513287.9204
     -3751.6134
  -1432637.18749  -1112924.30147  22912856.9634   22912853.8074
     -1206.8394
    543193.54749    421059.96948  21258560.6664   21258558.9364
      -669.9854
  -8200633.10249  -6385637.86347  22748227.9324   22748226.1274
      1513.1434
 04  9 16 22 17 45.0020000  0  7G 3G 8G10G13G19G27G28
  10406872.22349   8102738.28546  24629227.9324   24629227.8144
     -3459.9244
  -5339401.78549  -4155224.17648  21282892.6354   21282891.1044
       465.1384
    -51009.60549    -39713.16447  24149079.5804   24149079.9634
     -1281.5624
  12758436.14549   9929596.22347  22524015.7604   22524014.5494
     -3757.8664
  -1414386.44949  -1098702.94147  22916330.2054   22916326.9634
     -1216.7164
    553306.13349    428939.90648  21260484.7524   21260483.3654
      -674.1724
  -8223251.62149  -6403262.66447  22743923.8074   22743922.3114
      1507.9014
 04  9 16 22 18  0.0020000  0  7G 3G 8G10G13G19G27G28
  10458873.39849   8143258.64146  24639123.5184   24639123.3114
     -3466.7454
  -5346311.91049  -4160608.68048  21281577.7444   21281576.4124
       460.6754
    -31645.39849    -24624.16847  24152764.4474   24152764.7484
     -1290.9474
  12814898.46549   9973592.80947  22534760.1434   22534758.8734
     -3764.1554
  -1395986.98849  -1084365.69147  22919831.2754   22919828.5064
     -1226.6314
    563482.09849    436869.22348  21262421.2834   21262419.5764
      -678.3984
  -8245791.04349  -6420825.82047  22739634.7524   22739633.4284
      1502.6284
 04  9 16 22 18 15.0020000  0  7G 3G 8G10G13G19G27G28
  10510973.85549   8183856.38746  24649037.1114   24649037.3934
     -3473.3644
  -5353158.11349  -4165943.37948  21280274.9944   21280273.3504
       456.4144
    -12143.37949     -9427.80147  24156475.3224   24156475.9084
     -1300.1354
  12871451.93449  10017660.41847  22545521.6274   22545520.5334
     -3770.2314
  -1377441.73849  -1069914.83647  22923359.9474   22923357.0144
     -1236.3504
    573718.59449    444845.71948  21264368.9554   21264367.3264
      -682.4334
  -8268254.12149  -6438329.48847  22735360.6894   22735358.6584
      1497.5394
 04  9 16 22 18 30.0020000  0  7G 3G 8G10G13G19G27G28
  10563173.16049   8224531.14846  24658970.6044   24658970.8734
     -3479.9544
  -5359940.31249  -4171228.21148  21278984.3854   21278983.1704
       452.1474
      7496.27349      5875.79747  24160213.1194   24160212.7914
     -1309.3104
  12928096.23049  10061798.80147  22556301.0644   22556300.0294
     -3776.2864
  -1358750.96549  -1055350.59047  22926917.0104   22926913.5964
     -1246.0524
    584015.66449    452869.41448  21266328.7364   21266326.8464
      -686.4714
  -8290640.85949  -6455773.68447  22731100.2214   22731098.7754
      1492.4494
 04  9 16 22 18 45.0020000  0  7G 3G 8G10G13G19G27G28
  10615468.80149   8265280.96946  24668922.5964   24668923.1434
     -3486.3764
  -5366660.63749  -4176464.82048  21277705.7444   21277703.7564
       448.0224
     27271.16049     21284.80147  24163976.0104   24163975.9004
     -1318.3264
  12984828.82849  10106006.00047  22567097.1504   22567095.7484
     -3782.1734
  -1339916.75849  -1040674.59047  22930501.1194   22930498.1464
     -1255.6144
    594371.23049    460938.68448  21268299.4554   21268297.3654
      -690.3714
  -8312953.33649  -6473160.00047  22726853.9474   22726852.8034
      1487.4984
 04  9 16 22 19  0.0020000  0  7G 3G 8G10G13G19G27G28
  10667866.37149   8306110.24646  24678892.9474   24678893.5924
     -3493.1714
  -5373313.21949  -4181648.64548  21276439.4864   21276438.0684
       443.5054
     47186.97749     36803.60247  24167766.1504   24167765.5254
     -1327.7214
  13041655.40249  10150286.41447  22577910.4864   22577909.6824
     -3788.4384
  -1320933.18449  -1025882.18747  22934113.3144   22934110.2644
     -1265.5724
    604791.33249    469058.24248  21270281.9944   21270280.2564
      -694.6734
  -8335185.64849  -6490483.85547  22722623.1504   22722621.7994
      1482.1544
 04  9 16 22 19 15.0020000  0  7G 3G 8G10G13G19G27G28
  10720361.19949   8347015.26246  24688882.4474   24688883.3424
     -3499.6554
  -5379902.14549  -4186782.86748  21275185.6824   21275184.0214
       439.2624
     67239.21949     52428.69547  24171581.7524   24171581.3384
     -1336.8164
  13098571.34849  10194636.47747  22588741.5024   22588740.2404
     -3794.3964
  -1301804.77049  -1010976.92647  22937753.2054   22937750.0254
     -1275.2284
    615271.62549    477224.69948  21272276.5254   21272274.7054
      -698.6864
  -8357342.02749  -6507748.54747  22718407.0104   22718405.6074
      1477.0924
 04  9 16 22 19 30.0020000  0  7G 3G 8G10G13G19G27G28
  10772956.40249   8387998.51246  24698891.7054   24698891.9284
     -3506.3474
  -5386423.67249  -4191864.58248  21273944.8074   21273943.4594
       434.7684
     87431.24649     68162.73047  24175424.5104   24175423.6624
     -1346.1354
  13155579.93449  10239058.71547  22599589.7914   22599588.7294
     -3800.5724
  -1282528.10549   -995956.14847  22941421.3854   22941418.1584
     -1285.1114
    625815.71549    485440.87148  21274283.0644   21274281.3184
      -702.9394
  -8379419.00449  -6524951.35247  22714205.9554   22714204.8344
      1471.7984
 04  9 16 22 19 45.0020000  0  7G 3G 8G10G13G19G27G28
  10825648.84449   8429057.52746  24708918.2294   24708919.4944
     -3512.8294
  -5392880.82849  -4196896.12148  21272716.1824   21272714.5214
       430.4774
    107759.98849     84003.29347  24179292.7834   24179291.3544
     -1355.2494
  13212677.97349  10283550.66447  22610455.4864   22610453.9824
     -3806.5364
  -1263106.08649   -980822.10547  22945117.3854   22945114.3344
     -1294.8014
    636420.77749    493704.55548  21276300.9714   21276299.2834
      -707.0044
  -8401419.44549  -6542094.52347  22710019.4084   22710017.9984
      1466.6964
 04  9 16 22 20  0.0020000  0  7G 3G 8G10G13G19G27G28
  10878442.45349   8470195.37946  24718964.2754   24718965.7954
     -3519.5744
  -5399269.20349  -4201874.07848  21271500.3544   21271498.8814
       425.8924
    128229.56649     99953.61747  24183187.9714   24183186.6354
     -1364.6394
  13269869.43049  10328115.41047  22621338.3464   22621337.4754
     -3812.7644
  -1243534.49249   -965571.50047  22948842.4244   22948839.0614
     -1304.7734
    647091.24249    502019.20348  21278331.6974   21278329.8694
      -711.3644
  -8423338.94549  -6559174.63347  22705848.5024   22705846.6664
      1461.3004
 04  9 16 22 20 15.0020000  0  7G 3G 8G10G13G19G27G28
  10931332.06349   8511408.00846  24729029.7054   24729029.6864
     -3525.9744
  -5405593.62549  -4206802.19948  21270297.1744   21270295.2484
       421.6284
    148834.99249    116009.78947  24187108.7914   24187107.4084
     -1373.6954
  13327149.07049  10372748.86347  22632238.4474   22632237.1434
     -3818.6434
  -1223818.20349   -950208.15247  22952593.7524   22952590.7794
     -1314.4194
    657822.30949    510381.07048  21280373.7994   21280371.6394
      -715.4044
  -8445182.22349  -6576195.34047  22701691.7914   22701690.1504
      1456.2184
 04  9 16 22 20 30.0020000  0  7G 3G 8G10G13G19G27G28
  10984318.71549   8552696.27346  24739111.9394   24739113.1274
     -3532.4434
  -5411852.44549  -4211679.19148  21269105.8774   21269104.1744
       417.2554
    169577.41049    132172.69547  24191056.1584   24191055.2834
     -1382.8284
  13384518.32849  10417452.16047  22643155.0574   22643154.4794
     -3824.6174
  -1203955.87549   -934731.00847  22956373.0414   22956370.5454
     -1324.1554
    668615.41449    518791.29348  21282427.4634   21282425.6664
      -719.5404
  -8466947.99649  -6593155.66047  22697549.5724   22697548.1004
      1451.0524
 04  9 16 22 20 45.0020000  0  7G 3G 8G10G13G19G27G28
  11037401.29349   8594059.28946  24749213.5414   24749214.3074
     -3538.8394
  -5418046.58649  -4216505.79748  21267927.2754   21267925.4904
       412.9434
    190455.79349    148441.55147  24195029.6584   24195028.6894
     -1391.8924
  13441975.96949  10462224.32847  22654089.0884   22654087.8304
     -3830.5094
  -1183948.53949   -919140.87147  22960180.8614   22960177.9364
     -1333.8224
    679469.83249    527249.27348  21284493.1824   21284491.2644
      -723.6284
  -8488637.01649  -6610056.16847  22693422.5724   22693420.6934
      1445.9354
 04  9 16 22 21  0.0020000  0  7G 3G 8G10G13G19G27G28
  11090580.40349   8635497.46546  24759332.9324   24759334.2444
     -3545.2744
  -5424174.86749  -4221281.07448  21266760.7834   21266759.2754
       408.5524
    211470.94949    164816.98047  24199028.2364   24199027.7254
     -1401.0104
  13499522.44149  10507065.69947  22665040.4004   22665038.7994
     -3836.4324
  -1163795.22349   -903436.98447  22964015.4394   22964012.7994
     -1343.5544
    690386.48049    535755.75448  21286570.2604   21286568.6784
      -727.7774
  -8510248.30949  -6626896.11347  22689309.6044   22689308.3424
      1440.7534
 04  9 16 22 21 15.0020000  0  7G 3G 8G10G13G19G27G28
  11143853.01249   8677008.57846  24769470.0964   24769471.7954
     -3551.5074
  -5430239.88349  -4226007.05148  21265606.6194   21265605.6394
       404.3344
    232619.96149    181296.70747  24203053.0884   24203053.1314
     -1409.9344
  13557155.09449  10551974.23047  22676007.4244   22676006.3774
     -3842.1774
  -1143498.59849   -887621.43047  22967878.2684   22967875.2364
     -1353.1084
    701363.02049    544308.89848  21288659.1894   21288657.1704
      -731.7694
  -8531784.46549  -6643677.50847  22685211.8544   22685210.0924
      1435.7444
 04  9 16 22 21 30.0020000  0  6G 8G10G13G19G27G28
  -5436239.71949  -4230682.24648  21264464.9714   21264463.6464
       399.9894
    253904.49249    197882.04747  24207102.9794   24207102.8184
     -1418.9694
  13614875.35949  10596951.03147  22686990.8384   22686990.4164
     -3848.0184
  -1123057.02349   -871692.91847  22971768.2134   22971764.9594
     -1362.7724
    712401.15649    552910.04348  21290759.6824   21290757.7834
      -735.8764
  -8553243.51249  -6660398.82447  22681127.9244   22681126.8934
      1430.6034
 04  9 16 22 21 45.0020000  0  6G 8G10G13G19G27G28
  -5442175.42249  -4235307.46948  21263335.7444   21263334.0144
       395.7144
    275323.14549    214571.89547  24211178.5024   24211178.0644
     -1427.9104
  13672681.79749  10641994.98447  22697991.1504   22697990.4674
     -3853.7624
  -1102471.82449   -855652.49247  22975685.1194   22975682.4864
     -1372.3474
    723499.71549    561558.27348  21292871.8854   21292869.9244
      -739.9044
  -8574626.77049  -6677061.07047  22677058.8774   22677057.6824
      1425.5514
 04  9 16 22 22  0.0020000  0  6G 8G10G13G19G27G28
  -5448047.08649  -4239882.78948  21262218.3544   21262216.5684
       391.4444
    296875.75049    231366.12547  24215280.2914   24215279.6504
     -1436.8404
  13730574.07449  10687105.82447  22709007.5804   22709006.5804
     -3859.4854
  -1081742.90249   -839500.08647  22979630.0574   22979626.7094
     -1381.9284
    734658.88349    570253.72748  21294995.0574   21294993.1744
      -743.9454
  -8595933.99649  -6693664.07447  22673004.0724   22673002.7324
      1420.4824
 04  9 16 22 22 15.0020000  0  6G 8G10G13G19G27G28
  -5453850.48849  -4244404.91848  21261114.0334   21261112.5724
       386.8934
    318566.10549    248267.66447  24219408.5494   24219407.1894
     -1446.0244
  13788556.09849  10732286.59847  22720041.3854   22720040.2484
     -3865.4684
  -1060866.37149   -823232.64547  22983602.0494   22983599.2404
     -1391.7694
    745882.82049    578999.65248  21297131.1824   21297129.3114
      -748.2624
  -8617161.32049  -6710204.82047  22668965.0024   22668963.4634
      1415.1554
 04  9 16 22 22 30.0020000  0  6G 8G10G13G19G27G28
  -5459585.73449  -4248873.93448  21260022.3694   21260020.8034
       382.3504
    340393.78549    265276.24647  24223561.6114   24223560.5454
     -1455.1794
  13846627.19149  10777536.77747  22731092.2604   22731090.9554
     -3871.4064
  -1039842.57849   -806850.46147  22987603.0334   22987600.2364
     -1401.5864
    757171.32449    587795.89548  21299279.3144   21299277.3894
      -752.5674
  -8638308.89849  -6726683.43047  22664940.5964   22664939.3424
      1409.8394
 04  9 16 22 22 45.0020000  0  6G 8G10G13G19G27G28
  -5465253.66449  -4253290.49648  21258943.9324   21258942.1864
       377.8624
    362357.92249    282391.16047  24227741.0184   24227740.8654
     -1464.2764
  13904786.48049  10822855.68047  22742158.5964   22742158.6394
     -3877.2864
  -1018672.27349   -790354.11347  22991631.6584   22991628.8814
     -1411.3544
    768523.74249    596641.92648  21301439.6354   21301438.0454
      -756.8284
  -8659377.34449  -6743100.37547  22660931.3614   22660929.9514
      1404.5634
 04  9 16 22 23  0.0020000  0  6G 8G10G13G19G27G28
  -5470852.02749  -4257652.85548  21257878.6274   21257877.0844
       373.2244
    384460.29749    299613.77347  24231946.7994   24231947.1354
     -1473.4924
  13963035.56649  10868244.54347  22753243.7914   22753242.9124
     -3883.2724
   -997353.56249   -773742.12947  22995688.6274   22995685.2994
     -1421.2474
    779942.09449    605539.34448  21303612.0644   21303610.5844
      -761.2234
  -8680364.65249  -6759454.09047  22656937.9634   22656936.0614
      1399.1544
 04  9 16 22 23 15.0020000  0  6G 8G10G13G19G27G28
  -5476384.23449  -4261963.66448  21256825.8384   21256824.4714
       368.8144
    406697.33249    316941.31347  24236178.1664   24236178.2404
     -1482.4694
  14021370.79749  10913700.54347  22764344.6664   22764343.6624
     -3889.0154
   -975890.04349   -757017.29747  22999772.9004   22999769.2714
     -1430.9014
    791423.16449    614485.63348  21305797.0254   21305795.3504
      -765.4054
  -8701274.28149  -6775747.28947  22652958.9244   22652957.2794
      1393.9754
 04  9 16 22 23 30.0020000  0  6G 8G10G13G19G27G28
  -5481850.73049  -4266223.26648  21255785.5884   21255783.9324
       364.4334
    429068.23849    334373.15647  24240435.4004   24240434.9084
     -1491.3944
  14079791.27049  10959222.95747  22775461.8074   22775460.7054
     -3894.6984
   -954282.29349   -740180.08247  23003884.6584   23003881.3464
     -1440.5174
    802966.28549    623480.26648  21307993.8074   21307991.8964
      -769.5414
  -8722106.74249  -6791980.35247  22648994.4474   22648992.6434
      1388.8314
 04  9 16 22 23 45.0020000  0  6G 8G10G13G19G27G28
  -5487252.08649  -4270432.11348  21254757.7914   21254755.9754
       360.0904
    451572.08649    351908.59847  24244717.7054   24244718.1314
     -1500.2574
  14138296.06349  11004811.07847  22786595.1354   22786593.6934
     -3900.3204
   -932531.09049   -723231.09047  23008023.9714   23008021.2214
     -1450.0804
    814570.96149    632522.87948  21310201.9394   21310200.1044
      -773.6454
  -8742862.60249  -6808153.72347  22645044.7364   22645042.9634
      1383.7244
 04  9 16 22 24  0.0020000  0  6G 8G10G13G19G27G28
  -5492588.18749  -4274590.10948  21253742.4244   21253740.7794
       355.7404
    474208.67249    369547.48847  24249025.1664   24249024.7834
     -1509.1064
  14196884.94549  11050464.73047  22797743.8614   22797742.8384
     -3905.9264
   -910636.51649   -706170.36747  23012190.2444   23012187.3034
     -1459.6384
    826237.31649    641613.53148  21312421.9004   21312420.4124
      -777.7574
  -8763541.76649  -6824267.33647  22641109.3774   22641107.9434
      1378.6114
 04  9 16 22 24 15.0020000  0  6G 8G10G13G19G27G28
  -5497859.11349  -4278697.31648  21252739.3774   21252737.7214
       351.3954
    496977.55549    387289.46947  24253358.2364   24253357.0844
     -1517.9264
  14255557.39149  11096183.49247  22808908.9084   22808907.7364
     -3911.4964
   -888598.90649   -688998.19947  23016383.8934   23016380.7564
     -1469.1744
    837965.03949    650752.02048  21314653.6354   21314651.9714
      -781.8484
  -8784144.60249  -6840321.46947  22637188.7684   22637186.9674
      1373.5224
 04  9 16 22 24 30.0020000  0  6G 8G10G13G19G27G28
  -5503065.92649  -4282754.56648  21251748.4244   21251746.9204
       347.1214
    519877.60949    405133.66047  24257716.0254   24257715.2254
     -1526.6704
  14314312.02349  11141966.28547  22820089.5644   22820088.9164
     -3916.9764
   -866419.38349   -671715.44547  23020604.3464   23020601.6194
     -1478.6354
    849753.28949    659937.66848  21316896.8934   21316895.0614
      -785.8834
  -8804672.04749  -6856316.85547  22633282.8144   22633281.2214
      1368.4964
 04  9 16 22 24 45.0020000  0  6G 8G10G13G19G27G28
  -5508205.02749  -4286759.05948  21250770.3774   21250768.9674
       342.6074
    542912.03949    423082.56647  24262098.8614   24262098.6074
     -1535.6294
  14373152.06649  11187815.64547  22831286.3694   22831285.8344
     -3922.6704
   -844094.52349   -654319.44947  23024852.4394   23024849.1464
     -1488.3244
    861605.60249    669173.23848  21319152.2364   21319150.5184
      -790.1544
  -8825120.55949  -6872250.73847  22629391.5494   22629390.0924
      1363.2344
 04  9 16 22 25  0.0020000  0  6G 8G10G13G19G27G28
  -5513279.71949  -4290713.35948  21249804.7214   21249803.7054
       338.3134
    566077.15649    441133.30147  24266507.1664   24266506.6784
     -1544.3414
  14432073.75849  11233728.61747  22842498.8934   22842497.7994
     -3928.1134
   -821627.93449   -636813.01647  23029128.0334   23029124.9164
     -1497.7734
    873518.63749    678456.11748  21321419.3304   21321417.4284
      -794.2024
  -8845493.59449  -6888125.81247  22625514.7994   22625513.0454
      1358.2024
 04  9 16 22 25 15.0020000  0  6G 8G10G13G19G27G28
  -5518288.82849  -4294616.55948  21248851.5334   21248850.1234
       333.9414
    589374.16049    459286.77747  24270940.4394   24270940.7714
     -1553.1344
  14491078.24249  11279706.11347  22853727.1354   22853726.0884
     -3933.6324
   -799018.38749   -619195.17647  23033430.4714   23033427.0144
     -1507.3034
    885493.82049    687787.43048  21323698.0334   21323696.3344
      -798.3464
  -8865789.75849  -6903940.98447  22621652.2834   22621650.7134
      1353.0784
 04  9 16 22 25 30.0020000  0  6G 8G10G13G19G27G28
  -5523233.21949  -4298469.32048  21247910.7834   21247908.8614
       329.6264
    612801.63749    477541.94947  24275398.1194   24275398.4364
     -1561.8324
  14550163.95749  11325746.91847  22864971.1584   22864969.9944
     -3939.0484
   -776267.09849   -601466.89547  23037759.6664   23037756.5254
     -1516.7534
    897530.10249    697166.34848  21325988.6114   21325986.5534
      -802.4194
  -8886010.07049  -6919697.03547  22617804.2914   22617802.4474
      1348.0214
 04  9 16 22 25 45.0020000  0  6G 8G10G13G19G27G28
  -5528112.29349  -4302271.18748  21246982.2364   21246980.7404
       325.2724
    636360.03549    495899.12147  24279882.2444   24279881.9204
     -1570.5604
  14609331.33249  11371851.32447  22876229.9324   22876228.7994
     -3944.4924
   -753373.50449   -583627.72347  23042116.0414   23042112.8854
     -1526.2404
    909628.11349    706593.37548  21328290.6114   21328288.8774
      -806.5344
  -8906154.03149  -6935393.60947  22613971.2994   22613969.4084
      1342.9314
 04  9 16 22 26  0.0020000  0  6G 8G10G13G19G27G28
  -5532925.54349  -4306021.77348  21246066.1824   21246064.7094
       320.8834
    660049.32449    514358.30147  24284390.1584   24284390.2094
     -1579.2864
  14668580.25049  11418019.28947  22887504.4714   22887503.7834
     -3949.9284
   -730337.52049   -565677.60547  23046499.8224   23046496.7254
     -1535.7324
    921788.06649    716068.66448  21330604.6434   21330602.8694
      -810.6644
  -8926221.38349  -6951030.47747  22610152.5024   22610150.6354
      1337.8234
 04  9 16 22 26 15.0020000  0  6G 8G10G13G19G27G28
  -5537675.12149  -4309722.73848  21245162.5724   21245160.7364
       316.6394
    683867.05149    532917.55147  24288922.9244   24288922.7644
     -1587.8484
  14727908.17249  11464248.80947  22898794.8144   22898793.9394
     -3955.1954
   -707161.46149   -547618.34047  23050910.1744   23050907.3574
     -1545.0714
    934007.98849    725590.68448  21332930.3464   21332928.2324
      -814.6614
  -8946214.26249  -6966609.32447  22606348.1894   22606346.0684
      1332.8594
 04  9 16 22 26 30.0020000  0  6G 8G10G13G19G27G28
  -5542357.39849  -4313371.25848  21244271.4634   21244269.9904
       312.1524
    707816.67649    551579.57447  24293479.1354   24293480.2874
     -1596.6424
  14787318.53949  11510542.57447  22910099.9554   22910099.2914
     -3960.6914
   -683841.92649   -529447.27047  23055347.6354   23055344.5804
     -1554.6364
    946291.44949    735162.21548  21335267.4864   21335265.8894
      -818.8974
  -8966129.09849  -6982127.35247  22602558.6744   22602556.5964
      1327.6564
 04  9 16 22 26 45.0020000  0  6G 8G10G13G19G27G28
  -5546973.75049  -4316968.41048  21243393.2604   21243391.5724
       307.7574
    731896.57049    570343.12147  24298062.5494   24298061.4394
     -1605.3264
  14846809.69549  11556899.30547  22921420.5104   22921419.8464
     -3966.0774
   -660380.26649   -511165.46547  23059812.0254   23059809.2754
     -1564.1114
    958637.25849    744782.32048  21337616.6434   21337615.0884
      -823.0544
  -8985967.13749  -6997585.54347  22598783.3384   22598781.3614
      1322.5364
 04  9 16 22 27  0.0020000  0  6G 8G10G13G19G27G28
  -5551523.55149  -4320513.70348  21242527.2524   21242525.6394
       303.3204
    756106.98849    589208.38346  24302668.9324   24302668.4364
     -1614.0284
  14906381.67649  11603318.99247  22932757.3544   22932756.0214
     -3971.4654
   -636776.09049   -492772.59047  23064303.6744   23064300.9514
     -1573.6124
    971045.92649    754451.40648  21339978.2294   21339976.4394
      -827.2454
  -9005727.89849  -7012983.51247  22595022.8224   22595021.0294
      1317.3844
 04  9 16 22 27 15.0020000  0  6G 8G10G13G19G27G28
  -5556005.27049  -4324005.93748  21241674.2834   21241673.0964
       298.7814
    780449.05149    608176.20746  24307301.4244   24307300.5684
     -1622.8044
  14966035.57449  11649802.52747  22944108.3544   22944108.4084
     -3976.9274
   -613028.28949   -474267.81247  23068823.0574   23068820.0254
     -1583.1874
    983518.78149    764170.52048  21342351.7604   21342349.9244
      -831.5244
  -9025409.98049  -7028320.17647  22591277.5184   22591275.5684
      1312.1394
 04  9 16 22 27 30.0020000  0  6G 8G10G13G19G27G28
  -5560422.18049  -4327447.68048  21240833.9164   21240832.1434
       294.4614
    804919.15649    627243.80547  24311957.4714   24311957.3184
     -1631.3404
  15025767.89149  11696347.15247  22955475.5884   22955475.0104
     -3982.1544
   -589140.21949   -455653.73847  23073368.7604   23073365.3114
     -1592.5384
    996052.68049    773937.18848  21344736.5494   21344735.1824
      -835.5934
  -9045016.70349  -7043598.11747  22587546.3464   22587544.4434
      1307.1154
 04  9 16 22 27 45.0020000  0  6G 8G10G13G19G27G28
  -5564773.87549  -4330838.60248  21240005.5574   21240004.4944
       290.1134
    829517.54749    646411.36347  24316638.7914   24316639.0804
     -1639.8934
  15085578.59049  11742952.86747  22966857.2134   22966856.2484
     -3987.3804
   -565111.69149   -436930.21547  23077941.1504   23077937.8694
     -1601.9024
   1008648.17249    783751.85548  21347133.5884   21347131.4714
      -839.6994
  -9064547.69549  -7058817.04747  22583829.7364   22583828.3544
      1302.0664
 04  9 16 22 28  0.0020000  0  6G 8G10G13G19G27G28
  -5569060.43749  -4334178.77348  21239190.3224   21239188.6974
       285.7714
    854243.60249    665678.40247  24321344.3854   24321344.1894
     -1648.4044
  15145467.08249  11789619.19947  22978253.5574   22978252.8184
     -3992.5664
   -540943.03149   -418097.49247  23082540.8144   23082537.2484
     -1611.2444
   1021304.78149    793614.15248  21349542.0254   21349540.3964
      -843.7744
  -9084003.19149  -7073977.14847  22580127.6194   22580125.6044
      1297.0334
 04  9 16 22 28 15.0020000  0  6G 8G10G13G19G27G28
  -5573283.92249  -4337469.79748  21238386.4084   21238385.0294
       281.5664
    879095.18449    685043.26647  24326072.9164   24326073.4084
     -1656.7724
  15205431.12949  11836344.39847  22989664.2914   22989663.6784
     -3997.6034
   -516636.25849   -399157.16047  23087166.2294   23087162.3814
     -1620.4524
   1034020.75049    803522.69548  21351961.9084   21351960.0964
      -847.7314
  -9103385.09849  -7089079.91447  22576439.5964   22576437.4044
      1292.1274
 04  9 16 22 28 30.0020000  0  6G 8G10G13G19G27G28
  -5577445.49649  -4340712.58248  21237594.4554   21237592.7484
       277.4384
    904070.77749    704504.76247  24330825.1044   24330825.9084
     -1665.0404
  15265469.23449  11883127.30947  23001089.1114   23001088.7714
     -4002.5404
   -492192.84449   -380110.34847  23091817.1664   23091814.4984
     -1629.5614
   1046794.90649    813476.58648  21354392.7054   21354390.9984
      -851.6104
  -9122694.80149  -7104126.40247  22572764.9004   22572763.1044
      1287.3144
 04  9 16 22 28 45.0020000  0  6G 8G10G13G19G27G28
  -5581542.18049  -4343904.79748  21236814.7054   21236813.2404
       273.1124
    929172.89549    724064.84047  24335602.6664   24335602.3654
     -1673.4744
  15325583.80949  11929969.80947  23012528.8074   23012527.8894
     -4007.6384
   -467610.25049   -360955.08647  23096495.2754   23096492.0534
     -1638.8404
   1059630.03149    823477.97748  21356835.0964   21356833.3184
      -855.6754
  -9141929.47749  -7119114.44547  22569104.5184   22569102.8654
      1282.3124
 04  9 16 22 29  0.0020000  0  6G 8G10G13G19G27G28
  -5585574.87149  -4347047.14548  21236047.4634   21236045.8814
       268.8464
    954400.40649    743722.62546  24340402.8224   24340402.7174
     -1681.8344
  15385773.68849  11976870.98047  23023982.5574   23023981.6664
     -4012.6594
   -442889.39149   -341692.08247  23101199.0884   23101196.1504
     -1648.0574
   1072525.33249    833526.27048  21359289.0884   21359287.1744
      -859.6874
  -9161090.00449  -7134044.69547  22565458.1194   22565456.6154
      1277.3684
 04  9 16 22 29 15.0020000  0  6G 8G10G13G19G27G28
  -5589542.23449  -4350138.59048  21235292.5104   21235290.9754
       264.4914
    979754.29749    763478.87546  24345227.9394   24345227.3854
     -1690.2594
  15446039.69149  12023831.47747  23035450.7834   23035449.8814
     -4017.7344
   -418029.23449   -322320.53547  23105929.9474   23105927.2794
     -1657.3444
   1085482.10949    843622.46148  21361754.5964   21361753.1074
      -863.7854
  -9180175.04349  -7148916.13347  22561826.7134   22561824.6154
      1272.3364
 04  9 16 22 29 30.0020000  0  6G 8G10G13G19G27G28
  -5593442.78149  -4353177.97348  21234550.2994   21234548.7954
       260.0364
   1005235.81349    783334.60247  24350077.0884   24350076.1434
     -1698.7684
  15506383.00049  12070852.20747  23046933.0964   23046932.5924
     -4022.8874
   -393028.45349   -302839.41847  23110687.6894   23110684.3264
     -1666.7194
   1098501.78549    853767.66448  21364231.9004   21364230.5494
      -867.9784
  -9199183.19549  -7163727.65647  22558209.2834   22558207.1154
      1267.2104
 04  9 16 22 29 45.0020000  0  6G 8G10G13G19G27G28
  -5597276.30949  -4356165.13348  21233820.8304   21233819.1114
       255.5684
   1030844.79349    803289.64547  24354950.1044   24354949.8184
     -1707.2654
  15566803.47749  12117933.06647  23058431.0254   23058430.3964
     -4028.0324
   -367887.04349   -283248.72747  23115472.1744   23115468.2834
     -1676.0944
   1111584.64849    863962.10548  21366721.8774   21366720.2364
      -872.1914
  -9218114.34849  -7178479.17647  22554606.8614   22554605.1934
      1262.0774
 04  9 16 22 30  0.0020000  0  6G 8G10G13G19G27G28
  -5601038.51649  -4359096.71548  21233104.8304   21233103.3654
       250.8144
   1056585.13749    823347.03547  24359848.6894   24359847.8464
     -1716.0234
  15627304.80549  12165076.93047  23069944.1824   23069943.2134
     -4033.4224
   -342601.07449   -263545.37947  23120283.7294   23120280.5294
     -1685.7314
   1124734.85949    874209.02348  21369224.0804   21369222.3894
      -876.6814
  -9236964.41849  -7193167.51647  22551019.6584   22551018.0144
      1256.6714
 04  9 16 22 30 15.0030000  0  6G 8G10G13G19G27G28
  -5604731.20349  -4361974.12548  21232402.0384   21232400.2964
       246.1794
   1082456.72749    843506.74647  24364771.1714   24364771.3234
     -1724.7734
  15687889.18449  12212285.51647  23081472.8514   23081472.2294
     -4038.9594
   -317170.39149   -243729.26647  23125123.3354   23125120.0264
     -1695.3794
   1137951.75449    884507.90248  21371739.4054   21371737.5654
      -881.1264
  -9255736.15649  -7207794.82047  22547447.5774   22547446.0934
      1251.4494
 04  9 16 22 30 30.0030000  0  6G 8G10G13G19G27G28
  -5608358.07049  -4364800.25848  21231712.0224   21231710.3274
       241.7914
   1108451.74249    863762.55547  24369717.6634   24369717.7374
     -1733.0014
  15748544.07049  12259549.02747  23093015.3744   23093014.2724
     -4043.6594
   -291602.82049   -223806.49247  23129988.2574   23129985.7184
     -1704.5054
   1151229.53149    894854.21948  21374266.0934   21374264.1244
      -885.1854
  -9274431.25049  -7222362.40247  22543890.0074   22543887.9684
      1246.3404
 04  9 16 22 30 45.0030000  0  6G 8G10G13G19G27G28
  -5611917.57049  -4367573.89148  21231034.8044   21231033.0854
       237.3004
   1134573.37549    884117.04747  24374688.4764   24374689.6364
     -1741.4424
  15809274.91449  12306871.72747  23104572.2884   23104571.4374
     -4048.7234
   -265895.12549   -203774.54347  23134880.7414   23134877.3234
     -1713.8464
   1164570.82049    905250.03948  21376804.8584   21376803.2334
      -889.4194
  -9293049.19949  -7236869.87547  22540347.3974   22540345.4564
      1241.1974
 04  9 16 22 31  0.0030000  0  6G 8G10G13G19G27G28
  -5615406.98849  -4370292.91448  21230370.6794   21230369.0464
       232.6284
   1160823.84049    904571.93847  24379684.6874   24379685.4134
     -1750.0314
  15870084.00849  12354255.39847  23116143.6794   23116142.4874
     -4053.9404
   -240044.93749   -183631.55147  23139799.8194   23139796.6944
     -1723.3464
   1177978.16849    915697.32848  21379355.9604   21379354.4684
      -893.8234
  -9311587.46949  -7251315.25047  22536819.2884   22536817.4444
      1235.8854
 04  9 16 22 31 15.0030000  0  6G 8G10G13G19G27G28
  -5618827.16049  -4372957.97748  21229719.7024   21229718.1124
       228.0114
   1187201.88749    925126.22747  24384704.3824   24384704.3624
     -1758.5364
  15930970.10949  12401699.07847  23127729.6404   23127729.0544
     -4059.0734
   -214053.22349   -163378.27047  23144745.4764   23144742.7764
     -1732.7814
   1191450.80149    926195.48048  21381919.8434   21381917.9954
      -898.1764
  -9330046.91449  -7265699.21547  22533306.6714   22533305.2454
      1230.6304
 04  9 16 22 31 30.0030000  0  6G 8G10G13G19G27G28
  -5622180.02049  -4375570.58648  21229081.5694   21229079.7964
       223.5244
   1213705.44949    945778.36746  24389747.1554   24389747.2224
     -1766.9044
  15991931.00049  12449201.04747  23139330.4834   23139329.4374
     -4064.0594
   -187922.00049   -143016.28547  23149718.2884   23149715.1554
     -1742.0824
   1204986.89549    936743.08648  21384495.5694   21384493.9914
      -902.4064
  -9348429.45749  -7280023.24247  22529808.4374   22529806.7104
      1225.5034
 04  9 16 22 31 45.0030000  0  6G 8G10G13G19G27G28
  -5625463.42249  -4378129.08248  21228457.0224   21228455.6014
       218.8934
   1240336.31349    966529.67247  24394815.4294   24394814.4374
     -1775.3914
  16052968.30149  12496762.53547  23150945.7574   23150944.8314
     -4069.1534
   -161649.67649   -122544.35547  23154717.4764   23154714.7454
     -1751.4884
   1218588.41049    947341.67248  21387083.8664   21387082.1084
      -906.7684
  -9366733.25849  -7294285.92247  22526325.5854   22526323.7024
      1220.2534
 04  9 16 22 32  0.0030000  0  6G 8G10G13G19G27G28
  -5628677.43049  -4380633.50048  21227845.4994   21227844.0384
       214.2674
   1267094.08249    987379.89146  24399905.9914   24399905.4644
     -1783.8514
  16114081.76249  12544383.37947  23162575.1084   23162574.1014
     -4074.2314
   -135236.23449   -101962.46147  23159744.0854   23159740.9214
     -1760.8964
   1232255.37549    957991.25848  21389684.6474   21389683.0974
      -911.1314
  -9384958.30149  -7308487.22347  22522856.9604   22522855.3664
      1215.0034
 04  9 16 22 32 15.0030000  0  6G 8G10G13G19G27G28
  -5631822.48049  -4383084.18448  21227247.0224   21227245.3234
       209.6704
   1293977.86349   1008328.29747  24405022.1404   24405022.2454
     -1792.2524
  16175270.33249  12592062.76247  23174219.0074   23174218.1944
     -4079.2384
   -108682.52049    -81271.26647  23164796.6944   23164793.8394
     -1770.2484
   1245987.21149    968691.39148  21392297.9684   21392296.1794
      -915.4564
  -9403105.13349  -7322627.59447  22519403.9834   22519402.3044
      1209.7894
 04  9 16 22 32 30.0030000  0  6G 8G10G13G19G27G28
  -5634896.62949  -4385479.62548  21226661.7414   21226660.1284
       204.9434
   1320989.19949   1029376.06647  24410162.4604   24410162.4764
     -1800.7564
  16236535.38349  12639801.72747  23185877.4214   23185876.4684
     -4084.3374
    -81986.85249    -60469.44547  23169877.0854   23169873.9444
     -1779.7114
   1259785.86349    979443.58648  21394923.7884   21394921.6714
      -919.9104
  -9421171.96549  -7336705.61347  22515965.8274   22515964.3904
      1204.4554
 04  9 16 22 32 45.0030000  0  6G 8G10G13G19G27G28
  -5637903.58649  -4387822.69948  21226089.6014   21226088.0264
       200.4644
   1348123.97749   1050520.04347  24415326.6714   24415326.5424
     -1808.9854
  16297872.93049  12687597.18847  23197549.5774   23197548.1904
     -4089.1704
    -55153.21549    -39560.12947  23174982.9134   23174980.0544
     -1788.9094
   1273647.57049    990244.91848  21397561.1554   21397559.5504
      -924.1144
  -9439162.62549  -7350724.29347  22512542.5694   22512540.5074
      1199.3774
 04  9 16 22 33  0.0030000  0  6G 8G10G13G19G27G28
  -5640843.86749  -4390113.82448  21225530.3824   21225528.7064
       196.0194
   1375381.85549   1071759.88747  24420513.7884   24420513.9444
     -1817.1924
  16359282.41449  12735448.69947  23209235.2724   23209234.8124
     -4093.9664
    -28181.94949    -18543.57047  23180115.4994   23180113.0384
     -1798.0844
   1287572.12949   1001095.21548  21400210.8584   21400209.3154
      -928.3044
  -9457077.35249  -7364683.79747  22509132.9054   22509131.2694
      1194.3154
 04  9 16 22 33 15.0030000  0  6G 8G10G13G19G27G28
  -5643716.44949  -4392352.19948  21224983.6164   21224981.4604
       191.5054
   1402762.92649   1093095.80947  24425723.5774   24425724.2764
     -1825.4054
  16420764.13749  12783356.51647  23220934.9684   23220934.0304
     -4098.7824
     -1072.68749      2580.52747  23185274.3904   23185271.6364
     -1807.2844
   1301560.24249   1011995.05148  21402872.6554   21402871.0774
      -932.5414
  -9474915.52749  -7378583.64147  22505739.2184   22505736.8824
      1189.2124
 04  9 16 22 33 30.0030000  0  6G 8G10G13G19G27G28
  -5646523.16449  -4394539.24648  21224449.3124   21224447.5544
       187.1144
   1430265.38349   1114526.29347  24430957.8584   24430957.5264
     -1833.4974
  16482315.96549  12831318.94947  23232647.7334   23232647.4764
     -4103.4554
     26172.53549     23810.57047  23190459.2964   23190455.8274
     -1816.3484
   1315610.05949   1022942.95748  21405546.4214   21405544.7104
      -936.6544
  -9492678.99249  -7392425.28147  22502358.7104   22502357.0114
      1184.2314
 04  9 16 22 33 45.0030000  0  6G 8G10G13G19G27G28
  -5649260.84449  -4396672.49648  21223928.4914   21223926.6404
       182.5124
   1457891.82849   1136053.37946  24436214.2414   24436213.7804
     -1841.7634
  16543940.63349  12879338.12547  23244374.8354   23244374.0264
     -4108.3114
     53556.66449     45148.85247  23195670.3744   23195667.3744
     -1825.6094
   1329724.76649   1033941.43448  21408232.4604   21408231.0114
      -940.9804
  -9510364.69949  -7406206.32847  22498993.1164   22498991.2844
      1179.0474
 04  9 16 22 34  0.0030000  0  6G 8G10G13G19G27G28
  -5651932.11349  -4398754.00048  21223419.9524   21223418.5544
       178.0854
   1485639.31349   1157674.78946  24441494.5854   24441493.4684
     -1849.8324
  16605634.98449  12927411.61747  23256115.0304   23256114.2414
     -4112.9574
     81076.92649     66593.21147  23200906.9764   23200903.9524
     -1834.6844
   1343901.71549   1044988.40248  21410930.0934   21410928.5424
      -945.1304
  -9527975.37549  -7419928.90647  22495642.3584   22495640.1514
      1174.0454
 04  9 16 22 34 15.0030000  0  6G 8G10G13G19G27G28
  -5654533.96549  -4400781.41048  21222925.0694   21222923.3784
       173.4574
   1513510.43049   1179392.53546  24446798.1084   24446796.7294
     -1858.0744
  16667401.77749  12975541.55147  23267868.2964   23267868.1204
     -4117.7864
    108736.03949     88145.76247  23206170.2334   23206167.4914
     -1843.9414
   1358143.97349   1056086.27048  21413640.2724   21413638.5694
      -949.4844
  -9545507.94549  -7433590.63347  22492306.0934   22492304.0934
      1168.8384
 04  9 16 22 34 30.0030000  0  6G 8G10G13G19G27G28
  -5657067.75449  -4402755.78948  21222442.4214   21222440.9834
       168.9194
   1541503.53949   1201205.35946  24452124.9994   24452124.2614
     -1866.2074
  16729239.27349  13023726.56347  23279636.1164   23279635.5264
     -4122.5004
    136532.39549    109805.27047  23211459.6084   23211457.1714
     -1853.0904
   1372450.19549   1067233.97748  21416362.9214   21416360.9994
      -953.7484
  -9562963.90649  -7447192.65647  22488983.9054   22488981.8314
      1163.7314
 04  9 16 22 34 45.0030000  0  6G 8G10G13G19G27G28
  -5659536.96549  -4404679.84448  21221973.0074   21221971.2724
       164.6144
   1569614.91049   1223110.31647  24457475.3974   24457474.7804
     -1874.0914
  16791143.60949  13071963.67247  23291415.8824   23291415.7454
     -4126.9564
    164462.39549    131568.89147  23216774.9914   23216771.8434
     -1862.0004
   1386816.82049   1078428.75448  21419096.6874   21419095.0504
      -957.7754
  -9580346.79349  -7460737.73847  22485675.8044   22485673.9404
      1158.8594
 04  9 16 22 35  0.0030000  0  6G 8G10G13G19G27G28
  -5661939.73849  -4406552.12548  21221515.4604   21221513.9014
       160.1854
   1597846.17649   1245108.67247  24462847.1554   24462848.0814
     -1882.0844
  16853116.36749  13120254.09847  23303208.7654   23303208.2654
     -4131.5174
    192527.77049    153438.01647  23222115.3664   23222112.6044
     -1871.0254
   1401245.94949   1089672.23048  21421842.5384   21421840.8154
      -961.9424
  -9597654.70749  -7474224.40647  22482382.6084   22482380.2144
      1153.8614
 04  9 16 22 35 15.0030000  0  6G 8G10G13G19G27G28
  -5664273.70749  -4408370.79348  21221071.5154   21221069.7024
       155.5984
   1626199.21149   1267201.91847  24468242.8274   24468242.8274
     -1890.2024
  16915159.48849  13168599.34047  23315015.6404   23315014.5114
     -4136.2084
    220730.40249    175414.09447  23227482.0224   23227479.1634
     -1880.1764
   1415739.63749   1100966.01248  21424600.6244   21424598.6474
      -966.2464
  -9614885.55149  -7487651.01247  22479103.6404   22479101.4994
      1148.7234
 04  9 16 22 35 30.0030000  0  7G31G 8G10G13G19G27G28
   -120005.98859    -82235.47756  24902338.5304   24902341.0194

  -5666540.28149  -4410136.95748  21220639.9994   21220638.4254
       151.1054
   1654672.16049   1289388.62946  24473660.5074   24473660.7294
     -1898.1974
  16977270.96949  13216997.86347  23326835.0304   23326834.3544
     -4140.7654
    249068.50449    197495.73047  23232874.9214   23232871.8514
     -1889.2074
   1430296.44149   1112308.97748  21427370.5934   21427368.8744
      -970.4544
  -9632040.93449  -7501018.81647  22475838.7724   22475836.7534
      1143.6924
 04  9 16 22 35 45.0030000  0  7G31G 8G10G13G19G27G28
   -166908.06649   -118782.41046  24893412.9914   24893416.4524
      3126.8054
  -5668741.23449  -4411851.98048  21220221.4914   21220219.8274
       146.7304
   1683262.81649   1311667.03146  24479100.9444   24479100.5424
     -1906.0444
  17039448.85249  13265448.12547  23338666.8664   23338666.2654
     -4145.1924
    277540.23449    219681.50047  23238292.7104   23238289.6714
     -1898.1154
   1444914.72749   1123699.84448  21430152.4764   21430150.3974
      -974.5524
  -9649122.47349  -7514329.09047  22472588.4684   22472586.5504
      1138.7694
 04  9 16 22 36  0.0030000  0  7G31G 8G10G13G19G27G28
   -213802.69949   -155323.52046  24884489.6164   24884492.0734
      3126.3094
  -5670873.44949  -4413513.43748  21219815.8354   21219814.0894
       142.1484
   1711974.01249   1334039.39846  24484564.4834   24484563.3434
     -1914.0804
  17101695.53549  13313951.98447  23350512.0774   23350511.6944
     -4149.7794
    306148.35249    241973.53947  23243736.4604   23243733.3744
     -1907.2084
   1459597.44149   1135140.92648  21432946.2724   21432944.3744
      -978.8484
  -9666127.19949  -7527579.50447  22469352.4444   22469350.4724
      1133.6484
 04  9 16 22 36 15.0030000  0  7G31G 8G10G13G19G27G28
   -260691.45749   -191860.07846  24875566.4914   24875568.9794
      3125.9174
  -5672938.63749  -4415122.68048  21219422.4684   21219420.8864
       137.6794
   1740803.57449   1356503.97347  24490051.1404   24490049.9834
     -1921.9714
  17164008.92249  13362507.82847  23362370.2804   23362369.7374
     -4154.2264
    334890.85249    264370.29747  23249206.3664   23249203.0624
     -1916.1674
   1474342.78549   1146630.80548  21435751.9994   21435750.6874
      -983.0234
  -9683057.19949  -7540771.69147  22466130.5384   22466129.0584
      1128.6674
 04  9 16 22 36 30.0030000  0  8G31G 8G10G13G19G29G27G28
   -307576.34449   -228393.62146  24866644.6794   24866647.1084
      3125.6594
  -5674939.12549  -4416681.48448  21219041.7104   21219040.1284
       133.3664
   1769748.93049   1379058.78546  24495559.2104   24495558.6754
     -1929.6904
  17226386.32049  13411113.56347  23374240.1634   23374239.2024
     -4158.4934
    363765.22349    286869.80547  23254700.6404   23254697.5154
     -1924.9584
    -92501.12959    -63081.02056  25082330.7104   25082330.5034

   1489148.57049   1158167.77748  21438569.8744   21438568.1554
      -987.0524
  -9699914.70349  -7553907.38347  22462922.9524   22462921.0774
      1123.8344
 04  9 16 22 36 45.0030000  0  8G31G 8G10G13G19G29G27G28
   -354453.28949   -264920.96546  24857724.3584   24857726.9644
      3125.1304
  -5676870.99249  -4418186.83248  21218674.3974   21218672.9404
       128.7914
   1798813.61749   1401706.58646  24501090.0074   24501088.9914
     -1937.6464
  17288831.38749  13459772.00847  23386123.2884   23386122.5894
     -4163.0044
    392775.16449    309474.95747  23260221.1084   23260218.3824
     -1933.9964
   -128724.06649    -91306.65246  25075436.8434   25075437.3974
      2414.8634
   1504018.72749   1169754.90648  21441399.3664   21441397.5194
      -991.3444
  -9716695.81249  -7566983.55947  22459729.5384   22459727.2104
      1118.7414
 04  9 16 22 37  0.0030000  0  8G31G 8G10G13G19G29G27G28
   -401324.25449   -301443.63346  24848804.7884   24848807.1834
      3124.7314
  -5678736.62549  -4419640.56248  21218319.1474   21218317.5694
       124.3764
   1827995.03549   1424445.32846  24506643.1324   24506643.1364
     -1945.4284
  17351341.37149  13508481.05547  23398018.6634   23398017.7924
     -4167.3324
    421918.04749    332183.69547  23265766.8434   23265763.9294
     -1942.8594
   -164908.18749   -119502.03146  25068552.5304   25068551.5814
      2412.2754
   1518950.75449   1181390.26248  21444240.8514   21444239.5654
      -995.4684
  -9733402.97749  -7580002.10547  22456550.4994   22456547.9524
      1113.8114
 04  9 16 22 37 15.0030000  0  8G31G 8G10G13G19G29G27G28
   -448188.35549   -337960.94946  24839886.4914   24839889.5734
      3124.2734
  -5680535.08249  -4421041.96148  21217977.0694   21217975.2184
       119.8974
   1857293.44149   1447275.24247  24512218.6554   24512217.9014
     -1953.2274
  17413916.53549  13557240.87947  23409925.8434   23409925.5934
     -4171.6784
    451194.40249    354996.44947  23271338.0934   23271335.1084
     -1951.7574
   -201052.51249   -147666.42246  25061673.6634   25061673.2724
      2409.6224
   1533945.54349   1193074.51248  21447094.5694   21447092.8434
      -999.6534
  -9750035.53149  -7592962.52047  22453385.1164   22453383.3544
      1108.8374
 04  9 16 22 37 30.0030000  0  8G31G 8G10G13G19G29G27G28
   -495045.54749   -374472.94546  24830969.7574   24830972.8514
      3123.8134
  -5682266.65649  -4422391.23448  21217647.4764   21217645.9134
       115.4384
   1886708.24649   1470195.89146  24517814.8664   24517815.4834
     -1960.9874
  17476556.34449  13606051.07847  23421846.0854   23421845.6634
     -4175.9874
    480603.71149    377912.78947  23276934.3584   23276931.2494
     -1960.6214
   -237157.10249   -175799.85546  25054802.8904   25054802.9794
      2406.9734
   1549002.77749   1204807.41848  21449959.7024   21449957.8864
     -1003.8164
  -9766593.71549  -7605864.96147  22450234.3664   22450232.2654
      1103.8794
 04  9 16 22 37 45.0030000  0  8G31G 8G10G13G19G29G27G28
   -541893.10249   -410977.36346  24822055.1634   24822057.5304
      3123.1704
  -5683928.88749  -4423686.46948  21217331.1014   21217329.2534
       110.8154
   1916241.65749   1493208.84846  24523436.0854   24523436.0194
     -1968.8944
  17539263.02349  13654913.39547  23433778.5624   23433778.3704
     -4180.4454
    510148.30149    400934.54747  23282556.6794   23282553.6124
     -1969.6394
   -273219.24249   -203900.20746  25047940.4214   25047940.4874
      2404.1434
   1564125.07049   1216591.02748  21452837.2414   21452835.6984
     -1008.1534
  -9783075.02749  -7618707.52347  22447097.9994   22447095.5114
      1098.7544
 04  9 16 22 38  0.0030000  0  8G31G 8G10G13G19G29G27G28
   -588729.03149   -447472.75046  24813142.5854   24813144.6444
      3122.3954
  -5685519.91849  -4424926.23448  21217028.3824   21217026.8314
       106.0694
   1945894.99649   1516315.37146  24529079.0384   24529078.3544
     -1976.8894
  17602037.74649  13703828.70747  23445724.7264   23445724.2334
     -4184.9824
    539829.55149    424062.80147  23288204.7334   23288202.0694
     -1978.7504
   -309237.05949   -231966.01246  25041087.8194   25041085.8904
      2401.1884
   1579314.13349   1228426.65648  21455727.7184   21455726.0384
     -1012.6044
  -9799477.93749  -7631489.00047  22443976.6794   22443974.1554
      1093.5274
 04  9 16 22 38 15.0030000  0  8G31G 8G10G13G19G29G27G28
   -635553.87549   -483959.49246  24804230.8124   24804233.8624
      3121.6564
  -5687040.68449  -4426111.24648  21216738.9834   21216737.4094
       101.3844
   1975667.27049   1539514.52746  24534743.7104   24534743.7804
     -1984.8184
  17664879.41449  13752796.20347  23457682.8744   23457682.8514
     -4189.4454
    569646.59049    447296.85947  23293878.5074   23293875.8584
     -1987.8034
   -345211.10249   -259997.71946  25034241.6474   25034240.8044
      2398.2704
   1594569.12149   1240313.66448  21458630.6164   21458629.1594
     -1016.9994
  -9815803.30149  -7644210.04347  22440869.9054   22440867.7334
      1088.3584
 04  9 16 22 38 30.0030000  0  8G31G 8G10G13G19G29G27G28
   -682365.00449   -520435.56246  24795323.8044   24795326.0774
      3120.7424
  -5688488.74249  -4427239.59448  21216463.1474   21216461.6984
        96.5374
   2005560.45749   1562807.90647  24540432.7494   24540432.2224
     -1992.8794
  17727789.71549  13801817.17647  23469654.2804   23469653.8004
     -4194.0204
    599601.50049    470638.34047  23299578.9444   23299576.1944
     -1996.9944
   -381138.81249   -287993.30146  25027404.3124   25027403.8784
      2395.1814
   1609892.43449   1252253.90648  21461546.5304   21461544.6834
     -1021.5544
  -9832048.80949  -7656868.85947  22437778.7724   22437776.6244
      1083.0344
 04  9 16 22 38 45.0030000  0  8G31G 8G10G13G19G29G27G28
   -729164.08649   -556902.25846  24786418.5384   24786420.2064
      3119.9394
  -5689865.66049  -4428312.50848  21216201.4294   21216199.7104
        91.7954
   2035572.48049   1586193.88347  24546144.0694   24546143.5584
     -2000.8024
  17790766.94149  13850890.30147  23481638.4294   23481637.6874
     -4198.4824
    629692.13749    494085.59047  23305305.4994   23305302.3234
     -2006.0424
   -417021.78149   -315954.02346  25020575.5934   25020575.5304
      2392.1984
   1625282.29349   1264246.00448  21464475.2574   21464473.4724
     -1025.9914
  -9848216.37549  -7669466.93447  22434701.9764   22434699.8584
      1077.8384
 04  9 16 22 39  0.0030000  0  8G31G 8G10G13G19G29G27G28
   -775944.99249   -593354.77746  24777516.1794   24777517.5424
      3118.7274
  -5691165.73049  -4429325.55148  21215954.1554   21215952.2574
        86.6714
   2065708.65249   1609676.60546  24551878.3584   24551877.9564
     -2009.0784
  17853816.38749  13900019.69147  23493636.4684   23493636.0304
     -4203.2964
    659924.08249    517642.94947  23311057.7184   23311055.0624
     -2015.4634
   -452854.01249   -343875.20746  25013757.8274   25013756.5464
      2388.8154
   1640744.46549   1276294.45348  21467417.2804   21467415.9954
     -1030.8114
  -9864300.10949  -7681999.69947  22431641.2264   22431639.0114
      1072.2494
 04  9 16 22 39 15.0030000  0  8G31G 8G10G13G19G29G27G28
   -822712.33649   -629796.73046  24768616.3824   24768617.9334
      3117.8234
  -5692394.07849  -4430282.70348  21215720.3744   21215718.8394
        81.8904
   2095963.75849   1633251.99647  24557636.6014   24557635.6754
     -2017.0074
  17916932.66849  13949201.17247  23505647.2964   23505646.6794
     -4207.7524
    690292.25849    541306.46147  23316836.7884   23316834.0464
     -2024.5454
   -488640.14549   -371760.50046  25006947.3124   25006946.2924
      2385.7424
   1656274.02049   1288395.40248  21470372.7104   21470371.3434
     -1035.3044
  -9880305.14849  -7694471.13347  22428595.6474   22428593.7804
      1067.0034
 04  9 16 22 39 30.0030000  0  8G31G 8G10G13G19G29G27G28
   -869462.48849   -666225.30946  24759720.3044   24759721.3084
      3116.6774
  -5693547.06649  -4431181.13348  21215500.9294   21215499.4174
        76.8664
   2126340.91449   1656922.50847  24563416.4374   24563415.8354
     -2025.1444
  17980118.80949  13998437.08247  23517671.2414   23517670.5154
     -4212.4094
    720799.73449    565078.52347  23322642.0074   23322639.6084
     -2033.8324
   -524376.61749   -399607.09046  25000147.4214   25000145.7574
      2382.4324
   1671874.43849   1300551.57048  21473341.2654   21473339.5694
     -1040.0284
  -9896228.16849  -7706878.66447  22425565.4834   22425563.3624
      1061.5354
 04  9 16 22 39 45.0030000  0  8G31G 8G10G13G19G29G27G28
   -916198.91049   -702643.18446  24750826.1324   24750828.2414
      3115.7614
  -5694628.30149  -4432023.64848  21215295.0934   21215293.4484
        72.0824
   2156836.04749   1680684.92646  24569219.3584   24569219.3624
     -2033.0094
  18043370.80549  14047724.32847  23529707.5384   23529707.0384
     -4216.8004
    751442.67249    588956.12547  23328473.8904   23328470.3824
     -2042.8624
   -560066.78149   -427417.58247  24993355.7654   24993354.7224
      2379.3444
   1687542.17249   1312760.19148  21476322.9914   21476321.2534
     -1044.5164
  -9912072.83649  -7719225.13747  22422550.2184   22422548.3394
      1056.3114
 04  9 16 22 40  0.0030000  0  8G31G 8G10G13G19G29G27G28
   -962920.18049   -739049.24646  24741935.7264   24741937.1084
      3114.7514
  -5695637.00449  -4432809.64148  21215103.3124   21215101.5894
        67.2474
   2187449.86349   1704539.79747  24575044.7574   24575044.9874
     -2040.9214
  18106689.39849  14097063.43847  23541756.5694   23541756.0384
     -4221.2404
    782221.83649    612939.89847  23334330.5074   23334327.2764
     -2051.9444
   -595709.53149   -455191.14846  24986573.4054   24986572.2654
      2376.1834
   1703278.11749   1325021.96948  21479317.3514   21479316.0424
     -1049.0634
  -9927838.07049  -7731509.71947  22419550.0934   22419548.2884
      1051.0164
 04  9 16 22 40 15.0030000  0  8G31G 8G10G13G19G29G27G28
  -1009625.32449   -775442.74246  24733048.1554   24733049.6244
      3113.6764
  -5696571.82849  -4433538.07448  21214925.3824   21214923.4524
        62.3224
   2218182.80549   1728487.53546  24580893.2654   24580893.3704
     -2048.8634
  18170074.95349  14146454.74247  23553818.2724   23553818.4094
     -4225.7044
    813137.75449    637030.21547  23340213.6164   23340210.3044
     -2061.0614
   -631303.81649   -482926.92246  24979799.3824   24979798.6904
      2372.9524
   1719083.22349   1337337.64148  21482324.7654   21482323.5464
     -1053.6744
  -9943523.13349  -7743731.82047  22416565.1874   22416563.3124
      1045.6714
 04  9 16 22 40 30.0030000  0  8G31G 8G10G13G19G29G27G28
  -1056313.30149   -811822.87546  24724163.2024   24724164.6284
      3112.5324
  -5697432.09449  -4434208.40248  21214761.5154   21214759.9524
        57.3514
   2249035.28149   1752528.39547  24586764.5624   24586764.2374
     -2056.8324
  18233527.82849  14195898.50447  23565893.2724   23565893.2804
     -4230.1924
    844191.05149    661227.58647  23346122.7654   23346119.6674
     -2070.2204
   -666848.64549   -510624.16846  24973034.9764   24973034.8784
      2369.6554
   1734958.19549   1349707.74248  21485345.5464   21485344.2224
     -1058.3324
  -9959127.46949  -7755891.02347  22413596.0854   22413593.7724
      1040.2894
 04  9 16 22 40 45.0030000  0  8G31G 8G10G13G19G29G27G28
  -1102984.89149   -848190.24246  24715282.2804   24715283.2064
      3111.4394
  -5698218.98449  -4434821.55948  21214611.9134   21214610.1044
        52.4594
   2280005.92649   1776661.35547  24592658.3434   24592658.1514
     -2064.7104
  18297046.64849  14245393.64147  23577980.4914   23577980.4404
     -4234.5884
    875380.48049    685531.04347  23352058.0694   23352054.6284
     -2079.2954
   -702344.65249   -538283.38346  24966281.0304   24966279.8704
      2366.4014
   1750902.13749   1362131.59448  21488379.7574   21488378.2654
     -1062.9294
  -9974652.13749  -7767988.15247  22410641.8194   22410639.5344
      1034.9784
 04  9 16 22 41  0.0030000  0  8G31G 8G10G13G19G29G27G28
  -1149638.87949   -884543.90646  24706404.0934   24706405.3194
      3110.2664
  -5698931.65249  -4435376.88348  21214476.2884   21214474.8314
        47.5114
   2311095.29749   1800886.82047  24598574.2264   24598573.5974
     -2072.6254
  18360631.91449  14294940.55147  23590080.4764   23590080.1204
     -4239.0184
    906706.67249    709941.06347  23358018.8974   23358016.2804
     -2088.4134
   -737790.96149   -565903.87546  24959536.0384   24959534.5194
      2363.0874
   1766915.80149   1374609.77048  21491426.9054   21491425.4524
     -1067.5784
  -9990096.18749  -7780022.46147  22407702.8664   22407700.6244
      1029.6034
 04  9 16 22 41 15.0030000  0  8G31G 8G10G13G19G29G27G28
  -1196277.47349   -920885.57046  24697529.1244   24697530.2534
      3109.2404
  -5699572.11749  -4435875.94148  21214354.4134   21214352.8664
        42.6984
   2342300.68049   1825202.69146  24604512.3354   24604511.2264
     -2080.3594
  18424280.85549  14344537.08647  23602192.3274   23602192.4914
     -4243.2634
    938166.85549    734455.48447  23364005.9214   23364002.5224
     -2097.3464
   -773189.55149   -593487.16046  24952799.3514   24952798.4724
      2359.9064
   1782996.83249   1387140.44548  21494486.9604   21494485.4134
     -1072.0694
 -10005462.12149  -7791995.89147  22404778.9294   22404776.5894
      1024.3964
 04  9 16 22 41 30.0030000  0  8G31G 8G10G13G19G29G27G28
  -1242898.58249   -957213.60246  24688656.8434   24688658.8904
      3108.0744
  -5700138.62149  -4436317.36748  21214246.2574   21214244.8824
        37.7674
   2373623.39549   1849609.99647  24610472.7804   24610472.0814
     -2088.1814
  18487994.84049  14394184.32047  23614317.1474   23614316.1514
     -4247.5994
    969762.64149    759075.57047  23370018.2024   23370015.0814
     -2106.3864
   -808538.60249   -621031.84046  24946072.5694   24946071.5384
      2356.6034
   1799147.07449   1399725.05148  21497560.6084   21497559.0624
     -1076.6834
 -10020748.41449  -7803907.26247  22401869.6874   22401867.3474
      1019.0864
 04  9 16 22 41 45.0030000  0  8G31G 8G10G13G19G29G27G28
  -1289502.30949   -993528.08646  24679788.9524   24679789.6244
      3106.9154
  -5700631.45349  -4436701.39148  21214152.4994   21214151.1044
        32.8554
   2405062.91849   1874108.29747  24616455.2964   24616455.0464
     -2095.9684
  18551773.29349  14443881.76647  23626453.4684   23626453.6834
     -4251.8974
   1001493.44549    783800.87147  23376056.2804   23376053.6204
     -2115.3874
   -843838.12949   -648537.94546  24939355.1714   24939354.3904
      2353.3024
   1815366.29749   1412363.40648  21500646.9834   21500645.2924
     -1081.2824
 -10035955.19549  -7815756.68747  22398975.9994   22398973.7414
      1013.7854
 04  9 16 22 42  0.0030000  0  8G31G 8G10G13G19G29G27G28
  -1336084.40649  -1029825.73846  24670924.4684   24670925.7884
      3105.4734
  -5701046.85949  -4437025.08248  21214073.6554   21214072.2294
        27.6944
   2436622.72349   1898700.33247  24622461.6404   24622460.9294
     -2103.9874
  18615619.66849  14493632.14147  23638603.2494   23638602.5654
     -4256.4254
   1033363.02049    808634.30547  23382121.1404   23382118.2414
     -2124.6384
   -879084.00449   -676002.25446  24932648.6244   24932647.1674
      2349.7254
   1831658.31649   1425058.48048  21503747.7414   21503745.6474
     -1086.1354
 -10051078.73849  -7827541.25047  22396097.9764   22396096.0504
      1008.2364
 04  9 16 22 42 15.0030000  0  8G31G 8G10G13G19G29G27G28
  -1382649.60549  -1066110.20346  24662063.1084   24662064.3234
      3104.3474
  -5701389.56649  -4437292.12148  21214008.3744   21214006.5934
        22.8474
   2468297.55949   1923382.01247  24628489.1244   24628488.3974
     -2111.6564
  18679528.76249  14543431.39547  23650764.8824   23650764.5504
     -4260.6064
   1065366.12949    833571.78547  23388211.2184   23388208.1364
     -2133.5414
   -914280.89149   -703428.35946  24925950.5384   24925949.6874
      2346.4594
   1848018.36349   1437806.57448  21506860.2654   21506858.8194
     -1090.6704
 -10066123.95349  -7839264.77347  22393235.3664   22393233.4254
      1003.0144
 04  9 16 22 42 30.0030000  0  8G31G 8G10G13G19G29G27G28
  -1429194.80549  -1102379.08246  24653205.3274   24653207.4994
      3103.0134
  -5701656.57449  -4437500.17648  21213957.4604   21213955.9484
        17.8014
   2500089.98849   1948155.30547  24634538.8974   24634539.1634
     -2119.4954
  18743502.93449  14593281.34847  23662938.3354   23662938.2574
     -4264.9454
   1097505.35949    858615.33647  23394326.6554   23394323.5894
     -2142.6154
   -949425.82849   -730814.02046  24919261.9914   24919262.0504
      2342.9964
   1864449.23849   1450609.84848  21509986.7804   21509985.4764
     -1095.3924
 -10081087.96549  -7850925.03547  22390387.5854   22390385.5504
       997.6014
 04  9 16 22 42 45.0030000  0  8G31G 8G10G13G19G29G27G28
  -1475721.40649  -1138633.48446  24644351.6794   24644353.3124
      3101.7734
  -5701849.67649  -4437650.64148  21213920.7654   21213919.2724
        12.8734
   2531997.91049   1973018.59047  24640610.9214   24640610.9684
     -2127.1954
  18807540.08649  14643180.39147  23675124.2334   23675123.7294
     -4269.1434
   1129778.82849    883763.48847  23400468.2494   23400465.6084
     -2151.5654
   -984520.18749   -758160.24246  24912584.3904   24912583.6164
      2339.6244
   1880949.18849   1463466.94148  21513126.8124   21513125.3544
     -1099.9974
 -10095972.76249  -7862523.55147  22387554.8124   22387552.8974
       992.3204
 04  9 16 22 43  0.0030000  0  8G31G 8G10G13G19G29G27G28
  -1522227.16049  -1174871.66046  24635502.4834   24635503.7184
      3100.3844
  -5701966.93049  -4437742.00848  21213898.6324   21213896.6904
         7.8174
   2564022.95349   1997973.12946  24646704.6244   24646704.6244
     -2135.0034
  18871642.02349  14693129.89547  23687322.7264   23687323.1364
     -4273.4624
   1162188.16049    909017.50847  23406635.5694   23406632.5224
     -2160.6224
  -1019561.64549   -785465.27346  24905915.9444   24905915.9604
      2336.0974
   1897520.34049   1476379.52748  21516280.0624   21516278.4374
     -1104.7434
 -10110776.25449  -7874058.72747  22384738.1554   22384735.7844
       986.8994
 04  9 16 22 43 15.0030000  0  8G31G 8G10G13G19G29G27G28
  -1568715.05149  -1211095.87946  24626655.7654   24626656.9094
      3099.1934
  -5702011.57449  -4437776.78548  21213889.7964   21213888.4684
         2.9764
   2596161.49249   2023016.14546  24652820.1794   24652820.1674
     -2142.5694
  18935805.07049  14743127.03147  23699532.2264   23699532.5624
     -4277.5364
   1194729.88749    934374.68847  23412828.2184   23412825.3434
     -2169.4484
  -1054553.43449   -812731.53946  24899257.9214   24899257.8234
      2332.7864
   1914159.34449   1489344.98448  21519446.6874   21519445.0154
     -1109.2674
 -10125501.83249  -7885533.18447  22381935.9374   22381933.8514
       981.7054
 04  9 16 22 43 30.0030000  0  8G31G 8G10G13G19G29G27G28
  -1615180.79349  -1247302.85246  24617813.2884   24617815.1044
      3097.7164
  -5701979.58649  -4437751.85948  21213896.2724   21213894.5734
        -2.1334
   2628417.09849   2048150.37946  24658958.8434   24658957.5224
     -2150.3744
  19000032.68049  14793174.46947  23711755.2574   23711754.4294
     -4281.8414
   1227407.67249    959837.90247  23419046.7964   23419043.7104
     -2178.5194
  -1089491.37549   -839955.89846  24892609.2414   24892608.3274
      2329.1964
   1930870.27749   1502366.49248  21522626.6324   21522624.9214
     -1114.0624
 -10140145.63349  -7896943.91447  22379149.0694   22379147.1124
       976.2534
 04  9 16 22 43 45.0030000  0  8G31G 8G10G13G19G29G27G28
  -1661624.97349  -1283493.03146  24608974.9134   24608976.6904
      3096.2794
  -5701871.58249  -4437667.69148  21213916.9294   21213915.1904
        -7.2004
   2660788.66049   2073374.94946  24665118.8904   24665118.1164
     -2158.1044
  19064323.68449  14843271.31347  23723989.4444   23723988.8394
     -4286.0674
   1260220.57049    985406.38347  23425290.8194   23425287.7454
     -2187.5274
  -1124375.95349   -867138.67646  24885969.9444   24885970.0814
      2325.6394
   1947652.34449   1515443.42648  21525819.9834   21525818.6444
     -1118.8044
 -10154708.54349  -7908291.63347  22376377.9294   22376375.7294
       970.8614
 04  9 16 22 44  0.0030000  0  8G31G 8G10G13G19G29G27G28
  -1708046.15249  -1319665.27046  24600140.9444   24600142.9564
      3094.7454
  -5701686.28149  -4437523.30148  21213951.7494   21213950.3664
       -12.3534
   2693277.03549   2098690.55546  24671301.2494   24671300.6084
     -2165.8924
  19128679.01649  14893418.28947  23736235.6794   23736234.9724
     -4290.3554
   1293169.55949   1011080.91047  23431560.5774   23431558.1084
     -2196.5994
  -1159205.74649   -894278.73047  24879343.0074   24879342.9054
      2321.9864
   1964506.83649   1528576.79348  21529027.3514   21529025.8084
     -1123.6334
 -10169189.26249  -7919575.28547  22373622.2024   22373620.2654
       965.3814
 04  9 16 22 44 15.0030000  0  8G31G 8G10G13G19G29G27G28
  -1754445.09449  -1355820.17646  24591312.1164   24591313.7144
      3093.2634
  -5701424.87149  -4437319.60548  21214001.8124   21214000.0774
       -17.4274
   2725880.67249   2124095.96146  24677505.2884   24677505.2224
     -2173.5764
  19193097.03949  14943614.11347  23748494.0074   23748493.8154
     -4294.5354
   1326253.14849   1036860.32847  23437856.7104   23437853.7064
     -2205.5734
  -1193981.56649   -921376.75847  24872724.8274   24872725.5774
      2318.3884
   1981432.53149   1541765.64148  21532248.2574   21532246.6634
     -1128.3804
 -10183589.02349  -7930795.86347  22370882.2414   22370880.2724
       959.9844
 04  9 16 22 44 30.0030000  0  8G31G 8G10G13G19G29G27G28
  -1800819.30949  -1391955.84446  24582487.1874   24582488.4254
      3091.6144
  -5701085.03949  -4437054.79348  21214066.5224   21214064.7764
       -22.6554
   2758601.51249   2149592.70346  24683731.4834   24683731.8434
     -2181.3894
  19257579.67249  14993860.25847  23760764.5854   23760764.3004
     -4298.8424
   1359473.36749   1062746.21147  23444178.0854   23444174.6984
     -2214.6814
  -1228701.12549   -948430.89846  24866117.9834   24866118.1634
      2314.6374
   1998431.72749   1555011.77048  21535483.1944   21535481.4564
     -1133.2804
 -10197905.62549  -7941951.63747  22368157.7804   22368155.7534
       954.4404
 04  9 16 22 44 45.0030000  0  8G31G 8G10G13G19G29G27G28
  -1847171.71549  -1428074.50046  24573666.2264   24573668.2224
      3090.1604
  -5700669.88349  -4436731.29748  21214145.5464   21214143.8974
       -27.6774
   2791436.01249   2175177.98446  24689979.6404   24689980.5384
     -2188.9674
  19322123.43449  15044154.06647  23773046.5934   23773046.0504
     -4302.9174
   1392826.85949   1088735.93847  23450524.4374   23450521.7804
     -2223.5664
  -1263367.12949   -975443.35946  24859520.9134   24859521.3234
      2311.0674
   2015501.32449   1568312.75448  21538731.2264   21538729.7494
     -1137.9734
 -10212142.39149  -7953045.20347  22365448.6244   22365446.5114
       949.1184
 04  9 16 22 45  0.0030000  0  8G31G 8G10G13G19G29G27G28
  -1893501.96149  -1464175.87946  24564849.9054   24564851.3974
      3088.6834
  -5700179.19549  -4436348.93748  21214238.5934   21214237.2454
       -32.7124
   2824383.91449   2200851.66446  24696249.5074   24696249.2654
     -2196.5274
  19386728.18049  15094495.37147  23785340.8584   23785340.8044
     -4306.9834
   1426313.41849   1114829.34447  23456897.0694   23456894.2294
     -2232.4374
  -1297979.54349  -1002414.03146  24852934.1634   24852933.6324
      2307.4944
   2032641.36749   1581668.62948  21541992.9444   21541991.3824
     -1142.6704
 -10226299.26649  -7964076.51647  22362754.3514   22362752.5074
       943.7924
 04  9 16 22 45 15.0030000  0  8G31G 8G10G13G19G29G27G28
  -1939809.41849  -1500259.52346  24556038.5304   24556039.6124
      3087.1644
  -5699612.66849  -4435907.48448  21214346.4374   21214344.8944
       -37.7684
   2857445.24249   2226613.72746  24702541.2574   24702540.1874
     -2204.0894
  19451393.68849  15144884.03547  23797645.8434   23797645.7184
     -4311.0344
   1459933.11349   1141026.51247  23463294.7884   23463291.7064
     -2241.3134
  -1332537.51649  -1029342.31246  24846357.4914   24846357.7104
      2303.8654
   2049852.24649   1595079.70348  21545267.9444   21545266.3904
     -1147.3924
 -10240376.00849  -7975045.39147  22360076.0464   22360073.6594
       938.4494
 04  9 16 22 45 30.0030000  0  8G31G 8G10G13G19G29G27G28
  -1986092.16449  -1536323.90246  24547230.5154   24547232.3824
      3085.5164
  -5698968.85249  -4435405.80148  21214468.9134   21214467.4444
       -42.9214
   2890621.23049   2252465.13746  24708854.7574   24708854.0264
     -2211.7334
  19516121.26649  15195321.05947  23809963.4524   23809962.7224
     -4315.1724
   1493687.19149   1167328.38747  23469717.6874   23469714.9834
     -2250.2724
  -1367039.35949  -1056226.82046  24839792.7184   24839792.3784
      2300.1234
   2067135.66849   1608547.30148  21548556.8974   21548555.3824
     -1152.2284
 -10254371.07049  -7985950.61347  22357412.8274   22357410.3824
       933.0044
 04  9 16 22 45 45.0030000  0  8G31G 8G10G13G19G29G27G28
  -2032344.92649  -1572364.91446  24538428.5154   24538430.4094
      3083.5174
  -5698242.62549  -4434839.91048  21214607.3974   21214605.6904
       -48.4154
   2923916.44549   2278409.46146  24715190.3274   24715190.2024
     -2219.6814
  19580915.55149  15245810.07447  23822293.5384   23822293.0624
     -4319.6194
   1527580.48049   1193738.74247  23476167.6554   23476164.5154
     -2259.5534
  -1401479.76649  -1083063.47346  24833240.0384   24833238.4014
      2296.0274
   2084496.55949   1622075.26648  21551860.5154   21551859.1204
     -1157.3934
 -10268279.52749  -7996788.35247  22354766.3744   22354764.3354
       927.2304
 04  9 16 22 46  0.0030000  0  8G31G 8G10G13G19G29G27G28
  -2078572.61349  -1608386.39846  24529631.7654   24529633.5974
      3081.8464
  -5697438.75049  -4434213.50448  21214760.5224   21214758.2494
       -53.5924
   2957325.73049   2304442.64546  24721547.3664   24721548.6044
     -2227.2864
  19645771.24249  15296346.94147  23834635.0934   23834634.9524
     -4323.7134
   1561607.78949   1220253.52747  23482643.1794   23482639.9994
     -2268.4874
  -1435863.58249  -1109856.07046  24826695.8824   24826695.3864
      2292.2544
   2101930.04349   1635659.80148  21555178.1014   21555176.4524
     -1162.2324
 -10282106.29749  -8007562.44147  22352134.7494   22352132.5034
       921.7854
 04  9 16 22 46 15.0030000  0  8G31G 8G10G13G19G29G27G28
  -2124776.21149  -1644389.10546  24520839.6794   24520840.8434
      3080.2404
  -5696558.68049  -4433527.73448  21214927.6324   21214926.1474
       -58.6714
   2990847.10949   2330563.15646  24727926.1794   24727927.3784
     -2234.7594
  19710686.30149  15346930.03947  23846987.7024   23846987.7694
     -4327.6714
   1595767.35249   1246871.36747  23489143.2264   23489140.1474
     -2277.3044
  -1470192.07449  -1136605.50447  24820163.7104   24820163.1514
      2288.5664
   2119434.69549   1649299.78548  21558509.5074   21558507.5154
     -1166.9774
 -10295852.98049  -8018274.12947  22349519.0464   22349516.7534
       916.4464
 04  9 16 22 46 30.0030000  0  8G31G 8G10G13G19G29G27G28
  -2170955.19949  -1680372.62947  24512051.8974   24512053.4404
      3078.5994
  -5695601.94149  -4432782.21548  21215109.6634   21215108.2264
       -63.7834
   3024480.57449   2356771.02346  24734327.2334   24734326.6674
     -2242.2314
  19775660.64549  15397559.36347  23859352.3744   23859352.0974
     -4331.6234
   1630059.13749   1273592.24647  23495668.4834   23495665.7144
     -2286.1194
  -1504464.53149  -1163311.28547  24813642.7884   24813641.8704
      2284.8304
   2137010.69949   1662995.36748  21561853.5384   21561852.1404
     -1171.7344
 -10309519.27749  -8028923.17247  22346918.2964   22346916.3004
       911.0864
 04  9 16 22 46 45.0030000  0  8G31G 8G10G13G19G29G27G28
  -2217107.75849  -1716335.56246  24503269.1014   24503270.9994
      3076.8374
  -5694566.89149  -4431975.68748  21215306.5774   21215305.3904
       -69.0034
   3058227.20349   2383067.10546  24740748.6244   24740748.4994
     -2249.7754
  19840695.62549  15448235.92247  23871728.0074   23871727.7764
     -4335.6654
   1664484.54349   1300417.22747  23502219.8744   23502216.8784
     -2295.0274
  -1538679.35949  -1189972.17246  24807130.9214   24807130.3084
      2280.9894
   2154659.72749   1676747.85248  21565212.0224   21565210.7374
     -1176.6024
 -10323103.83649  -8039508.52047  22344333.3904   22344331.2374
       905.6374
 04  9 16 22 47  0.0030000  0  8G31G 8G10G13G19G29G27G28
  -2263236.04349  -1752279.59047  24494491.6244   24494493.0034
      3075.2194
  -5693456.09049  -4431110.11748  21215518.1944   21215516.5344
       -74.0534
   3092084.19549   2409449.14846  24747191.1554   24747191.7804
     -2257.1334
  19905788.39149  15498957.51247  23884115.0224   23884114.6944
     -4339.5184
   1699040.76649   1327344.14847  23508795.4604   23508792.1284
     -2303.7484
  -1572838.69949  -1216589.84046  24800630.9914   24800629.9374
      2277.2894
   2172379.31349   1690555.32848  21568584.1554   21568582.7144
     -1181.3064
 -10336609.06649  -8050032.05947  22341763.4914   22341761.0344
       900.3494
 04  9 16 22 47 15.0030000  0  8G31G 8G10G13G19G29G27G28
  -2309336.69149  -1788202.07447  24485719.0774   24485720.1474
      3073.3774
  -5692266.73449  -4430183.34448  21215744.4524   21215742.8664
       -79.2904
   3126054.30549   2435919.32846  24753655.8124   24753655.9644
     -2264.6744
  19970941.48449  15549726.11747  23896513.2804   23896512.8044
     -4343.5404
   1733730.56649   1354375.16447  23515396.9214   23515393.4524
     -2312.6534
  -1606939.27749  -1243161.67646  24794141.2884   24794140.3744
      2273.3724
   2190172.62949   1704420.23848  21571970.1404   21571968.5624
     -1186.2214
 -10350032.11749  -8060491.56647  22339208.9444   22339206.2494
       894.8704
 04  9 16 22 47 30.0030000  0  8G31G 8G10G13G19G29G27G28
  -2355410.30149  -1824103.50447  24476951.1014   24476951.9334
      3071.5744
  -5690999.17249  -4429195.63748  21215985.6474   21215984.2064
       -84.5044
   3160136.42649   2462476.78946  24760141.1714   24760141.7724
     -2272.1414
  20036153.90649  15600540.93847  23908922.4994   23908922.1014
     -4347.4954
   1768552.96549   1381509.50447  23522023.1084   23522020.1124
     -2321.4934
  -1640981.54349  -1269688.12947  24787664.6714   24787662.1834
      2269.4844
   2208038.91449   1718342.02348  21575369.8974   21575368.4684
     -1191.0864
 -10363373.69549  -8070887.57447  22336670.0694   22336668.1874
       889.4394
 04  9 16 22 47 45.0030000  0  8G31G 8G10G13G19G29G27G28
  -2401458.53149  -1859985.16847  24468189.0854   24468189.1444
      3069.8824
  -5689655.27349  -4428148.43748  21216241.4914   21216239.5304
       -89.5934
   3194328.29349   2489119.74646  24766648.1084   24766648.5894
     -2279.4584
  20101423.38349  15651400.22747  23921342.7884   23921342.3664
     -4351.2984
   1803505.80149   1408745.48047  23528674.7724   23528671.1474
     -2330.1894
  -1674967.28149  -1296170.51246  24781196.0464   24781195.6204
      2265.7164
   2225976.17649   1732319.10248  21578783.1474   21578781.7184
     -1195.8174
 -10376635.81249  -8081221.68047  22334146.5624   22334144.2144
       884.1414
 04  9 16 22 48  0.0030000  0  8G31G 8G10G13G19G29G27G28
  -2447479.77749  -1895845.78147  24459431.1324   24459431.6904
      3068.0834
  -5688234.10249  -4427041.02348  21216512.0624   21216510.1164
       -94.7454
   3228630.53949   2515848.75846  24773176.2264   24773175.9094
     -2286.8164
  20166750.59449  15702304.50447  23933774.6634   23933774.1514
     -4355.1474
   1838589.95349   1436083.78147  23535350.9214   23535347.3124
     -2338.9434
  -1708895.05149  -1322607.70747  24774739.9444   24774739.4954
      2261.8514
   2243985.67249   1746352.47348  21582210.3744   21582209.0624
     -1200.6334
 -10389817.39849  -8091493.02047  22331638.0624   22331635.8434
       878.7724
 04  9 16 22 48 15.0030000  0  8G31G 8G10G13G19G29G27G28
  -2493474.99249  -1931686.12546  24450678.5694   24450679.2024
      3066.3484
  -5686736.58649  -4425874.12148  21216796.9444   21216795.1514
       -99.8344
   3263041.80149   2542662.72746  24779724.3584   24779723.9954
     -2294.0844
  20232134.16849  15753252.68847  23946216.2804   23946216.5774
     -4358.9054
   1873804.14149   1463523.41047  23542051.8584   23542048.6444
     -2347.6124
  -1742765.74249  -1349000.44547  24768295.2804   24768293.0584
      2258.0464
   2262066.39849   1760441.34848  21585651.1874   21585649.6124
     -1205.3824
 -10402919.66449  -8101702.55947  22329144.9834   22329142.7374
       873.4844
 04  9 16 22 48 30.0030000  0  8G31G 8G10G13G19G29G27G28
  -2539441.97349  -1967504.46146  24441930.7884   24441931.6554
      3064.4654
  -5685160.48849  -4424645.99248  21217096.6014   21217095.1164
      -105.0734
   3297563.65649   2569562.85246  24786292.9604   24786293.7064
     -2301.4574
  20297575.60949  15804245.96947  23958669.5774   23958669.1634
     -4362.7634
   1909149.85949   1491065.53147  23548777.7494   23548774.4834
     -2356.3814
  -1776577.28149  -1375347.06247  24761861.0544   24761859.2534
      2254.1034
   2280220.16049   1774587.13348  21589105.7884   21589104.3704
     -1210.2514
 -10415940.66049  -8111848.77747  22326666.9764   22326664.8974
       868.0664
 04  9 16 22 48 45.0030000  0  8G31G 8G10G13G19G29G27G28
  -2585381.82449  -2003301.66047  24433188.3974   24433189.4374
      3062.6574
  -5683507.39849  -4423357.86348  21217411.4604   21217409.9054
      -110.2064
   3332194.29349   2596547.72746  24792882.7104   24792883.4644
     -2308.7094
  20363073.15249  15855282.97747  23971133.3824   23971133.3704
     -4366.5034
   1944625.46149   1518708.85247  23555529.1404   23555525.4374
     -2365.0404
  -1810330.68449  -1401648.41046  24755437.7184   24755436.6164
      2250.2274
   2298445.60949   1788788.78148  21592573.7494   21592572.1984
     -1215.0304
 -10428881.90249  -8121932.83647  22324204.3824   22324202.0504
       862.7494
 04  9 16 22 49  0.0030000  0  8G31G 8G10G13G19G29G27G28
  -2631294.18749  -2039077.44147  24424452.1404   24424452.7534
      3060.8244
  -5681777.26649  -4422009.71548  21217740.4914   21217738.9294
      -115.3424
   3366933.32849   2623617.09846  24799493.9524   24799493.5544
     -2315.9364
  20428626.41049  15906363.38747  23983608.0224   23983607.6444
     -4370.2174
   1980230.72749   1546453.21547  23562304.2104   23562301.5224
     -2373.6844
  -1844025.81249  -1427904.34446  24749025.3434   24749024.6794
      2246.3424
   2316742.85949   1803046.37148  21596055.7414   21596054.2654
     -1219.8174
 -10441743.44149  -8131954.79347  22321756.6164   22321754.5384
       857.4364
 04  9 16 22 49 15.0030000  0  8G31G 8G10G13G19G29G27G28
  -2677181.66449  -2074833.81246  24415719.9134   24415720.6014
      3059.1654
  -5679972.95749  -4420603.75448  21218083.8824   21218082.0974
      -120.2874
   3401777.66049   2650768.51646  24806124.6554   24806124.1404
     -2322.9554
  20494232.16449  15957484.70347  23996092.4684   23996092.0304
     -4373.7174
   2015962.51649   1574296.17247  23569103.4054   23569100.9874
     -2382.1194
  -1877665.17249  -1454116.80147  24742624.4054   24742623.5734
      2242.6244
   2335109.12549   1817357.75048  21599550.7574   21599548.9254
     -1224.4184
 -10454528.11749  -8141916.86747  22319324.0384   22319321.4764
       852.3124
 04  9 16 22 49 30.0030000  0  8G31G 8G10G13G19G29G27G28
  -2723041.31649  -2110568.52746  24406992.5694   24406993.1444
      3057.3104
  -5678091.49649  -4419137.68048  21218442.0624   21218440.3824
      -125.4314
   3436729.49249   2678003.67246  24812775.8904   24812775.4444
     -2330.1224
  20559892.79349  16008648.77347  24008587.2494   24008587.2024
     -4377.3754
   2051823.25049   1602239.59047  23575927.5934   23575924.5654
     -2390.7164
  -1911245.88349  -1480283.57846  24736234.2804   24736232.3514
      2238.7144
   2353547.00449   1831724.92248  21603059.1794   21603057.9564
     -1229.1924
 -10467233.39549  -8151817.05547  22316906.2024   22316904.1364
       847.0184
 04  9 16 22 49 45.0030000  0  8G31G 8G10G13G19G29G27G28
  -2768870.39549  -2146279.41046  24398271.9524   24398272.4294
      3055.2724
  -5676130.56249  -4417609.67248  21218815.1404   21218813.6754
      -130.7294
   3471791.02349   2705324.30146  24819447.6944   24819447.9294
     -2337.4354
  20625610.27349  16059857.15247  24021092.7414   24021093.3194
     -4381.1654
   2087815.04749   1630285.15247  23582776.9054   23582773.5424
     -2399.4534
  -1944765.23849  -1506402.54746  24729855.5624   24729854.1594
      2234.6244
   2372058.98049   1846149.83248  21606581.9914   21606580.4874
     -1234.1324
 -10479856.87149  -8161653.51647  22314503.8744   22314501.8584
       841.5654
 04  9 16 22 50  0.0030000  0  8G31G 8G10G13G19G29G27G28
  -2814665.87949  -2181964.11746  24389556.9684   24389558.6474
      3053.0324
  -5674087.23049  -4416017.46948  21219203.7264   21219202.4834
      -136.2224
   3506964.59449   2732732.28546  24826141.5624   24826141.3004
     -2344.9054
  20691387.19549  16111111.85247  24033609.4834   24033609.7924
     -4385.1284
   2123940.49249   1658434.85247  23589651.1084   23589648.2884
     -2408.3634
  -1978220.35949  -1532471.45746  24723489.2184   24723488.8624
      2230.3414
   2390647.99649   1860634.77348  21610119.4294   21610117.4014
     -1239.2684
 -10492395.81649  -8171424.10547  22312117.7574   22312115.6474
       835.9304
 04  9 16 22 50 15.0030000  0  8G31G 8G10G13G19G29G27G28
  -2860429.79749  -2217624.21146  24380848.3514   24380849.5464
      3050.9284
  -5671963.92649  -4414362.94148  21219607.8514   21219606.2534
      -141.5544
   3542247.52749   2760225.44546  24832855.2264   24832855.6794
     -2352.1964
  20757220.71549  16162410.64847  24046137.5624   24046137.6244
     -4388.9014
   2160197.05549   1686686.71547  23596550.9604   23596547.7374
     -2417.1044
  -2011613.08649  -1558491.74646  24717134.9444   24717133.7654
      2226.1824
   2409311.60549   1875177.84448  21613670.7724   21613668.9214
     -1244.2414
 -10504852.62949  -8181130.69547  22309747.5624   22309745.0934
       830.4544
 04  9 16 22 50 30.0030000  0  8G31G 8G10G13G19G29G27G28
  -2906160.50049  -2253258.41846  24372145.8274   24372147.3044
      3048.7144
  -5669759.33249  -4412645.07448  21220027.4054   21220025.8194
      -146.9734
   3577640.65249   2787804.49646  24839589.6324   24839590.4484
     -2359.5424
  20823111.68849  16213754.20747  24058676.2334   24058676.3784
     -4392.7324
   2196585.74649   1715041.53147  23603474.9524   23603472.2844
     -2425.9134
  -2044942.05149  -1584462.34446  24710792.8124   24710790.5154
      2221.9314
   2428051.19549   1889780.11748  21617237.1084   21617235.1754
     -1249.3064
 -10517226.16449  -8190772.39147  22307392.7494   22307390.0584
       824.9024
 04  9 16 22 50 45.0030000  0  8G31G 8G10G13G19G29G27G28
  -2951862.35249  -2288870.16446  24363449.4294   24363449.5854
      3046.7904
  -5667477.69549  -4410867.17248  21220461.5224   21220460.0974
      -152.1094
   3613139.12549   2815465.61346  24846345.2024   24846345.3434
     -2366.5654
  20889055.20749  16265138.73447  24071225.0384   24071224.6674
     -4396.2354
   2233101.64849   1743495.47747  23610423.7414   23610420.7184
     -2434.3934
  -2078211.62549  -1610386.67647  24704460.9684   24704459.8664
      2217.9724
   2446862.11749   1904437.97348  21620816.4444   21620814.9374
     -1254.0614
 -10529520.95749  -8200352.73047  22305053.1944   22305050.8584
       819.6534
 04  9 16 22 51  0.0030000  0  8G31G 8G10G13G19G29G27G28
  -2997532.66849  -2324457.34846  24354758.4134   24354758.5304
      3044.6884
  -5665116.54349  -4409027.31248  21220911.0154   21220909.2694
      -157.4104
   3648744.84049   2843210.30146  24853121.0224   24853120.5114
     -2373.7144
  20955053.36349  16316565.80947  24083783.6084   24083784.1634
     -4399.8774
   2269746.86749   1772050.19547  23617397.0694   23617394.3904
     -2443.0154
  -2111419.06249  -1636262.59846  24698141.9054   24698141.0194
      2213.8294
   2465746.97349   1919153.44148  21624409.7964   21624408.5114
     -1258.9904
 -10541734.68049  -8209869.89547  22302728.9214   22302726.7144
       814.2484
 04  9 16 22 51 15.0030000  0  8G31G 8G10G13G19G29G27G28
  -3043169.45349  -2360018.37947  24346073.5774   24346075.1714
      3042.4524
  -5662674.21949  -4407124.19948  21221375.6714   21221374.2334
      -162.8224
   3684459.18849   2871039.66846  24859916.6014   24859917.6124
     -2380.9574
  21021107.53549  16368036.53147  24096353.5154   24096353.4874
     -4403.6114
   2306522.86349   1800706.81347  23624395.5854   23624392.1284
     -2451.7334
  -2144562.43449  -1662088.57846  24691835.4134   24691834.3864
      2209.5584
   2484707.51249   1933927.88348  21628018.1404   21628016.8864
     -1264.0364
 -10553865.71149  -8219322.63347  22300420.2264   22300418.0974
       808.7354
 04  9 16 22 51 30.0030000  0  8G31G 8G10G13G19G29G27G28
  -3088772.48849  -2395553.11747  24337395.7724   24337396.8974
      3040.2024
  -5660150.90649  -4405157.97748  21221855.8194   21221854.5344
      -168.2214
   3720281.71949   2898953.28546  24866733.7804   24866734.3864
     -2388.1694
  21087217.18849  16419550.50447  24108934.0464   24108933.7414
     -4407.3104
   2343429.16449   1829464.96147  23631418.6474   23631415.5694
     -2460.4204
  -2177641.68049  -1687864.60246  24685540.1714   24685539.1284
      2205.2834
   2503743.40649   1948761.04348  21631640.7024   21631638.9404
     -1269.0604
 -10565914.22749  -8228711.06247  22298127.5304   22298125.6944
       803.2344
 04  9 16 22 51 45.0030000  0  8G31G 8G10G13G19G29G27G28
  -3134342.88349  -2431062.43047  24328723.8514   24328725.0814
      3038.0264
  -5657547.88349  -4403129.64848  21222351.0694   21222349.4794
      -173.5354
   3756210.62949   2926949.80946  24873570.6794   24873571.8544
     -2395.2614
  21153380.56349  16471106.32447  24121524.2414   24121524.3784
     -4410.8924
   2380464.04349   1858323.30547  23638466.1474   23638462.8864
     -2468.9924
  -2210657.76249  -1713591.40646  24679257.8904   24679256.9334
      2201.0724
   2522853.54349   1963652.05148  21635277.3434   21635275.6284
     -1274.0094
 -10577881.66449  -8238036.32047  22295850.7184   22295848.0974
       797.8294
 04  9 16 22 52  0.0030000  0  8G31G 8G10G13G19G29G27G28
  -3179882.98049  -2466548.12147  24320058.0544   24320058.9874
      3036.0074
  -5654867.53949  -4401041.06648  21222861.2184   21222859.7334
      -178.6904
   3792243.00049   2955026.95746  24880428.1244   24880428.1944
     -2402.1584
  21219594.68049  16522701.68447  24134124.6944   24134124.8624
     -4414.2744
   2417624.77049   1887279.69147  23645537.8584   23645534.6404
     -2477.3824
  -2243613.29749  -1739271.00846  24672986.2264   24672985.0584
      2197.0364
   2542035.22349   1978598.80948  21638927.2654   21638925.8124
     -1278.7794
 -10589770.82849  -8247300.59447  22293587.7884   22293585.5074
       792.6114
 04  9 16 22 52 15.0030000  0  8G31G 8G10G13G19G29G27G28
  -3225391.27749  -2502009.04347  24311397.9444   24311398.8474
      3033.8864
  -5652108.66449  -4398891.28948  21223386.0694   21223384.5264
      -183.9254
   3828379.66049   2983185.37946  24887304.0224   24887304.4564
     -2409.1114
  21285860.32049  16574337.20347  24146734.2724   24146734.5974
     -4417.7094
   2454912.36349   1916334.95747  23652633.2574   23652630.3944
     -2485.8404
  -2276506.71149  -1764902.20747  24666726.9374   24666726.7064
      2192.8944
   2561289.84849   1993602.40648  21642591.6324   21642589.8474
     -1283.6424
 -10601580.46149  -8256502.88347  22291340.6244   22291338.1204
       787.3094
 04  9 16 22 52 30.0030000  0  8G31G 8G10G13G19G29G27G28
  -3270865.23049  -2537443.19547  24302744.4294   24302745.9604
      3031.5974
  -5649268.95349  -4396678.53548  21223926.7574   21223925.0304
      -189.3144
   3864622.58249   3011426.59846  24894201.0624   24894201.5194
     -2416.1954
  21352179.53949  16626014.46547  24159354.5694   24159354.7884
     -4421.2814
   2492328.68449   1945490.52347  23659753.0074   23659750.4404
     -2494.4214
  -2309335.37149  -1790482.96546  24660479.6164   24660479.6554
      2188.5774
   2580619.55549   2008664.51248  21646269.8354   21646268.2374
     -1288.6474
 -10613308.30549  -8265641.44547  22289108.7574   22289106.4054
       781.8564
 04  9 16 22 52 45.0030000  0  8G31G 8G10G13G19G29G27G28
  -3316303.78549  -2572849.78947  24294097.4524   24294097.6984
      3029.2374
  -5646347.73049  -4394402.24248  21224482.2964   21224480.7534
      -194.7484
   3900971.94949   3039750.77347  24901118.8194   24901118.0894
     -2423.2914
  21418552.62549  16677733.69947  24171984.8664   24171985.3084
     -4424.8724
   2529874.18049   1974746.73847  23666897.6944   23666894.8394
     -2503.0334
  -2342098.48049  -1816012.63746  24654244.7574   24654244.4684
      2184.2074
   2600025.12149   2023785.72748  21649962.5934   21649961.2574
     -1293.7044
 -10624953.78549  -8274715.84047  22286892.8044   22286890.1714
       776.3654
 04  9 16 22 53  0.0030000  0  8G31G 8G10G13G19G29G27G28
  -3361711.18449  -2608232.08647  24285457.2964   24285457.5344
      3027.1604
  -5643349.34049  -4392065.83248  21225053.1244   21225051.4334
      -199.8934
   3937423.00449   3068154.15646  24908055.1944   24908054.0934
     -2430.0704
  21484974.61749  16729491.05147  24184624.5544   24184624.8864
     -4428.1334
   2567544.06349   2004099.87147  23674065.6554   23674063.4054
     -2511.3264
  -2374800.15649  -1841494.43046  24648022.3904   24648021.6044
      2180.1124
   2619502.14149   2038962.62548  21653668.7334   21653667.3514
     -1298.4684
 -10636521.41849  -8283729.55947  22284691.3124   22284689.1324
       771.1764
 04  9 16 22 53 15.0030000  0  8G31G 8G10G13G19G29G27G28
  -3407085.54349  -2643588.66847  24276822.1404   24276823.0934
      3024.9574
  -5640272.35249  -4389668.18048  21225638.8044   21225636.8744
      -205.1334
   3973976.87549   3096637.68446  24915010.5854   24915010.4954
     -2436.9254
  21551446.79349  16781287.50047  24197273.8744   24197274.3314
     -4431.4784
   2605339.60949   2033550.94147  23681258.1244   23681255.9054
     -2519.7034
  -2407438.68049  -1866927.01246  24641811.6324   24641810.9214
      2175.9024
   2639052.24249   2054196.46148  21657389.2964   21657388.0114
     -1303.3404
 -10648009.68049  -8292681.44147  22282505.2334   22282502.8544
       765.8844
 04  9 16 22 53 30.0030000  0  8G31G 8G10G13G19G29G27G28
  -3452423.94949  -2678917.20347  24268195.2654   24268195.7454
      3022.5604
  -5637113.75849  -4387206.93448  21226239.6164   21226237.8154
      -210.5734
   4010635.75049   3125203.02346  24921986.3434   24921986.4564
     -2443.9254
  21617971.38349  16833124.80147  24209933.4214   24209933.4914
     -4434.9734
   2643263.21149   2063101.79347  23688475.0934   23688472.3664
     -2528.2404
  -2440011.14549  -1892308.12147  24635612.3124   24635612.0624
      2171.4984
   2658677.99649   2069489.25448  21661123.8744   21661121.9054
     -1308.3844
 -10659416.14149  -8301569.57847  22280334.8354   22280332.6754
       760.4314
 04  9 16 22 53 45.0030000  0  8G31G 8G10G13G19G29G27G28
  -3497727.25849  -2714218.39547  24259573.9994   24259574.6404
      3020.2214
  -5633874.62149  -4384682.93448  21226856.0224   21226854.2224
      -215.9424
   4047398.30549   3153849.15246  24928982.7264   24928982.3274
     -2450.8374
  21684546.99649  16885001.83647  24222602.2964   24222602.7654
     -4438.3744
   2681313.52049   2092751.36747  23695715.6794   23695712.5894
     -2536.6874
  -2472518.44549  -1917638.44547  24629426.9914   24629426.2764
      2167.1534
   2678378.31649   2084840.15248  21664872.6874   21664871.1634
     -1313.3554
 -10670741.86749  -8310394.79347  22278179.4994   22278177.2294
       755.0484
 04  9 16 22 54  0.0030000  0  8G31G 8G10G13G19G29G27G28
  -3542995.03949  -2749491.92247  24250959.6714   24250960.1324
      3017.8524
  -5630554.98449  -4382096.19948  21227487.7494   21227486.0344
      -221.3094
   4084264.09449   3182575.72746  24935998.0384   24935997.4684
     -2457.7194
  21751173.20349  16936918.30547  24235281.1404   24235281.2264
     -4441.7474
   2719490.23449   2122499.43847  23702980.5544   23702977.4254
     -2545.1144
  -2504960.16449  -1942917.69147  24623253.4524   24623252.7694
      2162.7814
   2698153.35949   2100249.27348  21668635.9834   21668634.0424
     -1318.3364
 -10681986.91849  -8319157.16447  22276039.7884   22276037.3664
       749.6704
 04  9 16 22 54 15.0030000  0  8G31G 8G10G13G19G29G27G28
  -3588226.84849  -2784737.41847  24242352.2184   24242353.1904
      3015.4544
  -5627154.38749  -4379446.37948  21228134.7804   21228133.3474
      -226.7074
   4121233.03149   3211382.67647  24943032.8194   24943032.6444
     -2464.5964
  21817850.00449  16988874.21547  24247969.4604   24247969.3974
     -4445.1204
   2757793.28949   2152345.96947  23710269.6794   23710266.1834
     -2553.5374
  -2537335.97749  -1968145.58247  24617093.2264   24617091.6874
      2158.3884
   2718003.44549   2115716.87148  21672413.4604   21672411.6754
     -1323.3394
 -10693151.04749  -8327856.46947  22273915.1874   22273913.0074
       744.2754
 04  9 16 22 54 30.0030000  0  8G31G 8G10G13G19G29G27G28
  -3633424.07449  -2819955.94947  24233751.6324   24233752.3974
      3013.1484
  -5623674.71949  -4376734.95348  21228796.9914   21228795.4404
      -231.9784
   4158303.06649   3240268.39146  24950086.7104   24950087.0694
     -2471.3364
  21884575.19549  17040867.82047  24260666.0464   24260666.5464
     -4448.3464
   2796220.68449   2182289.36747  23717581.9374   23717578.5694
     -2561.8264
  -2569647.27349  -1993323.18446  24610944.2494   24610943.3904
      2154.0864
   2737926.84449   2131241.59048  21676204.0544   21676202.9214
     -1328.2274
 -10704236.07449  -8336494.14547  22271805.8194   22271803.3904
       739.0024
 04  9 16 22 54 45.0030000  0  8G31G 8G10G13G19G29G27G28
  -3678583.76649  -2855145.24247  24225157.5934   24225158.3354
      3010.6464
  -5620112.87949  -4373959.48048  21229474.8824   21229473.1634
      -237.4564
   4195476.50849   3269234.70746  24957160.3744   24957160.1794
     -2478.2294
  21951351.32849  17092901.10946  24273373.4294   24273373.9994
     -4451.7424
   2834775.03549   2212331.71547  23724918.5854   23724915.4834
     -2570.2904
  -2601890.96149  -2018448.11347  24604808.2804   24604807.0624
      2149.5794
   2757926.34049   2146825.60548  21680010.3664   21680008.7574
     -1333.3004
 -10715239.37149  -8345068.12147  22269712.0854   22269709.3234
       733.5534
